ECMWFNIL_925_spd_000.txt.gz
Wind_Speed
15 12 11 11 9 9 12 13 14 12 13 16 19 17 16 18 20 20 21 24 25 28 31 30 28 26 24 24 24 25 29 31 34 38 38 36 38 39 39 38 36 35
13 12 12 13 10 8 8 9 10 11 13 16 20 21 22 24 25 24 26 29 29 32 35 33 31 27 24 23 22 21 23 27 31 35 35 35 39 39 38 36 35 36
14 14 14 15 13 11 11 12 13 15 17 19 21 22 23 24 25 27 28 29 30 32 34 33 33 31 29 28 27 26 26 26 29 32 33 33 36 37 35 35 35 34
15 14 14 15 15 13 13 14 15 16 16 18 18 19 20 21 23 25 26 27 29 30 30 31 31 31 30 32 32 32 31 30 30 31 33 34 35 36 36 34 34 34
14 14 15 14 13 13 13 14 15 15 15 16 16 17 18 20 21 23 24 26 27 28 30 32 33 32 32 33 33 35 35 34 31 30 32 36 36 36 37 35 34 33
15 15 16 15 13 13 14 15 15 15 15 16 16 18 20 21 22 23 25 26 26 28 31 33 35 35 35 34 32 33 34 33 31 29 30 35 37 37 38 36 35 34
16 17 17 16 14 13 15 15 14 14 15 16 17 19 20 20 21 22 24 26 27 29 31 33 35 36 35 34 32 33 33 32 31 29 29 32 35 35 36 37 36 35
16 16 17 17 15 14 14 14 13 13 13 15 17 17 17 17 18 19 21 23 25 27 30 31 33 35 36 34 31 31 32 31 29 28 28 31 33 32 32 34 35 35
16 15 15 15 14 13 14 14 15 14 13 14 15 15 14 15 17 18 20 21 22 25 28 29 31 34 35 33 30 29 29 29 27 26 26 29 32 31 30 31 32 33
16 16 15 14 13 13 15 17 17 16 14 14 13 13 15 16 18 19 20 22 23 24 25 26 28 30 31 31 30 29 28 27 25 25 24 25 27 28 29 30 31 33
16 17 16 14 12 12 14 18 19 17 14 13 12 14 16 18 19 20 21 23 23 23 24 24 25 26 28 29 28 25 25 25 24 25 26 27 28 28 29 29 32 36
16 17 18 16 14 13 14 17 19 18 15 13 13 15 18 20 20 21 22 23 22 22 24 23 22 22 23 24 23 22 23 25 26 28 29 30 32 33 33 32 33 36
14 16 18 16 14 14 14 15 18 19 18 16 15 16 19 21 21 22 22 22 21 20 20 19 18 17 19 21 22 23 25 27 28 29 31 33 34 35 36 35 35 37
13 14 15 14 13 13 14 15 17 18 19 18 17 18 20 22 22 22 22 22 21 18 16 16 16 17 21 24 26 26 25 25 26 28 31 33 36 37 37 36 37 38
12 13 13 12 13 15 16 16 18 19 19 19 19 19 21 20 20 21 22 22 21 18 16 15 15 16 17 18 20 23 24 25 27 29 31 32 34 36 37 36 37 38
12 12 13 13 14 17 18 17 19 20 20 20 21 21 21 20 20 21 21 21 21 19 18 16 14 15 15 15 19 22 22 24 26 28 30 31 32 33 34 34 35 37
12 12 13 15 16 18 18 18 20 21 19 19 21 22 22 21 21 21 20 19 19 20 19 16 14 17 20 20 23 23 20 20 24 26 27 29 29 29 32 32 33 35
12 13 14 16 16 17 18 18 20 20 20 20 21 21 22 22 21 20 18 18 19 21 20 17 17 22 25 24 24 24 22 21 22 23 23 25 26 26 29 30 31 33
12 14 15 16 16 17 18 19 19 20 22 22 22 21 21 21 20 19 17 16 18 21 21 19 21 26 26 26 28 26 22 21 21 20 20 20 21 22 25 26 27 28
13 15 16 17 17 17 18 19 19 21 22 22 22 22 21 19 19 18 16 15 17 18 20 20 22 26 27 27 30 28 23 20 19 17 16 15 15 17 21 25 26 27
14 16 17 19 19 18 18 19 20 21 23 22 21 21 19 16 16 16 14 14 15 16 18 20 21 26 29 28 30 29 22 18 16 12 10 9 7 9 15 21 24 26
15 16 19 21 21 19 19 20 20 20 21 21 20 20 17 12 12 13 12 13 14 14 17 20 21 26 29 29 31 29 19 15 13 7 6 4 3 6 11 17 21 22
17 19 21 22 22 20 20 20 19 18 18 20 19 19 16 11 9 10 11 11 13 14 16 19 21 25 28 28 31 30 21 15 10 4 6 5 5 8 11 15 17 18
19 21 22 22 20 19 18 18 17 16 17 18 18 19 17 12 8 9 10 10 12 14 14 17 20 23 25 26 29 32 28 22 17 16 15 13 12 11 12 15 17 17
18 21 20 18 16 16 15 15 16 16 16 18 19 20 19 12 8 8 9 10 12 13 12 14 18 20 22 24 26 30 31 27 23 22 20 19 21 20 18 19 21 19
16 17 15 13 13 14 14 14 15 17 17 19 21 19 16 13 8 8 9 10 10 11 11 12 15 18 19 21 23 25 28 29 28 25 22 20 23 26 26 27 27 25

ECMWFNIL_925_spd_003.txt.gz
Wind_Speed
15 15 16 17 17 17 17 17 16 15 13 12 13 14 14 14 13 14 17 18 19 21 23 25 26 26 26 27 28 29 30 29 28 30 32 33 33 34 35 37 37 34
12 13 14 15 16 16 15 15 14 14 14 14 14 15 15 16 15 16 17 18 19 21 24 27 29 29 28 29 29 31 32 32 32 31 31 33 33 33 35 36 36 35
11 12 13 15 16 16 15 14 14 14 15 14 13 13 13 14 14 15 16 17 19 22 24 26 29 30 30 29 30 31 33 34 34 33 32 34 33 33 35 35 35 36
11 11 12 13 14 14 14 14 14 14 15 15 13 13 13 13 14 14 15 16 19 21 23 25 27 30 30 30 30 30 33 34 34 33 33 34 34 33 34 33 34 36
12 11 11 12 12 13 13 13 14 14 14 14 14 13 13 13 14 15 15 16 17 19 22 24 26 28 29 30 29 30 32 33 34 34 34 35 35 34 35 34 34 35
12 12 11 12 11 12 13 13 13 13 13 14 14 13 13 13 13 14 15 17 17 18 21 23 25 27 28 29 30 30 31 33 33 34 34 35 35 35 34 34 33 34
12 12 12 12 11 10 10 11 12 13 14 14 14 13 13 12 13 14 15 17 18 19 22 24 25 26 26 28 30 31 32 33 33 33 34 35 34 34 33 33 33 34
11 11 11 12 11 10 9 10 12 14 15 15 15 14 13 12 13 15 16 18 20 22 23 25 26 26 26 26 28 31 32 33 33 32 32 32 32 32 32 32 32 33
10 10 11 12 13 11 10 10 12 13 15 16 16 15 14 14 14 16 18 20 22 23 25 26 27 27 27 27 28 30 32 32 32 31 30 30 30 31 31 31 31 33
9 10 12 14 14 12 11 11 12 13 14 15 16 16 16 16 17 18 19 21 23 24 26 28 28 28 27 27 27 28 29 30 30 30 30 30 31 32 32 30 31 32
9 10 12 14 14 13 12 12 13 13 14 14 15 16 17 18 20 20 21 22 24 25 27 28 28 27 26 27 26 24 25 27 28 29 29 29 30 31 31 31 32 33
9 10 12 13 13 13 13 13 14 14 15 16 17 18 19 20 21 21 22 23 24 25 27 28 27 26 24 24 24 23 22 23 25 26 27 28 28 29 30 30 31 33
10 10 12 13 13 14 14 15 14 14 15 16 17 18 19 20 22 22 22 23 25 26 27 27 27 25 22 21 22 22 22 22 23 25 26 26 26 27 29 30 31 32
11 11 12 13 14 15 16 16 16 15 15 16 17 17 17 19 22 24 24 23 25 26 27 27 25 22 21 21 22 21 19 19 21 22 25 28 28 28 29 31 32 34
10 11 12 13 15 16 16 17 16 16 16 17 17 16 16 18 20 23 24 24 25 25 24 25 23 21 22 23 23 22 21 20 20 21 23 27 30 30 30 31 33 35
11 11 11 12 14 15 16 17 17 16 15 16 17 16 16 17 19 21 23 23 23 23 22 21 20 22 24 24 23 23 24 23 22 23 23 24 27 30 31 32 34 36
11 11 11 12 13 15 16 17 17 17 16 16 16 16 17 19 20 20 21 22 22 22 21 19 19 22 25 26 26 26 26 25 24 24 24 24 25 28 31 33 35 36
11 11 12 13 14 16 17 17 17 18 17 17 16 15 17 18 18 18 19 20 20 20 19 18 19 23 25 26 29 30 30 29 28 26 25 24 25 27 30 33 35 36
11 12 13 14 16 18 19 18 18 18 17 17 16 16 16 15 14 14 16 18 18 18 16 17 19 22 24 26 29 32 31 29 28 27 24 23 24 26 28 30 32 34
12 13 14 16 19 20 19 18 18 17 16 15 16 17 17 15 13 12 13 15 16 15 15 16 19 21 24 26 29 33 32 28 25 24 22 21 22 24 25 28 30 31
14 15 16 18 20 19 16 15 16 16 15 14 16 17 18 18 14 11 11 12 13 13 13 15 18 21 24 26 29 33 33 29 26 23 19 18 18 18 21 24 26 27
15 17 18 20 19 16 13 13 14 15 14 14 15 17 17 18 14 9 9 10 11 10 12 15 17 20 24 26 28 33 34 31 30 25 17 10 10 12 14 16 18 20
14 16 19 20 17 13 12 13 13 15 15 15 16 17 16 15 12 9 8 10 10 10 11 13 16 19 23 25 27 31 33 32 31 29 23 19 17 14 10 8 8 7
13 15 18 18 15 12 12 13 14 15 16 16 16 16 14 12 11 9 9 10 10 9 10 12 14 16 20 23 25 29 30 29 29 29 28 25 23 23 25 24 20 14
13 14 15 15 13 12 12 14 15 16 17 16 15 13 11 11 11 10 10 11 11 10 9 11 13 14 18 21 22 26 27 27 27 28 30 29 26 26 31 34 33 30
12 13 12 12 12 12 12 13 14 14 15 15 12 10 10 10 11 11 12 13 13 11 9 10 12 13 16 18 19 21 24 24 25 25 27 28 27 26 29 33 34 35

ECMWFNIL_925_spd_006.txt.gz
Wind_Speed
12 13 14 15 15 16 16 15 14 13 14 13 14 15 15 14 14 13 14 14 14 15 15 15 15 16 17 19 20 21 23 25 25 26 26 27 27 28 29 29 30 31
10 11 13 14 15 16 16 15 14 14 14 14 14 14 14 14 14 14 14 15 16 17 16 16 16 17 18 19 20 21 23 25 26 26 26 27 29 29 29 29 30 31
10 11 12 12 13 15 15 14 14 14 14 14 14 13 13 12 13 13 14 14 16 17 18 18 18 19 19 19 20 21 22 24 26 27 26 27 29 30 31 31 31 32
10 11 11 11 12 13 14 14 13 13 12 13 12 12 12 11 11 11 11 11 13 14 16 17 18 19 20 21 21 20 22 24 26 27 27 29 30 31 32 31 31 32
11 11 11 11 11 12 12 13 12 12 12 12 12 12 11 11 10 9 9 9 12 14 16 17 19 20 22 23 23 22 22 24 26 27 28 30 30 31 32 31 29 31
11 11 12 12 12 12 13 12 12 12 13 13 13 13 12 11 9 8 9 11 13 15 17 19 21 23 24 25 25 25 25 26 27 27 28 30 31 31 32 31 30 30
12 12 12 12 13 13 13 13 12 12 13 14 14 13 13 12 11 10 11 13 14 16 18 20 23 25 26 27 27 27 27 27 27 28 29 30 31 32 32 32 32 32
12 11 11 12 14 15 14 12 12 12 13 14 14 14 14 13 13 13 14 15 17 18 19 21 23 25 26 26 27 27 27 27 27 27 29 31 32 33 33 33 33 34
11 10 10 12 13 14 14 12 11 12 12 13 14 14 14 14 14 15 16 16 17 19 20 21 22 24 25 27 27 27 28 28 28 28 29 31 32 33 34 34 34 35
10 10 10 11 12 13 13 13 12 12 12 13 13 14 14 14 14 14 15 16 18 19 20 20 22 24 26 27 26 26 27 27 27 28 29 30 32 33 34 34 34 35
10 10 10 11 12 13 13 13 14 13 12 12 13 14 14 13 14 14 15 17 19 19 19 20 22 23 24 24 23 23 24 24 25 26 27 28 30 31 32 32 33 34
11 10 10 11 12 13 14 14 15 15 14 13 13 14 13 13 14 15 16 18 19 19 19 20 21 21 21 21 21 23 25 25 25 24 25 26 27 28 30 31 32 33
11 11 10 11 12 13 14 15 15 16 16 15 15 14 13 13 14 15 15 16 18 19 19 20 20 19 19 20 21 24 26 27 28 27 26 26 25 26 28 29 30 31
11 11 11 12 13 13 14 15 16 16 17 17 17 16 15 14 14 15 16 16 17 18 19 20 20 18 18 19 21 25 27 28 30 29 27 27 26 26 26 28 30 31
11 12 12 13 13 13 13 15 16 16 16 17 18 18 16 15 14 16 17 18 18 18 19 20 19 18 18 19 22 26 28 31 33 32 29 27 27 27 27 28 30 32
12 12 13 13 14 13 14 15 16 16 16 17 18 18 17 17 17 18 18 18 17 17 18 19 18 17 18 19 21 25 29 32 35 35 32 29 28 28 28 29 30 32
12 12 13 14 13 14 15 16 17 15 15 16 17 18 18 18 19 19 17 16 16 16 17 18 18 18 18 20 22 25 29 33 34 33 32 31 29 28 28 28 30 32
11 12 13 13 14 15 16 16 15 14 14 16 16 17 18 18 19 19 17 16 15 15 15 16 18 18 17 20 23 25 29 31 30 29 29 30 29 29 28 27 27 29
12 13 13 14 14 15 15 15 13 12 13 15 16 16 18 19 20 19 18 15 14 14 15 16 17 17 17 19 22 26 28 29 28 27 26 26 27 24 24 25 25 27
13 13 13 13 14 16 16 14 13 12 13 15 16 16 18 19 19 19 17 15 14 14 15 17 17 17 16 18 22 25 27 26 26 26 24 24 27 24 15 12 16 21
15 14 13 13 15 16 16 14 13 13 14 15 16 16 17 17 17 17 17 16 15 15 16 18 18 17 16 18 21 24 25 25 25 25 24 24 27 26 23 20 17 15
15 14 13 14 15 16 15 13 13 14 14 14 16 15 14 14 14 16 17 17 17 16 16 18 20 17 16 18 20 21 23 24 24 23 23 26 28 26 26 28 26 22
14 13 14 14 14 15 14 13 13 14 13 14 15 15 13 12 13 14 15 17 18 17 16 18 20 18 17 17 18 19 20 21 23 23 24 26 28 27 25 26 28 29
13 14 14 14 13 13 13 13 13 13 12 13 15 14 12 12 13 14 15 16 18 18 16 16 18 17 16 16 16 16 17 19 21 22 24 25 26 24 23 23 27 30
12 13 13 12 11 12 12 13 12 11 11 13 14 14 13 14 14 14 15 17 18 19 17 14 15 15 14 14 15 15 15 17 19 20 21 22 23 22 21 22 27 30
12 12 12 11 11 12 12 12 10 10 11 13 13 14 14 15 14 14 16 17 18 20 19 14 12 12 12 12 14 15 15 15 16 16 17 19 20 21 21 22 26 29

ECMWFNIL_925_spd_009.txt.gz
Wind_Speed
8 8 10 12 12 11 10 8 8 9 10 10 11 12 12 12 12 12 11 11 10 10 10 10 10 10 9 10 11 13 14 15 16 17 16 19 21 22 23 24 24 24
7 8 10 11 12 13 13 11 9 9 9 9 9 10 11 11 11 11 11 11 11 10 9 9 9 10 9 9 10 11 13 15 16 16 16 18 21 24 26 26 25 26
8 9 10 10 11 13 14 15 14 12 11 9 9 9 9 10 10 10 11 10 10 10 10 11 11 11 10 10 10 10 11 14 16 16 16 18 20 23 26 26 26 29
8 9 10 10 11 12 13 14 15 15 13 12 12 11 9 9 9 10 9 9 10 12 14 15 13 12 12 11 11 11 11 13 15 16 18 19 20 22 25 26 27 29
9 9 10 10 10 11 13 14 14 15 14 13 14 14 11 9 9 9 9 10 12 15 16 16 14 13 13 13 13 14 14 14 15 16 18 20 20 20 22 23 25 27
9 10 10 10 10 11 13 14 14 13 13 13 14 14 12 10 8 8 9 11 13 15 15 15 15 15 15 16 16 17 17 17 17 18 19 22 22 22 22 22 24 25
10 10 10 9 9 10 12 13 13 12 12 13 13 13 13 12 10 9 10 11 12 13 14 14 15 16 17 17 17 19 20 20 19 18 20 23 23 24 25 24 25 26
10 10 10 9 9 9 11 11 12 12 12 13 14 14 14 14 13 12 12 11 10 11 12 14 16 16 17 17 18 19 20 19 19 18 20 22 22 24 26 25 25 27
10 10 10 10 9 10 11 12 12 13 13 13 14 14 14 15 14 13 12 11 11 11 12 14 15 15 16 17 18 19 19 19 20 20 21 22 23 25 25 26 27 27
11 10 10 10 11 11 12 12 13 13 14 14 14 14 15 14 13 13 12 12 12 13 13 14 15 15 16 18 18 18 19 20 20 20 21 24 27 27 27 27 27 26
11 10 10 11 11 12 13 13 14 14 15 14 14 15 15 15 13 12 12 12 13 14 15 17 17 17 18 18 18 18 19 19 21 21 22 26 30 32 31 30 27 27
12 10 10 11 12 13 13 14 14 14 14 14 14 15 16 16 15 13 12 12 13 14 16 18 19 19 19 18 18 19 20 19 21 23 24 25 29 31 30 29 28 29
12 11 10 11 12 13 14 14 13 13 13 14 14 15 16 16 16 16 14 14 14 15 17 18 19 20 18 17 19 20 20 22 24 26 26 26 28 29 28 27 27 29
12 12 11 12 13 13 14 14 13 14 14 14 14 15 16 16 16 17 17 17 18 19 19 17 17 18 17 17 19 19 20 23 25 26 26 26 28 29 28 28 27 27
12 13 13 13 13 13 14 14 14 15 15 15 14 15 16 16 16 16 18 19 19 20 19 17 16 16 15 16 17 18 20 21 22 24 26 25 28 31 30 29 28 28
13 13 13 12 12 13 13 13 14 15 15 15 15 15 16 15 15 16 17 18 19 18 18 17 16 14 13 15 15 16 19 20 20 24 25 25 28 31 30 29 29 28
13 13 12 12 12 13 12 13 14 15 15 15 15 15 15 15 15 17 17 18 18 17 17 16 14 11 12 15 14 14 18 20 21 22 22 24 27 28 28 28 28 26
13 12 12 12 12 12 12 13 15 15 15 14 14 14 15 15 16 16 17 17 17 17 17 15 13 11 13 14 14 15 17 20 22 20 19 22 24 25 27 29 29 27
14 12 12 12 12 12 12 14 15 15 15 14 14 14 15 15 16 15 15 15 16 17 17 16 14 13 14 14 14 16 18 20 21 20 19 20 20 22 26 28 28 29
15 14 13 13 12 11 12 14 15 15 14 13 13 14 15 16 16 14 13 14 15 16 17 17 17 16 14 13 14 16 19 20 19 19 19 20 20 21 25 26 27 27
17 15 14 12 11 11 13 14 15 15 14 13 13 13 15 16 16 14 13 13 14 15 17 17 17 16 13 13 14 16 18 19 18 18 19 19 20 21 23 25 25 24
16 14 13 11 11 11 12 13 14 14 13 12 12 13 14 15 14 13 13 14 14 15 16 16 16 14 11 11 13 15 18 18 17 17 19 19 19 20 21 22 22 21
14 12 11 11 10 11 12 12 13 12 12 11 11 12 13 14 14 15 15 15 15 15 15 15 16 13 9 9 11 13 16 18 17 18 19 19 19 20 21 21 22 22
13 12 11 10 10 11 12 12 12 12 10 10 11 12 13 14 15 16 17 16 15 15 14 14 15 12 8 8 10 12 15 17 17 18 20 20 21 22 21 21 21 22
13 12 12 11 11 11 12 12 12 10 9 9 10 11 13 15 16 17 17 16 15 15 14 12 13 12 9 8 10 12 14 16 17 17 19 21 22 23 23 22 22 23
13 13 12 12 11 11 12 11 10 9 8 9 10 10 12 15 15 16 16 15 14 14 13 10 10 11 10 10 11 13 14 16 17 16 17 19 21 22 22 23 24 23

ECMWFNIL_925_spd_012.txt.gz
Wind_Speed
3 3 4 5 6 6 6 7 8 9 9 8 9 9 10 11 11 11 11 10 9 9 8 8 7 7 8 8 9 10 11 11 12 14 15 16 17 18 19 20 19 18
3 4 5 5 6 6 6 7 9 9 9 9 8 9 10 10 11 11 11 10 9 9 8 8 7 7 7 8 8 10 11 11 12 13 14 15 17 17 19 21 21 20
4 5 5 6 6 7 7 8 9 10 10 10 9 9 9 10 10 11 11 11 10 8 8 8 9 9 8 8 9 10 11 11 12 14 14 15 17 18 19 20 22 23
5 5 6 6 7 7 8 8 9 10 10 10 10 10 10 10 11 11 11 11 10 9 9 9 9 10 9 9 9 10 11 12 13 13 14 15 17 19 21 21 21 22
6 6 6 7 7 7 8 8 9 10 10 10 9 9 10 10 11 11 11 11 10 10 10 10 10 10 10 10 10 11 11 12 12 13 14 16 17 19 22 23 23 23
6 6 6 7 7 7 7 8 8 9 9 9 9 10 10 10 11 11 11 11 11 11 11 11 10 10 10 10 10 11 11 12 12 12 14 15 17 18 20 21 23 25
7 7 7 7 7 7 8 8 8 8 8 8 9 10 11 11 11 12 12 12 12 12 11 11 10 10 10 10 10 11 11 12 12 12 13 15 17 18 19 19 20 22
7 7 7 7 8 8 8 8 8 8 8 9 10 10 11 11 12 12 12 12 12 12 11 10 11 10 9 9 10 11 12 12 12 13 14 16 18 19 20 20 20 21
8 7 8 8 8 9 9 9 9 9 8 9 11 11 11 12 12 12 12 12 12 12 11 10 10 10 10 10 10 11 12 13 13 14 14 16 18 20 21 22 23 24
8 8 8 9 9 9 9 9 10 9 9 10 11 12 13 13 13 12 12 12 12 12 11 11 10 10 10 10 10 11 12 13 14 14 14 17 19 20 22 24 25 27
9 9 9 9 9 9 9 10 10 11 11 12 12 13 13 13 13 12 12 12 12 12 12 12 11 11 11 11 10 11 12 13 14 13 15 18 19 21 23 25 26 28
9 9 9 9 9 9 9 10 11 12 12 12 12 13 14 13 13 13 13 13 13 13 13 13 13 13 12 11 11 11 12 13 13 13 15 18 19 21 23 25 26 28
9 9 9 9 9 9 10 11 12 12 13 13 13 14 15 14 14 13 14 13 13 13 14 15 15 14 13 11 10 11 12 12 12 13 15 17 19 21 23 24 25 27
9 9 9 9 9 10 11 11 12 12 13 13 14 15 15 15 14 14 14 13 13 13 14 14 14 14 12 10 9 10 11 11 11 13 15 17 19 21 22 23 24 26
9 9 9 9 10 10 11 11 12 12 13 13 14 15 15 15 15 15 15 14 13 13 13 13 13 12 11 10 10 10 10 11 12 12 14 16 18 20 21 22 23 25
9 9 9 10 10 10 11 12 11 12 13 14 15 15 15 14 14 15 14 14 13 12 12 12 11 11 12 12 12 11 10 10 12 13 14 15 16 19 21 22 24 25
9 9 9 10 11 10 11 12 11 11 13 14 14 14 14 14 14 14 14 13 13 12 11 12 11 11 13 14 12 11 10 10 12 13 14 14 15 19 21 22 23 25
9 9 10 10 11 11 11 11 10 12 13 14 13 13 13 14 14 14 14 13 12 12 12 12 12 12 14 14 12 11 11 11 12 13 13 13 14 18 20 21 23 25
10 10 10 11 11 10 11 10 10 11 12 12 12 12 12 13 13 13 13 12 12 13 13 13 13 13 14 15 13 12 12 12 13 13 13 13 15 17 18 20 24 25
10 11 11 11 11 11 10 10 10 11 11 11 11 11 12 12 12 13 13 13 13 14 14 13 13 13 14 15 13 11 12 13 13 13 12 13 15 16 17 21 25 24
11 11 12 11 11 11 10 10 10 10 10 10 10 10 11 12 12 13 13 13 13 13 14 14 14 13 14 15 12 11 11 12 13 13 12 13 15 16 16 19 23 24
11 11 11 11 11 10 10 10 10 10 10 10 10 10 11 11 12 12 12 13 13 13 14 14 14 14 15 15 12 11 11 12 12 12 13 14 16 17 16 17 19 20
11 11 11 11 11 10 10 10 10 10 10 10 10 10 11 11 11 12 12 13 14 13 13 13 14 14 15 15 13 12 12 13 13 13 14 14 17 19 18 18 19 19
11 11 12 12 11 11 10 10 10 10 10 10 10 11 11 11 11 11 12 13 14 14 13 13 15 14 14 15 13 12 13 15 15 15 15 16 18 20 19 19 20 21
11 12 12 12 12 11 11 10 10 10 10 9 10 10 10 10 11 12 13 14 14 14 13 12 13 13 13 14 13 11 14 15 14 15 16 16 16 19 20 20 20 20
11 12 12 12 13 12 11 11 10 10 10 9 10 11 10 10 11 13 14 14 14 14 13 12 12 12 12 12 11 10 11 13 12 13 14 14 14 17 20 20 20 21

ECMWFNIL_925_spd_015.txt.gz
Wind_Speed
3 4 4 5 5 6 6 7 8 9 10 10 10 10 10 10 10 10 10 10 10 10 10 9 7 8 9 9 10 11 11 10 11 12 12 13 14 15 17 18 18 18
4 4 5 5 6 6 6 7 8 9 10 10 10 10 10 10 10 10 10 11 11 10 10 9 8 8 9 10 11 11 11 11 11 12 12 14 14 14 16 17 18 18
5 5 5 6 6 6 7 8 8 9 10 9 10 9 10 10 10 10 10 10 11 11 10 10 10 10 10 11 11 10 10 11 12 13 14 14 13 13 17 19 19 18
6 6 6 6 7 7 7 8 8 9 9 9 9 9 9 9 10 10 10 10 11 11 10 10 10 10 10 10 10 10 11 11 11 12 13 13 12 13 15 16 17 17
6 6 6 6 7 7 7 8 8 9 9 9 9 9 9 9 10 10 11 11 11 11 10 10 10 10 11 11 10 11 11 11 11 11 11 12 12 13 14 14 16 17
6 6 7 7 7 7 8 8 8 9 9 9 9 9 10 10 11 11 11 11 11 11 11 10 10 10 11 10 10 10 10 11 12 12 11 12 13 14 15 16 17 18
7 7 7 7 7 7 8 8 9 10 10 10 10 10 11 11 11 11 12 12 12 11 12 11 10 11 10 10 9 9 9 10 12 12 12 13 14 15 16 17 17 18
7 8 7 7 7 7 8 9 10 11 11 10 11 11 11 11 12 12 12 12 12 12 12 11 11 11 10 10 10 10 10 10 11 12 13 14 15 16 17 17 17 19
8 8 8 8 8 8 9 10 10 11 11 10 11 11 11 11 12 12 13 13 13 13 12 11 11 11 10 10 11 11 11 11 11 12 13 15 16 16 16 16 18 19
8 8 8 8 9 9 9 10 11 12 11 10 11 12 12 12 12 12 12 13 14 14 13 12 11 12 11 12 12 12 12 12 12 12 13 14 15 15 15 16 18 18
8 8 8 9 9 9 10 11 11 11 11 11 12 13 13 13 13 12 11 13 15 14 13 13 13 13 13 13 13 12 13 14 13 13 14 14 14 14 15 16 16 16
8 8 8 8 9 9 9 10 11 11 12 13 13 13 14 14 14 13 12 13 15 13 13 15 15 14 13 13 13 13 14 14 14 14 15 15 14 14 15 16 15 15
7 7 8 8 8 9 9 10 11 12 12 13 13 13 15 15 15 14 13 14 15 13 13 14 15 14 13 12 13 13 14 14 14 14 15 16 15 15 15 15 15 15
7 7 8 8 8 9 9 10 11 12 12 13 13 13 15 15 16 16 15 14 15 14 14 14 14 13 11 11 11 12 13 14 15 15 16 17 16 15 15 15 15 15
7 7 8 8 9 9 9 10 11 12 13 13 13 14 15 16 16 16 15 15 15 15 14 13 13 11 10 11 12 13 14 15 16 16 16 17 17 16 16 15 15 15
8 8 8 9 9 9 9 10 11 12 13 13 13 14 15 15 15 15 15 15 15 15 14 12 12 11 11 13 14 15 16 16 16 16 16 16 17 17 16 15 15 15
9 9 10 10 10 10 10 10 11 12 12 12 13 14 14 14 14 14 15 15 14 14 13 12 12 13 12 12 14 16 17 16 15 16 16 16 17 17 16 16 16 17
10 10 11 10 10 10 10 10 11 11 12 12 13 13 13 13 13 14 14 15 14 13 13 13 14 14 14 13 15 16 17 16 16 16 16 16 17 17 16 16 17 18
12 11 11 11 11 11 10 10 11 11 12 12 12 13 13 13 13 14 14 14 14 13 14 14 14 14 14 14 15 16 16 17 16 16 16 17 18 18 17 16 16 18
13 13 12 12 12 11 11 11 11 11 11 11 12 13 12 12 13 13 13 13 13 13 14 14 14 14 13 13 15 16 17 17 17 16 16 18 19 21 20 18 16 17
13 13 13 12 12 12 12 12 12 11 11 11 12 12 12 13 13 13 13 13 12 13 13 14 14 13 12 13 15 16 16 17 17 17 17 18 20 22 21 18 16 17
14 13 13 12 12 12 12 12 12 11 11 11 11 12 12 12 13 13 13 12 12 13 13 15 14 13 13 13 14 15 16 16 16 15 16 18 20 20 19 17 17 17
15 13 13 13 12 13 13 12 12 11 11 11 11 12 12 12 13 13 12 12 13 13 13 15 15 14 14 13 13 14 15 14 13 14 17 21 21 19 17 16 16 18
15 13 13 13 13 13 13 13 12 12 11 11 11 11 12 12 12 12 12 12 13 13 14 15 16 17 16 12 10 13 15 13 12 14 18 21 21 20 18 17 17 20
14 14 13 13 13 14 14 13 13 12 12 12 12 11 12 12 11 11 12 12 12 14 16 15 15 16 13 10 9 12 15 13 11 12 15 18 19 20 19 18 18 19
14 14 14 14 14 14 14 14 13 13 13 12 12 12 12 11 10 11 13 13 12 13 14 15 16 13 9 8 12 15 16 15 12 11 13 16 17 18 19 19 18 18

ECMWFNIL_925_spd_021.txt.gz
Wind_Speed
11 9 8 7 6 6 6 5 5 4 4 3 4 4 4 5 6 5 4 5 7 8 8 7 7 7 8 8 7 8 9 8 8 7 7 8 9 8 9 8 8 9
11 10 10 9 7 6 5 4 5 5 5 4 4 4 5 4 4 4 4 6 8 8 8 8 8 8 8 8 8 8 9 9 8 7 7 8 9 9 9 9 7 8
12 12 11 9 6 5 5 5 6 6 6 5 4 4 4 4 4 4 4 6 7 7 8 8 8 9 8 7 8 9 9 9 9 8 8 8 8 9 10 9 7 7
14 13 11 8 7 6 6 7 7 7 7 6 5 5 5 4 4 3 4 6 6 7 8 8 8 8 8 7 8 8 9 10 9 8 9 9 9 9 9 9 8 8
15 14 12 10 9 8 8 9 8 8 7 7 8 8 7 6 5 5 6 6 6 7 8 8 8 8 8 8 8 9 10 10 9 8 9 10 10 10 9 9 10 9
15 14 13 12 10 10 10 10 9 8 8 10 11 9 9 9 8 7 6 6 7 8 7 7 8 8 8 8 9 9 10 9 8 9 10 10 10 10 10 10 10 9
16 15 14 12 11 10 10 10 9 10 11 11 11 11 11 12 10 8 7 8 9 9 8 7 7 8 8 9 9 9 8 8 9 10 11 10 10 11 11 11 10 10
17 17 15 13 12 11 10 10 11 11 12 12 13 13 13 14 14 12 11 10 10 11 10 8 6 6 7 9 9 9 8 8 9 10 11 11 12 12 11 12 11 11
17 16 15 13 12 12 11 12 12 13 13 14 15 14 14 16 16 14 13 11 12 14 13 9 7 6 7 9 10 9 9 9 10 10 11 11 13 13 12 12 12 12
17 16 16 14 13 14 14 14 13 14 14 11 9 10 11 11 10 9 9 10 11 14 14 11 8 6 7 9 9 9 10 11 11 12 12 12 14 14 12 11 13 14
18 17 17 16 15 15 16 15 14 14 10 6 4 4 3 4 5 5 6 8 8 9 9 9 7 7 8 9 9 10 11 12 12 12 12 13 14 14 13 12 13 14
20 21 19 18 17 17 15 14 14 13 10 7 7 6 5 6 6 5 6 7 6 4 4 7 8 8 10 10 10 10 12 12 11 11 11 13 13 14 13 13 13 15
22 23 22 19 18 17 14 14 14 13 12 10 10 10 10 8 6 6 7 7 7 8 10 11 10 10 11 11 10 10 11 11 10 10 11 13 14 14 13 13 14 15
24 25 23 20 19 17 16 16 16 15 14 14 14 13 11 8 6 7 8 9 11 13 12 10 10 10 9 9 10 11 11 9 8 9 11 13 14 15 15 14 15 15
27 26 23 20 19 19 18 18 18 17 16 16 15 12 9 8 9 9 10 12 12 11 10 9 10 10 9 9 10 11 10 9 9 9 10 12 14 15 16 15 15 15
28 25 23 21 22 22 22 21 19 18 17 16 14 12 11 11 11 11 11 12 11 11 11 11 10 10 10 10 10 10 10 10 10 10 10 11 13 14 15 15 15 15
28 26 24 24 24 23 22 21 19 17 17 16 14 14 13 12 11 12 12 11 11 12 13 12 11 10 11 11 11 12 12 12 11 11 11 11 12 13 14 14 15 16
27 26 26 25 24 23 21 20 18 18 18 17 17 16 14 13 12 13 12 12 13 13 12 12 12 12 12 12 11 10 11 12 11 11 11 12 12 13 13 14 15 17
26 27 26 25 24 22 21 20 19 19 20 20 19 17 15 14 13 13 13 13 13 12 12 13 14 14 11 8 7 7 8 9 11 12 12 12 13 13 13 14 15 17
26 26 26 25 24 23 22 22 22 22 22 21 20 17 16 15 14 13 13 12 11 11 13 15 16 13 9 7 8 9 8 8 10 12 13 13 13 13 13 14 16 17
28 27 27 26 24 23 24 24 24 24 24 22 20 18 17 16 15 13 12 11 11 13 15 16 14 11 9 10 10 9 8 9 10 11 13 13 13 13 14 15 16 17
28 27 27 27 26 26 26 27 27 27 26 23 21 20 18 17 16 15 13 13 14 15 16 15 13 11 10 11 10 8 8 9 10 10 11 12 13 14 16 17 17 16
29 29 28 28 27 27 28 29 29 28 26 24 22 21 20 18 18 16 15 16 16 15 14 13 12 11 10 10 9 8 9 8 8 8 9 11 13 14 16 17 16 14
30 29 29 29 29 30 31 31 29 28 27 25 23 22 21 20 19 18 16 15 14 13 13 13 13 12 10 9 10 10 10 7 6 6 8 11 12 14 15 16 15 15
29 30 30 30 31 32 32 30 29 28 26 24 23 22 21 21 20 19 18 17 15 15 14 12 12 10 9 9 10 11 9 7 6 6 9 11 13 15 16 16 17 17
29 30 31 32 34 35 34 32 31 29 26 24 23 21 21 21 21 21 20 17 16 15 12 9 8 8 9 10 10 10 8 7 6 6 9 11 13 15 17 18 19 17

ECMWFNIL_925_spd_024.txt.gz
Wind_Speed
20 19 18 16 14 14 14 14 14 12 10 10 9 7 8 8 6 4 4 4 3 3 2 2 3 4 4 4 4 3 4 5 4 3 3 3 3 3 3 3 3 3
21 19 17 15 14 14 13 13 12 10 11 10 8 7 8 8 7 5 4 4 4 3 2 2 3 4 5 5 5 4 3 4 5 4 3 4 4 5 5 5 5 4
21 20 17 15 14 13 13 12 11 11 11 9 8 8 8 8 7 6 5 5 4 4 4 3 3 4 5 6 6 6 5 5 7 6 5 5 5 6 6 6 5 5
23 20 17 16 13 12 13 13 12 12 10 9 9 9 9 8 7 7 7 7 6 5 5 5 4 4 5 5 6 6 7 8 8 7 6 7 7 7 7 7 6 6
24 21 18 16 14 13 14 13 13 12 10 10 10 9 10 9 9 9 10 9 7 7 6 6 6 6 6 6 7 7 8 9 9 8 7 7 8 8 8 8 8 8
24 21 19 17 15 14 14 13 12 12 12 11 11 11 11 11 12 12 12 10 9 8 8 7 6 7 8 9 9 9 9 10 9 8 8 8 9 9 9 10 11 11
25 22 20 19 17 15 14 13 12 12 13 12 13 12 13 14 14 14 13 12 10 11 11 9 8 7 7 8 10 10 9 10 10 9 10 10 11 12 12 12 13 13
26 23 21 20 18 16 14 13 12 11 12 13 13 13 14 15 15 15 15 14 13 13 14 13 11 9 8 9 10 11 10 10 11 11 11 12 13 14 14 13 14 14
26 23 22 21 19 17 15 13 11 10 11 12 13 13 14 16 17 17 17 17 17 17 17 16 15 12 10 10 10 10 9 10 11 12 13 13 14 15 15 14 14 14
26 24 23 23 21 19 16 13 11 11 12 13 12 13 15 16 16 16 15 15 16 16 17 18 17 15 12 11 11 9 8 9 11 11 12 12 13 14 14 13 13 14
27 26 26 24 23 20 17 14 12 13 13 13 13 14 14 12 12 12 11 10 10 11 12 13 13 14 13 12 12 11 10 10 10 10 10 11 12 12 12 11 12 13
29 28 27 25 24 21 17 15 15 16 16 15 14 13 13 12 11 10 10 9 8 8 8 8 9 11 13 13 13 13 12 12 12 11 11 11 11 11 10 10 11 12
31 29 27 26 24 21 17 16 17 18 17 16 15 15 14 13 11 10 10 9 8 8 7 7 8 9 11 12 13 13 13 13 13 12 12 12 11 11 10 11 11 12
32 29 27 26 24 21 18 17 18 19 18 17 16 16 15 13 12 11 10 9 9 9 9 10 9 9 10 11 12 13 14 13 13 13 14 14 12 12 12 12 12 12
32 29 27 25 24 22 19 20 21 20 20 19 18 18 17 16 14 11 10 11 11 11 11 11 10 10 10 11 12 12 13 13 13 14 15 15 14 13 13 13 13 12
33 30 27 26 25 23 21 21 22 21 21 21 21 20 19 17 14 12 12 13 14 13 13 12 11 11 10 11 12 13 13 13 14 15 16 15 15 14 14 14 13 11
34 31 28 27 26 24 22 22 23 22 22 22 22 21 20 17 15 14 15 15 15 15 15 14 12 11 11 12 14 15 15 15 16 17 16 16 16 15 15 15 13 11
35 33 30 28 26 25 24 24 24 24 23 24 24 22 21 18 17 17 16 16 16 16 16 16 15 13 12 13 15 16 16 17 17 17 17 17 17 16 16 15 15 13
36 34 31 29 27 26 26 26 26 26 26 27 26 24 21 20 20 19 18 18 18 18 18 18 17 14 13 14 15 15 15 15 15 16 17 18 18 17 16 16 15 14
33 33 32 31 29 28 28 28 27 28 29 28 26 23 22 22 22 21 19 18 19 19 19 19 17 15 15 16 16 14 13 12 13 14 16 18 18 16 16 15 15 15
29 30 32 32 30 29 29 29 28 29 29 28 26 24 24 24 24 23 21 19 19 19 20 19 18 16 16 16 15 14 12 11 11 12 15 17 17 15 15 15 15 15
25 29 32 32 31 29 28 28 29 30 30 28 26 25 25 25 25 23 21 20 19 19 20 20 19 18 17 16 15 14 13 11 10 11 14 15 15 13 13 14 14 14
25 29 32 31 29 28 28 30 31 29 27 25 24 24 24 24 25 25 23 23 22 21 21 21 22 21 19 17 16 14 13 11 10 12 13 14 13 12 12 12 12 13
27 28 30 29 27 28 30 30 27 24 23 23 23 24 24 25 25 24 24 24 24 23 23 23 23 22 20 18 16 14 13 11 10 12 13 14 13 12 12 12 12 13
27 26 28 29 29 30 29 25 23 24 26 26 25 25 26 26 24 23 22 23 24 26 27 27 24 21 20 19 16 14 12 11 11 12 13 14 13 13 13 13 14 14
26 26 28 29 29 29 27 24 22 23 25 24 24 23 24 24 24 24 25 26 25 25 28 29 26 22 20 18 16 14 12 11 11 12 13 14 13 14 15 15 16 14

ECMWFNIL_925_spd_027.txt.gz
Wind_Speed
27 25 24 23 21 20 19 19 19 19 18 17 15 13 13 12 11 9 8 8 7 6 5 5 6 6 5 5 5 5 5 4 4 5 6 6 5 4 4 4 5 5
27 26 24 22 21 21 20 20 20 19 18 17 14 13 12 12 11 10 8 7 7 6 6 5 5 6 6 6 7 7 7 6 5 5 6 6 5 6 6 6 6 7
28 26 24 23 23 22 21 20 20 19 18 17 15 13 13 12 13 12 10 8 8 8 7 7 7 7 7 7 9 10 10 10 8 7 7 8 7 7 8 7 7 8
29 27 25 24 24 22 20 20 20 20 19 18 16 15 14 13 13 13 11 10 9 9 9 9 9 8 9 9 10 10 11 11 10 9 9 9 9 9 9 9 9 9
30 27 26 25 24 22 20 21 21 21 20 19 17 16 15 15 14 14 13 11 11 10 10 10 10 10 10 11 11 11 11 11 11 11 11 10 9 9 9 10 10 10
30 28 27 26 24 22 21 22 22 21 21 20 17 16 17 17 16 15 13 12 12 12 12 11 11 10 10 11 12 12 12 12 12 12 13 12 11 11 10 11 12 13
31 29 29 28 25 23 22 22 22 21 21 19 17 17 18 17 16 15 14 13 13 13 13 13 13 12 11 11 12 12 12 13 14 13 14 14 14 13 13 13 14 15
32 31 30 29 26 24 23 22 22 21 20 19 18 18 19 18 17 16 15 15 15 15 15 16 16 15 15 13 12 12 12 13 14 15 15 15 16 16 15 15 15 16
33 32 32 30 27 26 25 23 21 20 20 20 19 19 20 19 18 17 16 16 16 17 18 19 19 18 18 17 15 13 13 13 14 15 16 16 17 16 16 15 16 17
33 33 33 31 29 27 26 23 21 20 19 19 20 20 20 19 18 17 17 17 18 20 21 21 21 21 21 21 19 16 14 14 14 14 15 15 16 16 15 14 15 16
34 33 34 33 30 28 27 24 21 18 18 19 21 21 20 18 17 17 17 18 20 21 20 19 19 19 20 21 20 18 16 15 15 15 15 14 15 15 14 14 14 16
34 34 35 34 32 29 27 25 21 17 17 20 23 21 18 17 17 17 17 18 19 18 17 16 15 15 16 16 18 18 18 17 18 17 16 15 15 15 14 14 14 15
36 36 36 35 33 30 28 25 22 18 20 24 24 21 18 17 17 17 17 17 17 17 16 15 13 12 13 14 15 17 18 18 19 18 18 17 16 16 16 15 15 15
38 37 36 35 32 30 27 25 22 20 23 26 25 22 20 18 18 18 18 17 17 17 16 15 13 13 13 13 14 15 16 16 17 17 18 17 17 17 17 17 17 16
38 36 35 34 31 29 27 24 21 22 26 27 25 23 21 20 19 19 18 18 18 18 16 15 14 13 13 13 13 14 15 15 15 16 17 17 17 18 18 19 18 17
37 35 33 32 30 29 26 22 22 27 30 28 26 24 23 21 21 20 19 19 18 17 17 16 15 14 14 14 14 14 15 15 16 16 16 17 18 19 20 20 19 18
34 33 31 30 29 27 24 23 27 31 31 29 27 26 25 23 23 22 20 18 18 17 17 17 17 16 16 15 14 14 16 17 17 18 18 18 20 21 22 22 21 19
34 30 29 29 27 25 26 29 32 33 32 31 30 28 27 26 25 24 21 18 17 17 18 19 19 18 18 17 16 16 16 17 18 19 20 21 22 22 23 23 22 21
32 29 30 30 27 26 29 32 33 34 34 33 32 30 28 27 27 24 21 18 18 18 19 20 19 19 19 19 19 18 17 17 18 20 21 22 22 23 24 24 22 21
30 29 29 28 28 31 33 32 32 34 35 35 33 30 28 27 26 23 21 19 19 19 20 20 20 20 20 20 20 19 18 18 19 20 21 21 21 22 23 23 22 20
33 32 30 28 30 33 33 31 32 34 35 34 31 28 27 27 26 23 21 20 20 20 20 21 21 20 20 21 21 20 19 19 19 20 20 20 20 20 21 22 20 19
37 36 32 30 30 31 30 30 32 35 35 33 30 28 27 26 25 23 22 21 21 21 22 22 22 20 20 21 22 21 21 20 20 20 20 19 19 19 20 19 18 17
39 38 32 28 29 29 29 31 34 35 35 32 29 27 27 26 25 23 22 22 23 24 25 25 24 23 22 22 23 23 23 22 22 22 21 20 19 19 19 17 16 16
39 38 32 29 29 30 31 33 35 35 34 31 28 27 26 25 24 24 23 24 25 27 27 27 26 26 24 23 24 24 23 24 25 24 23 22 19 18 19 17 16 15
40 38 34 31 30 31 32 34 35 34 31 28 26 25 25 24 23 23 24 26 27 27 27 27 28 28 26 26 26 25 23 24 26 25 24 22 18 19 20 18 16 15
38 37 34 31 29 30 31 31 32 31 27 24 23 23 23 24 24 23 25 26 27 26 26 27 27 28 28 27 28 26 23 23 27 27 23 19 19 20 21 19 17 15

ECMWFNIL_925_spd_030.txt.gz
Wind_Speed
30 29 28 28 27 27 26 24 22 21 20 19 18 17 16 15 13 12 11 10 10 10 9 7 7 6 6 6 5 5 4 4 4 4 4 5 5 6 6 6 6 6
31 29 29 28 28 27 26 24 23 21 20 19 18 17 16 14 13 13 12 12 11 10 8 7 6 5 5 6 6 6 6 6 5 5 5 6 6 7 8 7 7 7
31 30 30 29 28 28 26 24 22 20 19 18 18 17 16 14 13 13 13 12 11 9 8 8 7 6 6 7 7 7 8 9 8 8 8 7 7 8 10 9 9 9
33 32 31 30 29 27 25 24 22 19 19 19 19 18 16 14 14 14 14 13 11 10 9 9 9 9 9 9 9 10 10 11 10 10 11 10 10 10 11 11 11 11
35 34 33 31 29 27 25 23 21 19 19 20 19 18 16 15 15 15 15 14 13 12 11 11 10 10 10 11 11 12 12 12 11 11 12 12 12 12 12 11 12 12
35 34 33 31 29 27 25 23 21 20 20 20 19 18 17 17 17 17 17 16 15 14 13 12 12 11 11 12 12 12 13 13 12 12 12 13 13 14 13 12 13 13
34 33 32 31 29 27 25 22 20 20 20 20 19 19 18 18 19 19 18 18 16 16 15 14 14 13 13 13 12 13 13 14 14 13 13 14 15 15 15 15 15 15
36 34 33 31 29 27 24 22 21 20 20 20 20 20 19 19 20 20 20 19 18 17 16 15 15 15 15 15 15 15 15 15 14 14 14 15 16 17 17 17 17 18
37 36 35 33 30 28 25 23 22 20 20 21 21 20 20 20 20 21 21 21 20 19 18 18 18 17 17 17 17 18 17 17 15 14 14 15 16 18 18 18 18 19
38 37 37 35 33 30 27 25 23 21 21 21 21 21 22 21 21 22 23 22 21 21 20 20 19 19 19 19 20 20 20 19 18 16 15 16 17 17 17 17 18 18
39 38 38 37 34 31 29 26 24 22 22 22 23 23 23 22 22 23 24 24 23 22 22 21 21 20 21 21 21 21 21 20 20 19 18 17 17 17 16 17 17 18
39 39 38 37 34 31 29 27 25 23 23 23 24 24 23 23 23 24 26 26 24 23 23 23 22 21 21 21 21 20 19 19 20 21 20 19 18 18 18 18 18 18
38 32 30 31 32 30 28 27 26 25 24 24 24 24 24 24 24 26 27 26 24 23 23 22 21 20 20 19 18 17 16 17 18 20 21 20 20 20 20 19 19 18
23 19 20 24 28 29 28 28 28 26 25 25 24 25 25 26 27 27 26 24 23 22 21 20 19 19 18 17 15 13 14 16 17 18 19 20 20 20 20 19 19 18
21 20 23 26 28 28 28 29 30 28 26 26 25 26 26 27 29 27 24 23 22 22 20 19 18 18 18 16 13 13 13 14 15 17 18 18 18 18 18 18 18 19
24 26 29 32 31 30 30 32 31 29 28 27 28 29 28 28 28 26 24 23 23 22 21 21 20 20 19 17 15 14 13 14 15 16 17 17 18 17 18 18 19 19
29 30 33 35 32 30 32 33 33 32 30 29 31 32 30 27 28 27 25 24 24 23 24 23 22 22 21 19 16 15 15 16 16 17 18 18 19 18 19 20 20 21
32 35 35 31 30 32 35 34 34 34 33 33 34 34 31 28 27 28 27 26 25 26 26 24 23 22 21 20 18 17 18 18 18 19 20 20 20 20 21 22 23 23
33 33 31 30 31 32 33 34 35 35 35 36 37 35 32 29 27 28 28 27 27 28 28 26 24 23 22 20 20 20 20 20 21 21 22 22 22 22 22 24 25 24
33 33 35 37 33 30 32 35 35 34 35 36 35 33 31 30 29 29 29 28 28 30 30 28 26 24 22 21 21 21 21 21 21 22 23 24 24 23 24 25 24 23
38 40 42 40 34 32 34 34 33 33 34 33 32 31 31 31 30 29 29 29 30 31 31 30 28 26 23 21 20 21 21 21 21 22 23 24 24 25 25 25 23 22
40 43 44 41 34 31 32 32 32 33 33 31 31 31 31 31 30 29 30 31 31 32 32 32 30 27 24 22 21 20 21 21 22 22 22 24 25 26 26 25 23 20
41 43 42 36 30 28 31 33 34 33 32 30 30 30 31 31 30 30 30 31 31 32 33 33 31 28 25 23 22 22 22 22 23 23 23 23 24 26 27 26 22 17
39 38 35 30 28 30 33 35 34 32 30 29 29 30 31 30 30 29 29 30 30 30 31 32 31 28 25 24 23 23 23 23 23 24 23 23 25 26 25 19 13 12
35 35 35 35 35 36 35 35 34 31 28 28 29 30 30 30 29 28 28 30 30 29 29 30 30 29 26 24 25 24 24 24 24 23 23 25 26 21 14 10 9 11
36 39 40 39 38 36 34 34 33 30 27 28 29 30 29 28 26 25 27 28 28 28 28 27 27 27 24 24 24 24 24 24 22 21 23 24 19 10 7 12 16 17

ECMWFNIL_925_spd_033.txt.gz
Wind_Speed
34 34 32 31 30 27 26 24 24 25 24 23 22 19 18 17 15 14 11 10 10 10 10 9 9 9 9 9 9 8 7 6 6 5 5 5 5 6 7 6 6 6
35 35 33 32 31 28 26 25 25 25 25 23 21 19 17 16 14 13 12 11 12 11 11 11 10 10 9 9 9 8 8 7 7 6 6 6 6 6 7 7 7 7
36 35 34 33 31 29 27 25 25 25 24 22 21 18 17 16 15 14 13 13 13 12 12 11 11 10 9 9 9 8 8 8 7 7 8 8 8 8 8 8 8 9
37 36 34 32 31 29 26 25 25 24 24 22 20 18 18 17 15 15 15 14 15 14 13 11 11 11 10 10 9 9 9 9 9 9 10 10 10 10 10 9 10 10
38 36 34 32 31 28 26 25 25 25 24 22 20 19 18 18 17 16 16 16 16 15 13 12 12 11 11 10 10 10 10 10 10 11 11 11 11 11 11 11 12 11
38 36 35 33 31 28 25 25 25 25 25 23 21 20 19 19 18 17 17 17 16 16 14 13 12 12 11 11 11 11 10 10 11 12 12 12 11 12 13 14 14 14
37 36 35 33 30 27 25 25 25 25 25 23 21 21 20 20 19 18 18 17 17 16 15 14 13 13 12 12 12 12 12 12 12 13 13 13 12 12 13 15 16 16
37 36 34 31 27 25 24 24 25 25 25 23 21 21 20 19 19 19 18 18 18 17 16 15 15 14 14 14 14 14 14 14 14 15 15 15 14 14 15 15 16 16
34 31 28 26 24 24 23 24 25 25 24 22 21 21 20 20 20 20 19 19 19 19 17 17 16 16 15 15 16 16 16 17 17 18 18 17 16 16 15 15 15 15
20 18 20 23 25 24 24 26 27 26 24 22 22 21 20 21 21 21 20 20 21 21 20 19 19 18 17 17 18 19 19 20 20 21 21 21 19 18 17 15 14 14
15 18 23 27 29 27 26 28 28 27 24 22 22 22 21 22 22 22 22 22 23 23 22 22 21 20 19 19 20 21 21 22 22 22 22 22 22 21 20 18 16 15
25 32 34 33 33 30 28 29 28 26 24 23 23 23 22 22 23 24 25 24 24 24 24 24 22 22 21 21 22 22 23 23 23 22 21 21 21 21 21 21 19 17
39 41 40 38 36 30 28 29 28 26 26 25 25 25 24 24 25 26 26 26 25 25 25 25 23 23 23 22 23 24 24 23 21 20 20 20 21 21 20 20 21 20
40 42 43 41 37 32 29 29 29 29 28 27 27 27 26 26 27 27 27 27 26 26 26 25 24 24 24 24 24 23 22 21 20 18 18 19 20 20 20 20 21 22
39 42 41 37 36 34 31 31 31 32 31 30 29 28 29 29 28 27 27 27 27 27 26 25 25 25 24 23 21 20 20 20 19 17 17 18 19 18 19 20 21 21
38 35 29 29 34 36 35 35 37 36 34 33 32 31 31 31 29 28 28 28 28 27 26 26 26 25 24 21 20 20 20 20 19 17 16 17 18 17 17 18 19 19
33 29 27 32 40 40 39 41 41 38 36 34 33 32 33 32 30 29 29 29 28 27 27 27 26 25 23 21 20 20 20 20 19 18 17 18 19 18 18 17 17 18
34 34 36 42 45 42 42 44 41 37 35 34 33 33 33 32 31 30 30 28 27 27 28 28 27 25 22 22 22 21 21 21 21 20 20 20 20 20 20 19 19 19
36 39 41 44 44 42 42 42 38 35 35 35 34 34 34 33 31 31 30 29 27 27 27 29 28 25 23 22 23 22 21 22 23 22 22 22 22 22 23 23 22 22
35 40 42 44 45 41 38 38 36 35 35 35 35 33 33 32 31 31 30 29 28 26 26 28 28 26 24 23 24 23 22 23 24 25 25 25 25 25 25 25 26 25
34 40 43 44 41 36 33 34 34 33 33 33 34 34 33 32 30 29 28 28 27 25 24 27 29 27 25 24 24 25 23 24 25 26 27 27 27 27 27 28 27 26
34 41 44 40 36 33 32 33 32 31 31 31 32 32 31 30 29 28 27 27 27 26 25 28 29 28 25 25 26 26 25 25 26 27 28 28 28 27 27 26 26 26
36 42 43 38 34 32 32 31 31 31 30 29 29 28 27 28 27 26 26 27 27 27 28 30 30 27 25 25 26 26 25 25 26 28 28 28 26 23 21 22 24 24
36 42 43 39 34 32 30 28 28 31 31 29 28 27 26 26 24 23 25 28 28 29 30 30 30 28 25 24 24 24 24 23 25 26 25 23 21 20 21 23 24 22
34 42 44 37 30 28 29 27 26 29 31 30 29 27 24 22 21 22 26 28 29 30 29 29 29 28 26 25 24 24 23 22 22 21 19 17 16 20 25 25 24 22
36 44 44 35 27 25 25 25 27 29 29 27 26 22 20 20 21 24 26 26 26 27 26 25 26 27 26 25 23 23 22 19 18 17 16 16 16 19 22 21 20 21

ECMWFNIL_925_spd_036.txt.gz
Wind_Speed
22 21 20 20 20 19 17 15 14 14 15 14 13 12 13 13 12 11 11 10 10 10 10 11 10 10 9 8 8 7 6 6 6 5 5 5 5 5 5 5 5 5
23 21 20 19 19 18 17 16 15 14 14 14 13 12 12 12 11 11 11 10 10 10 10 11 10 10 9 8 8 8 7 6 6 5 5 5 5 5 5 6 6 7
23 21 20 19 18 17 17 16 15 15 14 14 13 12 11 11 12 12 11 10 10 10 10 10 10 10 9 8 8 8 8 7 7 6 6 6 6 6 6 6 7 8
23 21 20 18 17 16 16 16 15 14 13 13 13 12 11 11 11 11 11 11 10 10 10 10 10 10 9 9 8 8 8 8 8 7 7 7 7 7 7 7 8 8
23 21 19 18 16 16 17 17 16 14 13 13 12 12 12 12 11 11 11 11 11 11 11 10 10 10 10 9 9 8 8 8 8 7 7 7 7 7 7 7 8 9
21 20 19 18 17 18 18 17 16 15 14 13 13 13 13 12 12 12 12 12 12 12 12 11 11 11 10 9 9 9 8 8 7 7 7 7 7 7 7 7 8 9
21 21 21 19 18 19 18 16 17 18 17 15 14 14 14 14 14 14 14 13 13 12 12 12 11 11 10 10 10 9 9 8 8 8 8 8 7 7 8 8 8 9
23 23 21 20 20 21 20 19 21 22 20 18 17 17 16 16 15 15 15 15 14 13 13 12 12 12 11 10 11 10 10 10 9 9 10 9 9 9 9 9 10 11
26 24 23 21 23 25 24 22 23 23 23 23 21 19 19 19 18 17 16 16 15 14 14 14 13 13 12 12 12 12 11 11 11 11 11 11 11 11 12 11 12 12
26 24 25 25 25 26 24 22 20 20 22 24 22 20 20 20 19 18 17 17 16 15 15 15 15 14 14 13 13 13 13 13 13 12 12 13 13 13 14 14 13 14
29 26 26 25 24 25 25 23 19 18 19 23 24 22 21 21 21 20 20 20 19 18 17 17 16 15 15 15 14 14 14 15 14 14 14 14 15 15 15 15 15 15
29 26 26 26 27 28 27 26 26 26 26 27 29 28 26 25 24 23 23 24 23 21 18 17 17 17 16 16 16 15 15 15 15 15 15 15 16 16 15 15 15 15
26 26 27 30 33 34 31 30 32 32 31 32 33 31 29 27 25 24 25 26 25 24 21 18 17 18 18 17 17 16 16 16 16 16 16 16 16 16 15 15 16 16
24 29 35 37 36 37 36 36 37 36 34 35 33 29 27 26 24 24 24 24 24 24 23 21 18 18 18 18 18 18 17 17 16 16 16 16 16 16 15 15 15 16
24 31 39 40 36 38 40 40 40 40 38 36 34 31 28 25 23 22 22 22 24 25 25 24 20 19 19 20 19 18 17 16 17 16 16 16 16 16 15 15 16 16
26 28 36 39 38 39 42 42 41 40 37 37 36 32 28 26 24 21 20 21 24 26 26 25 22 20 21 22 21 20 17 15 15 15 15 16 16 16 16 16 16 16
27 26 33 40 41 39 41 42 40 36 34 36 36 31 28 27 25 22 20 20 21 22 24 24 23 21 22 24 25 24 21 17 15 15 15 16 16 16 16 16 16 16
28 26 29 37 41 40 38 36 33 29 29 31 32 31 29 26 24 23 21 20 19 20 21 21 22 21 22 24 24 23 22 19 17 16 16 16 16 16 16 16 16 16
27 26 27 31 38 39 32 27 26 25 26 26 27 30 30 28 28 26 22 21 20 20 20 18 17 18 20 22 22 22 20 19 19 19 17 17 17 16 16 17 18 18
26 27 28 29 33 34 28 25 25 25 25 25 25 26 27 27 29 25 21 22 22 20 18 17 16 17 19 20 20 22 22 21 21 21 19 18 18 17 18 18 19 19
25 28 28 27 29 29 25 24 25 24 23 23 21 21 21 22 23 20 18 20 20 18 16 15 16 18 20 19 19 21 22 22 22 21 19 19 18 18 19 20 20 20
25 27 27 26 28 29 25 24 25 25 22 20 17 17 18 18 18 18 18 18 17 15 15 14 15 16 18 18 18 20 21 21 22 21 19 19 19 20 21 20 20 19
25 26 26 26 27 28 27 26 27 25 21 20 19 18 18 18 17 17 18 17 15 14 14 14 14 16 17 18 18 19 19 20 20 19 17 18 19 20 21 20 19 17
25 26 26 25 25 27 27 27 27 25 21 19 20 19 18 17 16 16 16 14 13 12 13 14 15 14 14 16 17 17 17 18 17 15 15 16 17 18 19 19 19 19
24 25 25 24 24 25 25 24 24 22 19 17 18 19 17 15 17 19 16 12 10 10 12 14 14 13 13 15 15 15 15 16 14 14 15 15 15 17 19 18 17 18
23 24 24 22 22 22 22 22 20 18 17 16 17 19 18 16 17 19 15 10 7 6 9 12 13 12 12 13 13 13 13 13 12 13 14 14 15 17 18 17 17 16

ECMWFNIL_925_spd_039.txt.gz
Wind_Speed
22 21 20 20 19 17 16 16 15 15 15 14 13 13 13 13 12 13 13 12 12 11 11 11 10 10 9 8 8 8 7 7 8 8 8 8 7 6 6 6 6 5
23 22 21 20 19 18 18 17 17 17 16 15 13 12 13 13 13 13 13 13 12 11 11 11 11 11 10 9 9 9 9 8 8 8 8 8 7 7 6 6 6 6
24 24 23 21 20 20 19 19 18 17 17 15 15 14 13 14 14 14 14 14 13 13 13 13 13 12 11 10 10 10 10 9 9 9 8 8 7 7 7 6 6 7
26 25 24 22 22 21 20 20 20 19 17 16 16 15 15 15 15 16 16 15 15 14 14 14 13 13 12 11 11 10 10 9 9 9 8 8 8 7 7 6 6 6
28 26 25 24 23 22 21 21 21 20 19 18 17 17 17 17 17 17 17 17 16 16 15 15 14 13 13 12 12 11 10 10 10 10 9 9 8 8 7 7 7 7
28 26 26 25 24 23 23 23 22 21 21 20 19 19 19 19 19 18 18 18 18 17 16 16 16 15 14 13 13 11 10 10 10 11 10 9 9 8 7 7 7 8
27 27 26 25 25 25 25 24 23 23 22 21 21 20 20 21 20 19 19 19 18 18 18 18 18 17 15 14 13 12 11 11 11 11 11 10 9 9 8 8 8 8
28 27 27 26 26 27 26 25 25 24 23 22 22 23 23 23 24 23 23 22 20 19 20 18 17 18 16 15 14 13 12 12 12 11 11 11 10 10 9 9 9 9
28 28 28 28 28 27 27 27 26 25 25 24 24 23 24 26 27 27 26 24 22 20 20 18 17 18 18 16 15 14 14 13 12 12 12 12 12 11 11 10 10 10
28 28 29 30 29 28 28 27 26 25 26 26 24 24 25 26 26 24 24 24 22 20 20 20 19 19 19 17 16 15 15 14 13 13 13 12 12 12 11 11 11 11
29 30 30 31 30 29 29 28 26 25 26 27 26 25 25 26 25 24 23 23 22 21 21 21 20 20 19 18 18 16 15 15 14 14 14 13 13 13 12 12 12 13
31 31 31 31 31 29 29 29 28 27 27 28 28 27 25 25 26 25 24 23 22 22 22 22 21 21 21 20 18 17 16 15 15 15 15 14 14 14 13 14 14 14
32 32 31 30 30 29 28 28 29 28 27 27 28 27 25 25 25 25 24 24 24 23 23 23 22 21 22 21 19 18 17 16 15 15 15 15 15 15 14 15 15 15
30 29 28 29 29 28 28 28 29 29 28 26 26 27 26 25 25 25 24 24 24 23 22 23 22 21 22 22 20 19 18 17 16 16 15 15 15 15 15 15 15 15
27 25 25 26 26 26 27 28 29 29 28 26 25 26 26 25 24 24 24 24 24 23 21 21 21 22 23 23 22 20 19 17 16 16 16 15 15 15 15 15 15 15
25 24 23 23 23 24 26 27 28 28 28 26 25 25 25 24 24 24 24 24 23 22 21 21 20 20 23 25 24 21 19 18 17 16 16 16 16 15 15 15 15 15
24 23 22 22 23 24 25 26 25 25 25 24 24 24 24 24 25 24 23 23 23 23 22 21 20 20 22 25 24 23 20 18 16 15 15 15 16 15 15 14 15 15
23 22 21 21 21 23 25 25 24 22 22 22 22 23 23 23 24 24 23 22 22 23 23 22 22 24 24 23 24 24 23 21 17 15 15 16 15 15 15 15 14 14
21 21 20 19 19 21 23 25 25 24 24 22 21 22 23 23 24 24 24 23 22 23 23 21 21 24 24 22 22 22 23 23 21 18 17 18 17 15 15 15 14 14
20 19 18 18 18 19 22 23 24 25 25 23 21 21 22 23 24 24 24 23 21 21 20 18 18 21 21 20 20 19 19 21 21 20 19 19 18 17 16 15 15 15
20 18 17 18 18 19 20 21 22 23 24 23 22 22 22 22 23 24 24 22 20 20 18 16 16 18 17 14 15 16 16 18 21 21 20 19 19 18 17 16 15 15
18 18 19 20 19 18 18 19 20 20 21 22 22 22 22 22 23 23 22 21 20 19 17 15 15 16 15 13 14 15 15 17 20 20 20 19 19 18 16 16 16 16
19 19 20 19 18 17 17 17 18 19 19 19 19 20 20 21 22 21 20 23 22 18 16 16 15 15 14 12 13 15 15 17 18 18 19 19 18 17 16 15 16 16
19 19 19 18 17 17 17 17 17 19 19 18 17 19 19 19 21 21 20 25 26 19 16 15 14 13 13 12 14 14 13 14 16 16 17 17 16 15 14 14 15 15
18 17 17 18 18 17 17 16 17 18 18 17 17 20 19 17 19 20 19 22 24 20 17 15 13 13 13 13 14 12 9 10 12 15 18 17 13 13 14 14 14 14
16 16 17 17 17 17 16 15 16 17 18 17 17 20 21 19 19 19 18 19 21 20 19 18 15 13 13 13 12 9 7 8 11 16 18 15 12 14 15 14 13 12

ECMWFNIL_925_spd_042.txt.gz
Wind_Speed
27 27 27 26 24 23 23 23 23 23 22 21 22 21 20 20 18 18 20 20 18 17 16 16 16 15 14 14 13 11 10 10 10 10 9 9 9 8 8 9 9 7
28 27 28 27 26 25 24 24 25 24 23 22 22 21 21 21 20 19 20 20 20 18 18 18 17 17 16 15 15 14 12 12 11 11 11 11 10 10 10 10 9 9
30 29 29 28 27 27 25 25 25 25 24 23 22 22 22 22 22 21 20 21 21 20 20 19 19 19 18 16 16 15 14 14 13 12 12 12 11 10 10 11 10 10
31 30 30 30 29 28 27 26 26 25 24 24 23 22 22 23 23 23 23 23 23 22 21 21 21 21 20 18 17 17 16 15 15 13 12 12 12 11 11 11 10 10
33 32 32 31 29 29 29 28 27 26 25 25 24 24 23 24 25 25 25 24 24 23 22 22 22 22 22 21 19 18 18 17 17 15 13 12 12 12 12 11 11 11
34 34 34 33 31 30 30 29 28 26 25 25 26 26 25 26 26 26 27 27 25 23 22 23 23 23 23 22 21 19 19 18 18 17 15 13 13 12 12 12 13 12
35 36 35 34 33 32 31 30 29 28 26 26 27 27 27 28 29 28 28 28 26 24 23 24 24 24 24 23 22 21 20 19 18 18 17 16 14 14 13 13 12 11
36 36 36 35 33 33 32 31 30 29 28 27 28 29 29 30 30 30 29 29 28 26 25 25 25 25 25 24 24 23 22 20 19 19 19 17 16 15 14 13 12 12
36 36 37 35 34 33 32 31 30 31 30 29 29 30 30 31 31 31 31 30 29 27 26 26 27 27 26 25 26 25 24 22 20 19 19 18 17 16 15 14 13 13
37 36 36 35 34 33 32 31 30 31 32 32 30 30 31 32 32 32 32 31 29 28 28 27 28 29 28 27 27 27 26 24 22 21 20 19 18 17 17 16 15 15
38 36 35 35 34 32 31 32 30 30 32 34 32 30 31 33 33 31 31 32 31 31 31 30 29 30 30 28 28 28 27 25 23 22 21 20 19 18 17 17 17 17
38 37 36 35 35 32 31 32 32 30 31 33 33 31 30 32 34 33 32 34 34 33 33 33 30 31 32 30 28 28 28 27 25 24 22 21 20 19 17 17 17 17
38 38 37 35 35 34 33 32 32 31 30 31 32 30 29 29 32 35 35 35 36 33 32 34 33 31 32 31 29 29 28 27 25 25 23 21 20 19 18 18 18 17
38 38 37 36 35 36 34 32 32 32 31 31 31 30 29 28 30 35 37 36 36 35 32 33 34 32 31 32 31 29 29 27 26 26 24 22 21 20 19 18 18 18
37 36 37 36 35 34 34 33 32 32 32 32 33 32 31 31 29 32 37 37 36 35 34 34 35 33 32 33 32 30 30 30 28 27 25 23 22 20 19 18 18 17
34 34 34 35 34 34 34 34 32 31 31 32 34 33 32 32 32 31 35 37 36 36 35 34 34 34 34 35 35 33 32 30 28 27 24 22 21 20 18 17 17 17
32 32 32 32 33 32 32 32 31 30 29 30 32 33 32 32 34 33 33 35 36 36 35 34 33 34 35 36 36 35 32 29 26 25 24 22 21 19 17 16 16 16
31 30 29 30 30 29 29 30 29 28 28 28 29 32 32 31 32 33 32 32 33 34 34 34 33 33 35 36 35 35 32 29 26 25 23 21 20 19 17 16 16 16
29 28 27 27 28 27 26 26 27 27 26 26 27 28 28 28 29 31 31 31 31 31 32 32 31 33 34 34 34 34 33 29 26 24 22 20 19 18 16 16 16 17
28 27 26 25 26 26 24 24 26 26 24 23 23 24 24 25 26 29 30 30 29 29 30 29 30 32 33 32 33 35 33 28 23 20 19 18 17 16 16 15 15 15
28 26 25 24 24 25 23 23 23 23 22 22 22 24 25 26 27 27 27 28 27 27 28 27 28 31 31 31 32 33 31 28 24 20 18 17 18 17 16 15 15 15
26 25 23 22 22 22 21 21 20 21 23 23 22 23 24 26 26 25 26 26 25 25 26 24 25 29 30 29 29 28 26 26 25 22 19 18 19 18 17 17 17 17
23 24 22 21 21 21 19 19 18 19 21 23 22 21 21 24 25 25 25 26 24 24 24 21 23 26 27 25 26 25 23 24 24 22 20 17 15 15 16 16 13 13
22 23 22 21 21 20 18 17 16 16 18 20 20 19 19 22 25 24 24 25 24 24 23 22 23 25 25 26 27 24 22 24 23 20 17 14 12 12 14 13 12 13
21 22 21 20 20 19 18 18 16 15 16 18 18 18 18 20 23 23 23 23 23 21 20 21 23 25 26 27 25 20 19 22 22 18 14 12 13 13 13 13 14 13
22 22 22 21 20 19 18 18 17 15 16 17 18 18 17 18 21 22 20 20 21 19 18 21 25 26 27 26 19 16 19 21 18 14 12 12 14 14 15 15 12 11

ECMWFNIL_925_spd_045.txt.gz
Wind_Speed
38 36 35 34 34 33 33 34 33 32 31 31 32 31 29 29 31 30 28 26 24 22 20 19 20 20 19 19 16 14 18 19 16 14 14 14 13 13 12 10 10 7
38 37 35 35 35 34 33 34 35 34 33 33 32 30 29 30 32 30 29 29 26 23 22 21 21 21 20 20 18 16 19 20 17 15 16 15 14 15 14 11 10 9
39 37 37 36 36 34 33 34 35 35 34 34 33 32 31 31 31 31 31 31 28 25 24 23 23 23 22 21 21 19 20 20 18 17 17 16 15 15 15 13 11 10
39 38 38 37 36 35 33 33 35 35 34 33 34 33 33 32 31 31 33 32 28 26 26 25 24 25 24 23 23 23 22 21 18 18 18 18 17 15 15 15 13 12
41 39 38 38 36 35 34 34 35 35 34 34 34 34 34 34 32 32 33 33 30 27 27 27 26 27 26 25 25 25 24 23 21 20 19 19 19 17 15 15 14 13
41 39 38 38 37 36 35 35 35 35 35 34 34 35 35 36 34 34 34 33 32 30 29 29 29 29 29 28 27 26 25 25 23 23 21 19 20 19 17 16 16 15
40 40 39 38 37 37 37 35 35 36 36 35 35 35 36 37 37 36 35 34 33 32 31 31 31 31 31 30 29 27 26 25 24 24 23 20 20 20 20 18 18 17
40 40 39 38 37 37 37 36 35 36 36 36 36 36 36 38 39 38 37 36 35 35 34 33 33 33 32 31 31 29 28 26 25 25 25 23 22 21 20 18 18 19
39 39 39 38 38 38 37 37 36 36 36 37 38 37 36 38 40 40 39 37 37 37 36 35 35 34 33 33 33 32 29 28 27 27 27 26 25 24 22 20 19 19
39 39 39 39 39 38 38 38 37 37 37 38 38 38 37 38 39 40 40 39 39 38 37 36 36 35 35 34 33 31 30 29 28 27 28 28 28 27 25 24 23 20
39 40 40 40 40 39 38 38 38 38 38 38 38 38 38 38 39 40 41 41 40 40 39 38 37 36 35 33 31 31 30 30 29 29 28 28 29 28 26 25 24 22
40 40 41 41 41 40 39 39 39 39 39 39 39 39 39 40 41 42 42 42 42 41 40 39 37 36 34 31 30 31 31 31 31 30 29 28 28 29 27 25 24 23
41 42 42 41 41 41 41 41 40 39 39 40 40 39 39 41 42 42 43 42 41 40 40 39 37 35 33 32 31 33 32 32 32 32 31 29 28 29 28 26 25 24
43 42 42 41 42 42 41 40 40 40 40 40 40 39 39 41 42 42 42 41 40 39 39 38 37 34 34 35 36 36 35 34 34 33 32 31 30 29 28 26 25 23
43 42 41 41 41 41 41 41 41 40 40 40 40 40 39 39 40 41 40 39 38 38 37 37 36 35 36 39 39 38 37 36 36 35 33 32 30 28 27 26 25 23
42 41 41 41 41 41 42 42 41 40 39 39 40 40 39 38 38 39 39 38 37 37 37 37 36 35 38 41 40 39 39 37 35 34 33 31 29 27 27 26 25 23
41 41 41 41 42 42 42 41 40 39 38 37 39 40 39 37 37 37 38 38 37 37 37 37 35 35 39 42 41 39 39 37 34 33 32 31 29 28 27 27 25 23
40 40 40 41 41 41 40 40 38 37 36 36 37 39 38 37 36 37 38 37 36 37 37 36 35 35 38 41 42 40 38 35 33 32 31 30 30 29 28 26 24 22
40 40 40 40 40 39 38 37 36 36 36 36 36 37 37 36 36 36 36 36 37 37 36 35 34 34 36 39 40 40 38 34 31 31 31 29 28 28 27 25 23 21
39 40 39 38 38 37 35 35 35 35 35 33 33 35 36 36 35 34 35 36 37 36 36 35 33 34 35 36 38 40 38 32 27 27 29 28 27 27 26 25 23 21
39 38 37 36 36 35 34 34 34 34 33 31 30 33 35 34 33 33 34 35 35 35 34 33 32 33 33 35 37 36 31 27 26 26 26 27 27 27 26 25 22 20
38 36 35 34 34 33 33 32 32 32 31 29 27 28 31 32 32 33 34 33 33 32 31 30 30 31 31 32 34 32 28 27 30 29 27 27 27 26 25 23 21 20
37 36 34 33 33 32 31 31 31 31 30 28 26 26 29 31 30 31 32 32 31 30 29 28 28 28 28 30 34 37 35 33 33 31 28 27 26 25 23 20 19 19
37 36 35 33 33 32 30 29 29 30 30 29 27 27 29 31 30 29 29 30 30 30 30 30 29 29 30 33 39 43 40 36 34 31 27 24 23 23 23 20 18 17
37 36 34 33 32 31 30 29 29 30 30 30 29 28 29 30 30 29 27 27 28 29 30 31 30 30 32 36 42 42 36 32 32 32 28 24 22 21 20 19 20 21
35 35 34 33 32 31 31 31 30 29 29 29 27 25 25 27 28 28 26 24 24 26 28 30 31 31 33 37 40 38 32 30 32 32 29 26 22 19 18 19 22 26

ECMWFNIL_925_spd_048.txt.gz
Wind_Speed
41 40 38 37 37 37 36 35 35 35 35 35 35 36 37 36 34 33 32 31 31 30 29 28 25 24 25 25 22 22 22 20 18 17 16 16 16 16 15 14 12 10
41 40 38 36 36 36 36 36 36 36 36 36 36 36 37 37 36 34 33 32 32 32 31 30 27 25 26 26 24 23 23 22 21 19 18 18 18 17 17 16 14 12
41 40 38 37 37 37 36 36 36 36 37 36 36 37 38 38 37 36 35 34 34 33 33 31 28 26 27 26 25 24 23 23 23 22 21 20 20 19 18 18 16 14
41 40 39 38 37 37 36 36 36 36 37 37 37 38 38 38 37 37 36 35 35 35 34 33 30 28 27 27 27 25 24 23 24 24 23 21 21 19 18 20 18 16
41 40 39 38 37 36 36 36 37 37 37 38 39 39 39 38 38 38 37 37 37 36 36 34 31 29 27 27 28 27 26 24 24 26 25 23 22 20 18 19 20 18
40 40 39 38 37 36 36 37 38 38 38 39 39 39 39 39 39 39 38 38 38 38 37 35 34 32 29 28 28 28 27 25 25 27 26 24 24 21 19 19 20 21
39 39 38 38 37 37 37 38 39 40 40 39 39 40 39 39 39 39 40 40 40 39 38 37 36 34 31 29 30 30 29 28 27 28 28 26 25 24 22 21 21 22
39 39 38 38 38 38 38 38 39 40 41 40 40 40 40 40 40 40 40 41 41 40 39 38 37 35 33 32 32 32 32 31 30 30 30 28 27 26 24 23 22 22
39 38 38 38 38 38 39 39 39 41 41 41 41 41 40 41 41 41 41 41 42 41 40 39 38 36 35 34 34 35 34 34 33 32 32 30 29 27 24 23 24 24
39 38 38 39 39 40 40 40 40 40 41 41 41 40 40 41 41 40 41 41 42 42 40 39 38 37 37 36 36 37 37 36 35 34 33 32 31 30 26 24 25 26
40 39 39 40 40 40 40 41 40 40 41 41 40 40 40 41 41 40 40 42 42 42 40 40 40 39 39 38 38 39 38 37 36 35 33 32 32 31 29 26 25 26
41 40 40 41 41 41 41 41 41 40 40 40 40 40 40 40 40 40 41 42 42 41 40 40 41 41 41 40 39 39 38 37 36 34 33 32 32 31 30 28 26 26
42 42 42 42 42 42 41 41 41 41 40 40 40 40 39 39 40 41 42 42 41 40 40 40 41 42 42 40 40 40 38 36 34 33 33 33 33 31 30 29 28 27
43 43 43 43 42 42 42 41 41 41 40 39 39 39 39 39 40 40 40 39 39 40 40 40 41 42 42 41 41 39 37 35 33 32 32 32 31 31 31 30 29 28
42 42 42 42 42 41 42 42 41 40 39 39 38 39 40 40 39 39 38 38 38 38 39 40 42 43 44 43 41 39 37 34 32 32 32 30 29 30 31 30 29 29
41 41 40 41 41 42 42 42 41 40 39 38 38 39 39 39 38 37 37 38 38 38 39 40 42 44 45 44 42 39 35 31 30 31 32 30 29 30 31 30 30 28
40 40 39 40 41 41 41 41 40 39 39 38 38 38 38 38 37 37 38 39 38 39 39 40 43 45 45 44 42 36 29 27 29 31 31 29 29 30 31 31 30 28
40 40 39 40 41 41 41 40 39 38 38 38 38 38 38 37 37 37 39 39 38 39 40 42 44 45 45 43 39 33 30 33 34 31 30 29 29 30 31 31 30 29
40 40 40 40 41 41 40 38 38 38 38 38 39 39 38 37 37 38 38 39 39 40 41 42 43 44 44 40 35 36 38 40 36 32 31 30 29 30 31 30 29 28
40 40 40 41 41 40 38 38 38 38 38 39 39 38 36 37 38 38 39 39 40 41 41 42 42 43 41 37 36 40 42 39 34 33 31 30 29 30 29 29 28 27
40 40 40 40 39 39 39 39 39 38 38 38 37 37 38 39 39 39 39 39 40 40 40 40 41 40 37 36 38 42 42 38 34 34 31 28 28 28 28 29 29 28
41 41 39 39 39 39 39 39 39 38 38 38 37 37 38 38 38 39 39 39 39 39 39 39 38 36 35 37 38 39 40 38 35 35 33 29 27 27 28 29 29 28
42 41 39 39 39 39 39 40 39 39 39 39 38 37 37 38 38 39 39 38 38 38 38 36 34 33 34 37 37 36 38 38 37 37 35 31 27 27 28 28 27 26
42 42 40 39 39 40 40 39 39 39 39 39 39 39 38 38 38 37 36 37 37 38 38 36 34 34 34 36 37 36 38 40 40 38 34 31 28 25 24 25 26 26
42 42 42 40 40 41 41 40 40 40 40 40 39 39 37 36 36 35 34 35 36 37 39 38 36 35 35 36 36 36 38 40 38 34 32 32 29 25 22 22 25 26
42 42 43 42 42 41 40 40 40 39 38 38 37 36 35 33 33 34 33 34 35 37 38 38 36 34 34 35 35 36 38 38 35 34 34 32 28 24 22 22 25 27

ECMWFNIL_925_spd_051.txt.gz
Wind_Speed
42 40 38 37 36 36 34 34 35 35 35 35 35 35 36 35 34 33 32 31 30 29 29 28 28 27 26 24 22 23 23 21 20 19 18 18 18 18 18 17 14 13
43 41 39 37 36 36 35 35 35 36 36 37 37 37 36 35 35 35 34 33 31 30 30 29 29 28 28 26 24 25 25 23 22 21 19 19 19 18 18 17 15 14
42 41 39 38 37 37 36 35 35 36 37 37 38 37 37 36 35 35 35 34 33 32 31 30 30 30 29 27 26 27 28 26 24 22 21 20 19 18 18 17 16 16
42 41 40 39 39 38 37 36 35 35 36 37 38 38 37 36 36 36 36 36 35 34 33 32 31 31 31 29 27 28 29 28 25 24 23 22 20 19 18 18 18 18
43 41 40 39 39 38 37 37 36 36 37 37 38 38 37 37 36 36 36 37 37 36 34 33 33 33 32 31 30 29 31 30 27 25 24 24 23 21 20 20 20 20
42 41 41 40 39 38 37 38 38 37 37 38 37 37 38 38 37 37 37 37 38 38 36 35 34 34 34 33 32 31 32 31 29 27 26 26 25 24 23 21 21 20
41 41 41 40 39 39 39 39 39 38 38 37 37 37 37 38 38 38 39 38 39 39 38 36 36 35 35 35 34 33 33 32 31 29 27 26 27 26 25 23 21 20
41 41 41 41 40 40 40 40 40 39 38 37 36 37 37 38 38 39 39 39 39 39 39 38 37 37 36 36 36 35 34 33 33 31 29 27 27 28 27 25 23 21
41 41 41 41 41 41 41 41 40 40 38 37 37 37 37 38 39 39 39 39 40 40 39 39 38 38 37 37 37 36 35 35 34 32 31 30 29 30 29 27 25 24
41 41 41 41 42 41 42 42 41 39 38 37 37 36 37 38 38 38 38 39 40 40 40 39 39 39 38 38 39 38 37 35 34 33 32 31 31 31 30 29 28 27
41 40 41 42 42 42 42 42 41 39 38 37 36 36 36 37 37 38 38 39 41 41 40 40 39 39 39 39 40 39 38 36 34 33 33 33 32 32 32 31 29 29
40 41 41 41 42 42 41 41 40 39 38 37 37 36 36 36 37 38 39 40 41 41 40 40 40 40 40 40 40 39 38 36 34 34 35 35 34 33 32 31 30 30
41 42 41 41 42 42 41 40 40 39 38 38 38 37 37 36 36 38 39 40 41 41 41 41 40 41 41 41 41 39 36 35 35 35 36 36 35 33 31 31 31 30
42 41 41 41 42 41 41 40 40 40 39 38 38 37 38 38 37 38 38 39 40 41 41 41 40 41 42 41 40 38 35 35 36 36 36 34 33 32 32 31 31 30
40 40 40 40 40 40 41 40 39 39 39 38 38 38 38 38 38 38 37 38 39 40 41 41 41 43 43 42 41 38 36 36 37 36 34 32 31 32 32 31 30 30
39 39 39 39 40 40 40 39 39 38 38 39 39 38 38 38 37 38 38 38 39 40 40 41 42 43 43 43 43 39 37 37 37 34 31 31 32 33 32 32 32 31
39 39 39 40 41 40 39 39 39 38 38 39 38 38 38 38 37 37 38 39 40 40 41 42 43 44 43 43 43 40 38 38 35 32 31 32 33 33 33 32 32 31
39 39 40 40 40 40 39 39 38 38 38 38 38 39 39 38 38 38 39 40 40 41 42 43 43 42 42 44 43 40 39 38 34 32 34 34 33 33 33 31 30 30
40 39 40 41 41 40 39 38 38 39 39 39 39 39 38 38 39 39 39 40 40 41 43 43 41 41 42 43 42 39 39 39 36 36 35 34 32 32 31 30 28 28
39 40 42 42 41 39 38 38 39 40 40 40 38 37 38 39 39 39 40 40 41 42 42 40 39 40 42 42 40 39 39 41 40 36 31 30 30 30 31 30 29 28
39 40 41 40 39 38 38 39 40 40 40 39 38 38 40 40 39 39 40 41 41 41 39 38 38 40 41 41 40 39 40 42 41 34 28 27 29 28 28 29 28 27
39 40 39 38 37 37 38 40 40 40 40 39 38 38 38 38 38 39 40 40 41 40 38 37 38 39 41 41 38 38 40 41 40 36 31 29 28 27 27 27 26 26
39 38 37 36 36 37 39 40 40 40 39 39 38 37 36 37 38 38 39 39 39 38 37 37 37 39 40 39 37 37 38 39 40 38 34 31 29 28 27 26 25 25
39 38 37 37 37 38 40 39 39 39 38 38 38 37 37 38 38 37 37 38 38 38 38 37 37 39 40 38 36 37 38 37 38 37 36 35 34 31 29 28 26 25
39 39 39 39 40 41 40 39 39 38 37 37 37 37 37 37 37 36 36 36 36 37 38 38 37 38 38 36 34 36 39 38 35 34 35 37 35 33 31 29 27 26
39 40 42 42 42 42 41 40 39 37 36 36 37 37 36 35 35 35 35 35 35 36 37 37 37 38 38 35 33 35 40 37 32 32 35 35 34 33 31 29 27 25

ECMWFNIL_925_spd_054.txt.gz
Wind_Speed
41 39 39 38 38 36 35 35 34 34 34 34 34 35 35 34 33 32 31 30 28 28 27 25 25 25 24 23 23 22 21 19 20 20 20 20 19 16 15 16 16 15
41 40 38 37 37 37 36 37 37 36 36 36 36 36 35 34 33 33 32 31 30 29 28 27 26 26 25 25 24 24 23 21 20 21 21 21 20 18 16 16 17 16
42 40 39 38 38 38 38 38 37 37 36 36 36 35 34 34 33 33 33 32 31 31 30 29 27 26 26 26 26 25 25 24 22 21 21 21 20 18 17 16 17 17
42 42 41 41 40 40 39 37 37 37 36 36 36 35 35 34 34 33 33 32 32 32 31 31 29 28 27 27 27 27 26 25 23 22 22 22 21 19 17 16 17 18
44 43 42 42 41 40 38 37 37 37 37 36 36 35 35 34 34 34 33 33 33 33 33 32 31 30 29 28 28 28 28 27 25 23 24 24 23 20 18 17 18 18
42 42 42 42 41 40 39 39 39 39 38 37 36 35 35 35 34 35 34 34 33 33 33 33 32 31 30 30 29 29 29 28 26 25 26 26 24 22 20 19 18 18
40 41 42 42 41 41 40 40 40 39 38 37 36 36 35 35 36 36 35 34 34 34 34 34 34 33 32 31 31 31 30 29 28 27 27 27 26 24 22 21 20 20
40 40 41 41 41 41 40 40 39 38 37 36 36 36 36 36 37 37 36 35 34 34 34 35 35 35 34 33 32 32 31 30 30 29 28 28 27 26 24 23 22 22
40 40 40 41 41 41 40 40 39 37 36 36 36 36 36 37 38 38 37 36 35 35 35 35 35 36 35 35 34 33 32 31 31 31 30 29 29 28 26 25 24 24
39 39 40 40 41 40 40 39 39 37 36 36 36 36 36 37 38 38 38 37 36 35 35 35 36 36 36 36 36 35 34 32 32 32 31 30 30 30 28 27 26 25
40 40 39 40 40 39 39 39 39 37 36 36 36 36 37 37 38 38 39 38 37 36 36 37 37 37 37 37 37 36 35 33 32 33 33 32 31 30 30 29 28 28
40 41 41 40 40 39 39 39 39 38 37 37 37 37 38 38 38 39 39 40 39 38 37 38 38 38 38 38 37 37 35 33 32 32 33 32 32 31 30 30 30 29
42 42 41 41 41 40 40 40 40 40 39 38 38 38 39 39 39 39 40 41 40 39 39 39 39 39 40 39 37 36 35 33 32 32 32 32 32 31 30 30 30 30
44 43 42 42 41 41 42 42 41 41 40 39 39 39 40 41 40 40 40 40 40 39 39 39 40 40 41 40 37 36 35 34 33 32 32 31 31 31 31 31 30 30
42 41 42 42 41 42 42 42 41 41 40 40 40 40 41 41 40 40 40 40 39 39 39 39 40 42 42 41 38 36 36 35 34 33 32 32 31 31 31 31 30 30
40 40 40 41 42 43 42 42 41 41 40 40 41 41 40 40 39 39 40 40 40 39 39 40 41 42 43 42 40 38 37 36 35 33 32 32 31 31 31 31 31 31
39 39 40 41 42 43 42 41 41 40 40 41 41 41 40 39 39 39 40 41 40 39 40 41 42 43 43 42 41 39 38 36 35 34 33 32 32 32 32 31 31 32
39 39 40 41 42 42 41 41 41 40 40 40 40 41 40 39 39 40 40 40 40 40 41 41 43 43 43 42 41 40 39 37 35 34 33 32 33 33 33 32 32 30
39 39 39 41 41 41 40 39 39 40 41 40 40 40 39 39 40 41 41 41 41 41 41 42 42 42 42 42 41 40 39 38 36 34 33 33 34 34 34 34 32 28
38 39 40 40 40 39 38 38 39 40 41 40 39 38 39 40 40 41 41 42 42 41 41 40 40 41 41 41 40 40 39 38 37 34 33 34 35 35 36 36 32 29
38 40 40 39 38 37 37 38 39 40 40 39 38 38 39 39 39 40 41 42 42 41 40 39 39 39 39 39 40 39 38 38 37 34 33 34 35 36 36 33 29 28
39 39 38 37 37 37 37 38 39 40 40 38 37 37 38 37 38 40 40 40 40 39 39 38 36 36 37 38 38 38 37 37 37 35 35 35 35 35 34 30 27 27
39 38 37 36 36 36 38 39 40 40 39 38 37 36 36 37 38 38 38 38 38 39 39 37 34 34 36 37 37 37 36 37 37 36 35 35 36 37 35 32 29 27
39 39 38 37 37 39 40 40 40 40 39 39 39 38 37 38 38 37 38 38 39 40 40 37 32 32 35 35 36 37 36 37 38 37 34 34 36 36 33 29 25 23
39 39 39 38 39 41 42 42 42 41 40 40 40 40 39 38 38 37 38 39 40 40 39 36 31 31 33 34 35 36 37 38 39 38 36 36 35 31 28 25 23 23
38 39 40 40 42 44 44 43 42 39 39 39 40 41 39 37 38 39 39 39 40 39 37 35 32 31 32 34 35 37 37 38 39 39 39 40 37 32 28 26 26 25

ECMWFNIL_925_spd_057.txt.gz
Wind_Speed
41 41 39 36 35 35 34 35 35 34 34 34 33 33 33 32 31 30 30 29 28 26 23 22 22 21 22 21 20 20 19 18 18 17 16 17 18 16 15 14 13 13
41 41 40 36 35 38 37 36 36 35 36 36 35 35 34 33 32 31 31 30 30 29 26 25 24 23 23 23 21 21 20 20 20 19 17 16 18 17 16 15 13 13
42 40 40 38 37 39 38 36 36 36 36 36 36 36 35 34 33 32 32 31 31 30 28 27 27 25 24 24 23 22 22 21 21 21 18 17 17 18 17 17 15 14
43 42 41 39 38 39 38 35 34 35 35 34 36 36 35 34 34 33 33 32 31 31 30 30 29 27 26 25 24 23 23 22 22 22 20 18 18 18 18 18 16 15
45 44 42 40 38 38 38 37 36 35 35 36 37 36 36 35 34 33 33 33 33 32 31 31 30 29 29 27 26 25 24 24 23 23 22 21 19 18 19 19 17 16
43 43 43 41 40 39 37 38 39 37 36 37 37 37 36 36 35 34 34 34 34 33 32 31 31 31 30 29 28 27 26 26 25 24 24 23 21 19 20 20 19 17
41 43 44 43 40 39 38 38 38 39 39 38 38 38 37 36 36 36 35 35 34 33 33 33 33 33 32 31 30 29 29 28 27 26 25 25 23 21 21 22 21 19
40 40 42 41 38 36 36 36 37 40 41 40 39 39 39 38 37 36 36 35 35 34 35 35 34 34 34 33 32 31 30 29 29 27 27 26 25 24 23 23 23 21
37 37 39 40 37 35 34 35 35 38 41 42 41 39 39 40 39 37 37 37 36 36 36 36 36 35 35 35 34 33 32 31 31 29 28 28 28 27 25 25 25 24
36 36 36 37 36 34 34 34 33 34 39 42 42 38 38 41 41 39 38 38 37 37 37 38 37 37 36 36 36 35 34 33 32 31 30 30 29 29 28 27 26 26
37 37 36 36 36 34 34 35 33 31 34 39 41 39 38 40 41 40 39 38 38 39 39 39 39 38 38 37 37 36 35 34 33 32 32 31 31 30 30 29 28 27
37 37 36 36 36 35 34 34 34 32 32 35 39 39 37 37 40 41 40 40 40 40 40 41 40 39 39 38 38 37 36 35 34 34 33 32 32 32 31 31 30 29
39 40 39 37 36 36 35 34 35 34 33 33 36 38 37 35 35 38 41 41 41 41 42 42 41 41 40 39 39 38 37 36 34 34 34 33 33 33 33 32 32 32
42 42 40 37 35 36 37 35 34 35 34 33 34 35 36 35 33 34 38 41 41 42 42 42 42 41 40 40 39 38 37 36 36 35 34 34 34 34 33 33 32 32
45 41 38 38 36 35 38 37 34 33 33 33 34 35 34 34 33 32 34 38 41 42 42 41 41 42 41 40 40 39 38 37 37 37 36 35 35 35 34 33 32 33
44 40 38 39 38 37 38 39 35 33 33 33 34 35 34 34 34 32 31 34 38 41 40 40 41 43 42 41 40 40 40 38 38 38 37 37 36 35 34 34 34 34
41 39 38 39 40 38 38 38 37 35 34 34 35 35 34 34 35 33 31 31 33 36 38 40 42 43 41 41 41 40 39 39 39 39 38 37 37 37 35 35 36 36
39 39 38 39 40 39 38 39 38 35 33 34 34 34 34 34 34 34 33 31 30 32 34 37 41 42 41 41 42 41 40 39 38 39 38 36 37 37 36 36 37 36
38 38 39 38 40 40 38 38 38 36 35 34 33 33 33 33 34 33 33 33 32 32 33 33 36 40 41 41 42 42 42 39 37 37 38 37 38 38 38 38 38 36
37 39 39 38 39 39 36 37 37 36 36 34 32 32 32 33 35 34 34 35 34 34 34 32 33 36 40 42 42 42 42 41 38 37 36 37 39 40 40 40 39 37
38 39 36 34 34 34 34 35 35 35 35 33 31 31 32 34 35 35 36 36 35 35 35 33 33 35 38 41 43 43 42 41 40 35 32 36 39 40 41 41 40 38
35 35 32 30 30 31 32 33 33 34 34 32 31 31 31 32 34 35 36 35 35 36 36 34 33 34 37 40 43 43 41 41 42 36 31 35 39 39 40 41 40 38
35 34 31 29 29 30 32 33 34 35 34 33 33 32 31 32 34 35 35 35 37 38 37 34 34 36 37 38 41 42 41 42 43 37 31 34 38 40 40 39 38 36
41 40 36 32 31 33 34 34 34 33 33 34 35 33 32 33 33 33 33 34 37 39 38 35 34 37 39 39 40 43 42 42 45 39 31 29 32 34 34 33 33 33
41 41 38 34 32 33 33 32 32 32 30 32 35 34 33 32 31 31 32 33 35 38 39 37 35 37 40 39 41 43 42 43 46 41 32 28 28 27 25 24 26 28
37 37 37 35 34 36 35 32 31 31 30 31 34 33 30 30 31 32 32 32 34 36 37 37 36 38 39 40 42 43 43 45 45 41 33 29 28 27 24 21 21 22

ECMWFNIL_925_spd_060.txt.gz
Wind_Speed
26 26 25 24 24 23 22 22 22 22 22 22 21 20 20 20 20 20 19 18 19 19 18 18 16 15 15 15 15 15 13 13 13 12 13 13 12 12 12 12 12 10
27 26 25 24 24 23 23 23 23 22 23 23 22 21 20 20 20 21 20 19 19 19 19 19 18 17 16 16 16 16 15 14 14 13 13 14 13 13 14 14 13 12
28 27 26 26 25 25 24 24 23 23 23 23 23 22 20 19 20 21 22 21 20 19 20 19 19 19 17 17 18 18 16 16 15 14 14 15 14 13 14 14 14 14
29 29 28 27 26 25 24 23 23 23 23 23 23 23 21 20 20 21 23 23 21 20 20 20 20 19 18 18 19 18 16 16 16 15 15 15 15 14 14 15 15 15
31 30 29 28 26 25 24 24 25 24 24 24 24 23 23 22 21 21 22 23 23 22 20 20 20 20 18 19 20 18 17 17 16 16 16 16 15 15 15 15 16 16
30 30 30 28 27 26 25 26 26 26 25 25 25 24 23 23 23 23 22 22 23 22 22 21 21 20 20 20 21 19 17 17 17 17 18 17 16 16 15 16 17 17
30 31 30 29 28 27 27 27 26 26 26 25 24 24 24 24 24 24 24 23 22 22 22 22 21 21 21 21 21 20 19 18 18 18 19 18 17 17 17 16 17 18
31 31 30 30 29 28 28 27 26 27 27 25 24 25 25 25 25 25 25 24 23 22 22 22 22 22 21 21 21 21 20 19 19 20 20 20 19 19 18 17 17 18
32 31 30 30 30 29 29 29 28 27 27 27 26 25 25 25 25 24 24 25 24 23 22 22 22 22 22 22 22 22 22 21 20 21 22 21 22 21 20 19 18 19
32 32 31 31 31 30 30 30 29 28 27 28 28 26 24 25 25 25 24 24 25 24 23 23 23 23 22 22 22 23 24 23 22 22 23 23 23 22 21 20 20 20
33 33 32 33 33 31 31 31 30 28 27 28 28 27 25 24 25 25 25 24 25 25 24 24 24 24 23 23 23 23 24 24 23 23 24 24 24 23 22 22 22 21
34 34 34 34 34 33 32 32 31 30 28 27 28 28 27 26 25 25 26 26 26 25 25 25 25 25 25 24 24 23 24 24 24 24 24 24 24 24 23 23 23 22
35 35 35 35 35 34 32 32 31 31 30 29 28 28 28 28 27 26 26 26 27 27 26 26 25 25 25 25 25 24 24 24 24 24 24 24 24 24 24 23 23 23
35 35 36 35 34 33 33 32 31 31 31 30 28 28 29 29 29 28 26 26 27 28 28 27 26 26 26 26 26 24 24 24 25 24 23 23 24 24 24 24 23 24
33 33 33 33 32 31 32 32 31 31 31 30 29 28 28 29 29 29 27 26 28 28 29 28 27 27 28 28 28 26 25 24 25 26 25 24 23 24 24 24 24 24
32 31 30 31 32 31 31 32 31 30 30 30 30 29 28 28 28 29 28 27 28 28 28 28 28 29 31 33 32 30 26 24 25 25 26 25 24 24 24 24 24 25
31 30 30 30 32 32 31 31 31 30 30 30 30 29 29 28 28 29 29 28 27 28 29 29 29 31 34 36 36 35 30 26 24 25 25 26 26 25 25 24 24 25
30 29 30 30 31 32 31 30 31 30 29 29 29 29 29 29 29 29 30 30 28 28 29 29 30 33 36 37 38 39 36 29 24 23 25 26 26 26 26 25 24 24
29 29 30 30 31 32 30 30 30 30 30 30 29 29 29 30 30 30 30 30 30 29 29 29 29 32 37 39 39 40 40 36 28 24 25 26 27 27 27 26 25 24
29 30 30 30 30 30 29 30 30 30 30 30 29 29 29 29 30 30 30 30 31 30 29 29 29 31 35 39 40 40 41 40 34 27 26 27 27 28 28 27 26 25
29 30 29 28 28 28 29 30 30 30 30 30 29 28 29 29 29 30 30 30 30 30 29 29 30 31 34 36 39 39 40 41 38 32 28 28 27 28 28 27 27 27
30 29 28 27 27 28 29 30 30 30 30 29 29 28 28 28 28 30 30 30 30 30 31 31 30 32 35 36 37 38 38 40 41 35 31 29 28 28 28 26 27 28
28 27 27 27 26 27 29 30 30 30 29 28 29 28 28 28 28 28 29 29 30 30 31 31 29 30 35 36 37 37 38 41 42 36 32 31 29 29 28 27 29 31
25 25 25 26 27 28 29 29 29 28 27 27 28 28 29 28 27 26 26 28 29 30 30 29 28 29 33 36 38 39 39 41 41 35 33 33 30 29 29 28 30 32
24 25 25 25 27 28 27 26 25 25 24 25 26 26 27 27 25 25 25 26 27 28 29 29 28 30 33 36 39 41 41 41 38 34 35 34 30 29 31 31 30 31
23 24 25 25 25 25 24 23 23 23 24 24 25 25 25 25 25 25 25 24 25 27 29 29 31 34 36 37 40 42 43 43 38 34 35 34 31 31 31 31 31 30

ECMWFNIL_925_spd_063.txt.gz
Wind_Speed
27 26 25 24 23 22 22 22 22 21 21 20 20 19 20 20 20 20 20 20 20 20 19 18 17 17 16 15 14 14 14 14 13 13 13 13 12 13 13 14 13 12
28 26 25 24 24 23 24 23 22 22 21 21 21 20 19 19 20 20 20 20 20 20 20 20 19 18 17 16 16 16 15 15 14 14 14 14 14 14 14 15 14 13
29 27 27 26 25 25 25 24 23 22 22 21 22 21 20 19 20 21 21 21 21 20 20 20 20 20 19 17 17 17 17 16 16 15 15 15 15 15 15 15 15 15
31 30 28 27 27 26 25 24 24 23 23 22 23 23 22 20 20 21 22 22 21 21 21 21 21 21 20 19 18 18 17 18 17 16 16 16 16 16 15 15 16 15
32 31 29 28 28 26 25 25 26 25 24 24 23 23 23 22 21 21 22 22 22 22 21 21 21 21 21 21 20 19 18 18 18 18 17 17 16 16 16 16 16 16
32 31 30 29 28 28 27 27 27 26 25 25 24 23 23 23 23 22 22 23 23 23 22 22 22 22 22 21 21 20 19 19 19 19 19 19 18 17 17 16 17 17
32 32 31 30 29 29 29 27 27 27 26 24 24 23 23 23 24 24 23 23 23 23 23 23 22 22 22 22 22 21 20 19 19 20 21 20 19 18 18 17 17 18
33 32 32 31 30 30 30 28 27 27 26 25 24 24 24 24 24 24 24 24 24 23 23 23 23 23 23 23 23 22 22 21 20 22 22 21 20 20 20 18 18 18
33 33 32 32 31 30 30 30 28 27 26 26 26 24 24 25 25 25 25 25 25 24 23 23 23 24 23 24 24 24 24 23 22 23 23 23 22 22 21 20 19 19
34 33 32 33 32 31 31 31 30 28 27 27 27 26 25 25 25 25 25 25 26 25 24 24 24 24 25 25 25 25 25 25 24 24 24 25 24 23 22 22 22 21
34 34 34 34 33 32 32 33 31 29 28 28 28 28 26 25 25 26 26 26 26 26 25 25 25 25 26 26 26 26 26 25 25 25 25 25 25 24 24 23 23 23
35 35 34 35 35 34 33 33 32 31 30 28 28 28 28 27 26 26 27 27 26 26 26 27 26 26 27 27 26 26 26 25 25 25 25 25 26 25 25 25 25 25
36 36 36 36 36 35 34 33 32 32 31 29 28 28 29 29 28 27 27 28 28 27 27 27 28 28 28 28 28 27 27 26 25 25 25 25 26 26 26 26 26 26
35 35 36 36 36 35 35 33 33 33 32 31 29 28 29 30 30 29 28 28 28 29 28 28 29 29 29 29 29 28 27 27 26 25 25 25 26 26 27 27 27 27
34 33 34 35 34 33 34 34 33 32 32 31 30 29 29 29 30 30 29 28 29 29 29 29 29 30 30 30 29 29 28 27 26 26 26 26 26 27 28 28 28 28
32 32 32 33 33 33 33 34 33 32 32 32 32 31 29 29 29 30 30 29 29 29 29 30 30 30 32 33 32 31 29 28 27 27 28 28 27 27 28 28 29 29
31 31 31 31 33 33 32 32 32 32 31 32 32 32 30 29 29 29 30 30 29 30 30 30 30 31 34 36 37 35 32 29 28 28 28 29 29 28 28 29 29 29
29 29 29 30 31 31 31 30 30 30 30 30 31 31 31 30 29 29 30 30 29 30 31 31 31 33 36 38 40 41 38 32 28 28 28 29 29 29 29 28 29 30
27 27 27 28 29 29 29 28 29 30 30 30 29 29 29 29 29 29 29 30 30 30 31 31 31 33 37 40 41 43 43 39 32 28 28 29 29 30 30 29 29 29
27 27 27 26 26 27 27 27 28 29 30 29 28 29 29 29 29 29 29 30 30 30 30 30 30 31 35 40 42 42 44 44 38 31 28 29 29 30 30 30 30 30
28 27 27 26 25 26 27 28 28 28 29 29 27 28 28 28 28 29 29 29 29 30 30 30 30 31 34 37 41 42 43 45 43 35 30 30 30 30 31 31 32 32
28 27 26 26 26 27 28 28 28 28 28 28 27 26 26 27 27 28 28 28 28 29 30 30 30 32 34 36 39 41 42 45 46 40 33 31 30 30 31 32 32 33
27 27 26 27 27 28 29 29 28 27 26 26 26 26 25 25 25 26 26 27 29 29 30 31 31 32 35 37 39 41 42 45 48 43 35 33 32 30 31 32 33 34
27 27 27 28 28 28 28 27 26 25 25 25 26 26 26 25 24 24 25 27 28 30 31 31 31 33 37 38 40 42 43 46 48 42 36 34 34 32 32 32 33 35
26 27 27 27 28 27 26 25 25 24 24 25 25 25 26 26 25 25 25 26 27 29 31 32 31 32 36 39 41 42 43 47 46 39 34 34 34 33 33 32 32 34
24 25 26 25 25 25 24 24 24 24 24 24 25 25 24 25 25 25 25 25 25 26 28 31 32 33 35 37 40 42 45 48 45 37 33 34 33 32 31 30 32 34

ECMWFNIL_925_spd_069.txt.gz
Wind_Speed
36 36 35 33 33 32 31 33 34 32 31 31 31 32 32 31 29 28 28 28 28 27 25 24 24 23 22 21 20 19 20 20 19 18 16 15 14 16 17 16 14 13
37 36 35 33 33 32 31 33 35 34 32 32 31 31 31 31 29 28 28 29 28 27 26 25 25 24 24 23 23 21 21 22 20 19 19 17 16 16 17 18 18 16
38 37 36 35 34 34 32 32 34 35 34 32 32 32 31 31 30 28 27 28 29 29 27 27 26 25 25 25 25 24 23 23 22 21 20 19 19 18 17 19 19 19
39 38 38 37 36 35 33 32 33 36 36 34 33 32 31 30 29 28 28 28 30 30 29 29 28 27 26 26 26 26 24 24 23 22 22 21 20 20 19 18 19 20
41 40 39 38 37 35 34 33 33 35 36 35 34 32 32 31 30 29 29 29 30 31 30 30 29 29 28 27 27 27 27 26 25 24 25 24 23 22 21 20 20 21
41 40 39 38 37 36 36 35 34 33 34 34 33 32 31 32 31 31 31 31 32 32 31 31 30 30 30 29 29 28 28 28 27 26 27 26 25 24 23 23 22 22
41 41 39 38 37 37 36 36 34 33 33 33 33 33 32 32 33 33 33 33 33 33 33 32 32 31 31 31 31 30 30 30 29 29 29 28 27 27 26 26 25 24
41 42 40 38 38 38 37 37 36 35 34 33 34 34 34 33 33 34 34 34 34 33 33 33 33 33 32 32 32 32 31 31 30 30 31 30 28 28 29 29 27 26
41 41 41 40 39 39 39 39 38 37 35 35 35 35 35 35 34 33 34 35 36 34 34 34 34 34 33 33 33 33 33 32 31 31 31 32 31 30 30 30 29 28
39 39 40 40 40 40 40 39 38 38 37 36 36 35 35 36 36 34 34 34 36 36 35 35 35 35 35 34 34 34 34 34 33 32 32 32 33 32 31 31 31 30
39 38 39 40 40 39 39 39 38 38 38 38 37 36 35 36 36 36 35 35 36 37 37 37 36 36 36 36 36 36 36 35 34 33 33 32 33 33 33 32 32 32
40 40 39 40 41 39 38 38 37 37 38 39 38 37 36 36 36 37 37 37 37 37 38 39 38 37 37 37 37 37 36 36 35 35 34 34 33 34 34 34 34 34
42 42 41 41 41 40 39 38 38 37 37 39 39 38 37 36 36 37 38 39 40 39 38 39 39 38 38 38 38 37 37 37 36 36 35 35 35 35 35 36 36 36
43 44 43 42 42 41 40 39 39 39 38 38 39 39 38 37 36 38 39 39 40 40 40 39 38 39 38 38 38 38 37 38 37 37 36 36 36 36 36 36 37 37
42 42 43 42 41 41 41 40 39 39 39 38 38 39 40 39 37 37 38 39 39 39 40 39 38 39 39 40 39 39 38 39 39 38 37 37 36 36 36 36 37 38
41 41 41 41 41 41 42 41 40 39 39 39 38 39 40 40 39 37 37 38 38 38 39 39 39 40 41 42 42 41 40 39 38 39 39 38 37 37 37 37 38 39
41 41 40 41 41 41 42 42 41 39 39 39 39 39 39 39 39 39 37 37 38 39 39 39 40 41 42 43 44 44 43 40 39 39 39 39 38 37 37 38 38 39
41 41 41 41 41 41 42 43 42 40 39 39 39 39 38 38 39 40 39 37 38 40 40 40 41 42 43 44 45 45 44 42 40 39 38 39 39 38 38 38 37 38
41 41 40 41 42 42 42 41 41 41 40 40 40 39 39 38 39 39 39 38 37 38 40 42 42 43 44 44 45 46 46 45 42 40 38 39 39 39 39 38 37 37
40 40 40 41 42 42 41 40 40 41 41 40 39 38 38 38 38 38 39 40 39 38 40 42 42 43 44 45 46 46 46 46 45 42 39 38 39 39 39 39 38 38
40 39 39 40 40 40 39 39 40 40 40 39 38 38 39 39 38 38 39 40 40 39 38 39 42 44 44 45 46 46 46 46 46 44 40 38 38 39 39 39 40 40
40 39 39 38 38 38 38 38 38 39 39 39 37 37 37 38 38 38 38 39 40 40 38 38 40 42 44 46 46 45 45 46 46 45 42 40 39 39 39 40 40 41
40 39 38 37 37 37 38 38 39 38 38 38 37 35 35 36 38 39 38 38 38 39 40 39 38 39 41 44 45 44 44 45 45 44 43 42 41 39 38 39 40 42
39 39 38 37 37 37 38 38 38 37 36 36 36 36 35 36 36 36 37 38 38 39 40 39 38 37 36 37 39 41 43 44 44 43 43 43 41 39 39 40 41 42
38 38 38 37 37 37 37 36 36 36 35 34 35 35 34 33 33 33 34 35 37 38 38 37 35 34 33 32 32 34 38 42 43 41 41 41 40 38 39 40 41 41
37 38 37 37 36 35 34 33 33 33 32 32 32 33 32 31 30 30 31 33 34 34 34 34 33 31 30 29 27 27 31 37 41 42 40 39 37 37 38 39 40 40

ECMWFNIL_925_spd_072.txt.gz
Wind_Speed
39 38 36 35 34 34 36 37 36 35 35 34 33 33 34 33 31 28 27 26 26 25 24 23 22 23 23 21 20 20 21 21 20 20 19 17 15 18 20 18 16 16
40 38 37 35 34 32 33 35 36 35 35 35 35 34 33 33 32 30 29 28 28 27 26 25 24 23 24 24 22 21 22 23 22 21 21 19 17 17 21 21 18 17
40 39 38 37 36 35 33 34 35 35 35 35 35 34 33 33 33 32 30 29 29 29 28 27 26 25 25 25 25 24 24 24 24 23 22 21 19 18 20 22 21 19
41 40 39 39 38 37 35 33 34 35 36 35 35 34 33 33 33 33 32 31 30 30 30 29 28 26 25 26 27 26 26 26 25 24 24 23 21 20 19 21 22 22
41 40 40 39 38 37 35 34 35 35 36 36 35 34 33 33 33 34 34 33 31 31 31 31 30 29 27 27 27 28 28 27 26 26 26 25 24 23 21 20 21 23
39 39 39 38 37 36 35 35 35 35 35 36 35 34 33 33 34 34 35 35 33 32 32 32 32 31 30 29 29 30 30 30 28 27 28 28 27 25 24 22 22 23
39 39 38 38 37 36 35 35 35 34 35 35 35 34 34 34 35 35 36 36 35 34 33 32 33 33 32 32 32 32 32 31 31 30 29 30 29 28 26 25 25 24
40 39 38 38 37 36 36 36 35 35 35 35 35 36 35 35 35 36 36 36 36 35 34 33 34 34 34 33 33 33 33 33 32 32 32 32 31 30 30 29 28 27
39 38 38 38 37 37 37 37 37 36 35 35 37 38 37 36 36 36 36 37 36 36 35 35 35 35 35 35 35 35 34 34 34 34 34 33 33 33 33 31 31 31
37 37 37 37 37 37 38 38 37 36 35 36 37 37 38 38 38 37 37 37 37 36 36 36 36 36 36 36 36 36 36 36 35 35 35 35 36 35 35 34 34 34
37 36 36 37 37 37 37 37 37 36 36 36 36 36 37 38 38 38 37 37 38 38 38 38 38 38 38 38 38 38 38 37 37 36 36 37 37 37 36 36 36 36
38 38 38 39 39 37 37 36 36 36 36 36 36 36 37 37 38 38 38 39 40 40 40 40 40 39 39 39 39 39 38 38 38 37 37 37 38 38 38 37 38 38
40 41 40 40 39 39 38 37 37 37 37 37 37 37 36 37 37 38 39 40 41 41 41 41 41 40 40 40 40 39 39 38 38 38 38 38 38 39 39 39 39 39
41 41 40 39 39 39 39 38 38 38 38 38 38 37 37 37 38 39 40 40 40 41 41 41 40 40 40 40 40 40 39 39 40 39 39 39 39 39 39 39 39 39
39 38 38 38 38 38 39 39 39 38 38 38 38 39 39 38 38 39 39 39 40 40 41 40 39 40 41 42 42 41 41 41 40 40 40 40 39 39 38 38 38 39
37 37 37 37 37 38 39 39 39 38 38 39 39 40 40 40 39 38 38 39 40 40 40 39 39 40 43 44 44 43 42 41 40 40 40 39 39 38 37 38 38 39
38 37 37 38 39 39 39 40 40 39 39 39 40 40 40 40 39 38 38 39 39 40 40 40 41 42 44 45 46 45 44 42 40 40 39 38 38 37 37 38 38 39
37 37 37 38 39 40 40 40 40 39 39 39 39 40 40 40 40 40 40 39 39 40 40 41 42 44 45 46 46 46 46 43 41 39 38 37 36 37 38 38 37 38
38 37 37 38 38 39 39 38 38 39 40 40 39 39 38 38 40 40 40 40 39 39 40 42 44 45 46 46 46 47 46 45 42 39 38 37 37 37 38 38 38 38
38 37 38 38 38 38 37 37 38 39 40 39 38 37 37 38 39 40 40 41 41 41 42 42 43 45 45 46 46 46 46 45 44 41 38 38 38 38 38 38 39 38
38 38 38 38 38 38 37 38 39 39 39 39 37 37 38 40 40 39 40 41 42 43 42 41 43 45 44 45 46 46 45 45 45 43 40 38 39 39 39 40 40 39
37 37 37 37 37 37 38 39 39 39 40 39 37 37 38 38 39 39 40 40 41 42 42 42 44 44 44 44 45 45 44 44 44 44 41 40 39 39 39 40 40 40
38 37 37 37 37 37 38 39 39 40 39 38 37 37 37 37 39 40 40 40 40 40 41 43 44 43 42 43 43 42 43 43 43 43 42 41 41 41 40 40 40 41
39 38 38 38 37 37 38 39 39 39 38 37 37 37 37 38 38 38 38 38 39 40 41 42 42 41 39 39 40 40 41 42 42 42 41 41 41 41 41 41 41 42
40 40 39 39 38 38 39 39 38 38 37 37 37 37 37 37 35 34 35 37 38 38 39 39 38 36 34 35 37 38 39 40 41 40 39 39 39 39 41 42 41 41
40 41 40 39 39 39 39 39 38 37 36 36 36 36 36 35 34 33 33 35 35 35 34 34 34 32 31 31 32 33 35 38 40 41 39 38 38 38 39 39 39 39

ECMWFNIL_925_spd_075.txt.gz
Wind_Speed
40 38 38 37 37 36 35 35 34 34 34 34 34 34 33 32 31 29 27 25 24 23 23 24 23 22 22 21 20 19 19 20 20 19 18 19 19 18 18 18 19 17
39 38 37 36 36 35 35 35 35 34 34 35 36 36 34 32 31 30 28 27 26 24 24 24 24 23 22 22 22 21 20 20 21 20 19 19 20 19 18 18 20 19
39 38 38 37 37 36 36 35 35 35 34 34 35 35 34 33 32 31 30 28 27 26 24 24 24 24 23 22 22 22 22 21 21 21 21 20 20 20 19 17 18 21
39 39 39 38 38 37 36 35 34 35 34 34 34 34 34 33 33 32 31 30 29 28 26 25 25 25 25 24 23 23 24 23 22 21 21 22 22 21 20 18 18 20
40 39 39 39 38 37 35 35 35 35 35 35 34 34 33 33 32 32 32 31 31 30 28 27 26 26 26 25 25 24 24 25 24 23 23 24 23 22 21 20 20 20
39 39 39 38 37 36 35 35 36 36 36 35 34 34 34 33 32 32 32 32 32 32 31 30 28 28 27 27 27 26 26 26 26 25 25 25 25 24 23 22 22 22
39 39 38 38 36 35 36 36 35 35 35 35 34 35 34 34 33 33 33 33 33 33 33 32 31 29 29 28 28 28 27 27 27 27 27 27 27 26 26 25 25 25
39 39 39 38 36 35 36 36 35 35 35 34 34 35 35 35 35 35 34 34 34 35 34 34 33 31 30 30 30 30 29 29 28 28 29 29 29 29 29 28 28 28
39 39 39 38 37 37 37 37 36 36 35 35 35 35 34 35 35 35 35 34 34 35 35 35 35 33 32 31 31 31 31 31 30 30 30 31 31 31 31 31 30 31
38 38 38 38 38 38 38 37 37 35 35 35 35 34 33 34 35 35 34 34 34 34 35 36 36 36 35 34 33 33 32 32 32 32 32 32 33 33 33 32 32 33
37 37 37 38 38 38 38 37 36 35 34 34 34 33 33 34 34 34 34 34 35 35 36 36 37 37 37 36 35 34 34 34 33 33 34 34 34 34 34 33 33 34
37 37 37 38 38 37 37 36 36 35 35 34 34 34 33 33 33 34 34 35 36 36 37 37 38 37 37 37 36 35 35 35 34 34 35 35 35 35 34 34 34 35
38 38 38 38 38 37 37 36 36 35 35 35 34 34 34 33 33 33 34 35 36 36 37 38 37 37 37 37 36 36 36 36 35 35 36 36 36 36 35 35 35 36
40 40 40 39 38 37 37 36 36 36 36 35 34 34 34 34 34 34 34 35 35 36 36 36 35 35 36 36 37 37 36 36 37 37 36 36 36 36 35 35 35 36
39 38 38 37 36 36 37 37 37 36 36 36 36 35 35 35 35 34 34 35 35 36 36 35 35 36 37 38 38 38 37 37 37 37 37 36 36 35 35 35 35 35
35 35 35 35 36 37 38 37 37 36 36 36 37 37 36 36 35 34 34 35 36 36 36 35 36 38 40 41 41 40 38 37 36 37 37 36 35 34 34 34 35 35
35 35 35 36 37 38 37 37 36 36 36 36 36 37 36 36 35 35 35 36 36 36 36 36 38 41 42 42 42 42 40 38 36 36 36 35 35 35 34 34 34 34
36 36 36 37 38 38 37 37 36 36 36 36 36 36 36 35 35 35 36 36 35 36 36 37 39 42 43 43 43 43 42 40 38 36 35 35 36 36 36 35 34 34
37 36 36 37 37 37 37 36 35 36 36 36 35 35 34 34 35 35 36 36 36 36 36 38 40 42 42 43 43 43 43 42 40 37 35 35 36 36 36 37 36 35
37 36 36 37 37 37 36 35 36 36 37 36 34 33 34 34 35 35 36 36 36 37 37 38 40 41 41 42 43 43 42 41 41 40 38 37 36 36 37 37 37 37
36 36 36 37 37 36 36 36 37 37 37 36 35 35 35 36 35 35 36 36 37 38 37 38 40 41 40 41 42 42 41 40 40 41 40 39 38 37 38 39 38 37
36 36 36 36 36 36 36 36 37 37 37 36 35 35 36 35 35 35 36 36 37 37 37 38 41 41 40 40 40 39 38 38 39 40 41 40 40 39 39 39 39 37
37 37 37 37 36 36 36 37 37 37 37 36 35 35 35 35 36 36 36 35 36 36 37 39 41 40 38 39 38 35 35 36 38 40 40 40 41 41 40 40 39 39
38 38 38 37 36 36 37 38 38 37 37 37 36 36 36 37 36 35 35 34 35 36 38 39 40 38 37 37 36 34 34 36 38 39 39 39 40 41 41 41 40 40
38 39 39 38 37 37 38 38 38 38 37 37 37 37 37 37 35 34 34 34 35 36 37 38 39 37 36 37 35 34 34 35 36 37 37 37 38 39 40 40 39 39
38 39 39 38 37 38 39 39 39 37 36 36 36 36 35 34 33 33 33 34 34 34 35 37 38 37 36 36 35 34 34 34 34 36 36 36 37 37 37 37 37 38

ECMWFNIL_925_spd_078.txt.gz
Wind_Speed
36 35 35 35 34 33 32 32 32 32 31 31 31 31 30 27 26 25 24 24 24 24 22 20 18 19 21 21 20 19 18 16 16 16 17 17 17 16 16 17 17 17
37 36 36 35 34 33 33 33 33 32 32 32 32 31 30 29 27 26 25 24 25 25 23 21 20 19 20 21 21 20 20 18 17 17 18 18 18 18 18 18 18 18
37 37 36 35 35 34 34 33 33 32 32 32 32 31 31 30 29 28 27 25 25 25 24 23 21 20 20 21 21 21 21 20 19 18 18 19 19 19 19 18 18 19
38 37 37 37 36 36 34 33 33 33 32 32 32 32 31 31 31 30 29 27 26 26 26 25 23 22 21 21 21 21 22 22 21 20 19 19 19 20 19 19 19 20
39 38 38 38 37 35 34 33 34 34 34 34 33 33 32 31 31 31 31 30 28 27 27 27 25 24 23 22 22 22 22 22 22 21 21 21 20 20 20 20 21 21
38 38 38 38 36 35 34 34 35 34 34 34 34 33 33 32 32 32 32 31 30 29 28 28 27 26 25 24 23 23 24 24 23 22 23 23 22 21 21 21 22 23
37 37 37 37 36 35 35 35 35 34 34 33 33 33 33 32 32 32 32 32 31 30 30 30 29 28 27 26 25 25 25 25 24 24 24 24 23 23 23 23 24 24
37 37 37 36 35 35 35 35 34 34 34 32 32 33 32 32 32 32 32 31 30 30 30 30 31 30 28 27 26 26 26 26 26 26 25 25 25 25 26 25 26 26
37 37 37 36 36 36 35 35 35 34 33 32 33 33 32 32 32 31 31 30 30 30 30 30 31 31 30 29 28 28 28 27 27 27 27 27 27 27 27 27 27 28
37 36 36 36 36 36 36 36 35 34 33 33 33 32 32 32 32 31 31 31 30 30 30 31 31 31 31 30 30 30 29 29 28 28 28 28 28 28 28 27 28 29
37 36 36 36 36 36 36 36 35 33 33 33 32 32 32 32 32 32 32 32 32 32 32 32 32 32 32 31 31 31 30 30 29 28 28 28 29 29 28 28 28 29
37 37 37 37 37 36 36 35 34 33 33 33 32 32 32 32 32 33 33 33 34 34 34 33 33 32 32 32 32 32 31 31 30 30 29 29 29 29 29 29 29 30
38 38 38 38 38 37 36 35 34 34 33 33 32 32 32 32 32 33 33 34 34 34 34 34 33 33 33 33 33 32 32 32 32 31 31 30 30 30 30 29 30 30
39 40 39 39 38 38 36 35 34 34 34 33 32 32 33 34 33 33 33 33 34 34 34 34 33 33 33 33 33 33 33 32 32 32 31 31 31 31 31 30 30 31
39 39 38 37 36 36 36 36 36 36 35 34 33 34 34 34 33 33 32 33 33 34 33 33 33 34 34 35 34 34 33 33 33 32 32 31 31 30 30 30 30 31
37 37 36 35 35 35 36 37 36 36 35 35 35 35 34 33 33 32 32 33 33 33 33 33 34 35 36 36 35 35 34 33 33 32 32 31 31 30 30 31 31 32
36 35 35 35 36 36 36 37 36 35 34 35 35 34 33 33 32 32 33 33 32 32 33 33 35 36 37 36 36 35 34 33 32 32 32 31 31 31 31 32 31 32
36 35 35 36 37 37 37 36 35 34 34 34 34 34 34 33 32 33 33 32 32 31 32 34 36 37 37 36 36 35 34 33 33 32 31 31 31 32 32 32 31 32
37 37 37 37 38 38 37 35 35 35 35 35 34 34 33 33 33 33 33 33 32 32 33 34 36 37 37 37 36 35 34 34 33 33 32 31 31 31 31 31 31 32
37 37 37 38 37 37 36 35 36 36 36 35 34 33 33 33 34 34 34 34 34 34 34 35 36 37 37 36 36 35 34 34 34 34 33 33 32 32 32 32 32 31
36 37 37 37 36 36 36 36 36 36 35 35 34 34 34 35 35 34 35 35 35 35 35 36 38 38 37 36 35 34 33 33 33 34 34 34 34 34 34 33 33 32
37 36 36 36 36 35 35 36 36 36 36 36 35 34 35 35 34 34 35 35 35 35 35 37 39 39 37 37 35 33 32 32 32 33 34 34 35 35 35 35 34 33
37 37 36 36 35 35 35 35 36 36 37 36 34 34 34 34 35 35 35 35 35 35 36 38 40 39 37 37 35 33 31 31 31 33 33 34 35 36 35 35 35 35
38 38 37 36 35 35 36 36 37 37 36 36 35 35 35 36 35 34 34 35 35 37 38 39 40 38 36 36 35 33 32 32 32 32 32 34 35 35 35 35 36 36
38 38 38 37 36 36 37 38 37 37 36 36 35 36 35 35 34 33 33 34 36 37 37 38 39 37 35 35 34 33 33 33 32 32 32 33 34 34 34 35 36 37
38 38 38 37 37 38 38 38 37 36 35 34 34 34 34 32 32 32 32 33 35 36 37 38 39 36 34 34 34 33 33 33 32 32 33 33 34 34 34 33 34 36

ECMWFNIL_925_spd_081.txt.gz
Wind_Speed
31 31 30 28 28 28 27 30 31 29 29 28 28 29 29 28 25 22 21 21 20 19 18 18 17 16 14 14 15 17 17 17 15 13 12 12 13 13 13 13 12 12
32 31 31 28 28 30 30 30 31 30 31 30 29 29 29 29 26 24 22 21 21 20 19 18 18 17 15 14 14 16 17 18 17 16 15 14 14 14 14 14 14 14
33 32 32 29 28 30 29 28 30 31 30 30 30 29 29 29 27 27 25 23 21 21 20 19 18 18 17 15 14 15 17 18 18 17 17 16 15 15 15 15 15 15
34 33 32 30 28 28 27 27 29 31 30 30 31 30 29 29 28 28 27 25 24 22 21 19 19 19 19 17 15 15 16 18 19 19 19 18 17 16 16 16 16 15
35 34 33 31 27 27 28 29 29 29 30 31 31 30 29 29 28 28 27 27 26 24 23 22 20 20 20 19 18 17 16 17 18 20 20 19 18 18 17 17 16 16
35 35 35 33 30 29 30 31 30 30 30 30 30 30 30 29 29 28 28 28 26 26 25 24 23 22 21 21 19 17 15 15 17 20 21 20 19 18 18 19 18 17
34 35 36 34 31 30 31 30 31 32 31 30 30 31 30 29 29 29 29 28 26 26 26 26 25 24 23 22 21 17 13 12 15 17 19 20 20 20 20 20 20 19
34 34 35 33 29 29 30 30 31 33 33 31 30 30 30 30 29 29 29 28 26 26 27 27 27 26 25 23 22 20 16 13 13 14 16 18 20 22 21 21 21 21
33 32 33 32 30 29 29 29 29 31 33 33 31 29 30 31 30 29 29 28 27 27 27 27 27 27 26 25 24 23 21 18 17 17 16 17 19 22 22 21 21 22
32 31 31 31 30 29 28 28 27 27 30 33 31 27 28 31 31 29 29 28 28 28 27 27 27 26 27 26 26 25 24 22 21 20 19 18 18 20 20 21 22 22
32 31 30 31 30 29 29 29 27 25 27 31 30 26 26 29 30 29 29 28 28 28 28 27 27 26 26 26 26 25 25 23 22 22 21 20 20 18 17 20 22 22
32 31 31 32 31 29 28 28 27 25 25 27 28 27 25 25 28 29 30 29 29 29 28 28 27 27 27 27 25 25 25 23 22 21 22 22 22 20 17 19 21 22
32 33 33 32 31 30 28 27 27 26 25 26 26 27 25 23 25 28 30 31 30 29 29 28 28 28 28 28 27 25 25 24 22 20 21 22 23 22 20 19 21 22
34 35 36 33 31 31 30 28 27 27 26 26 26 26 26 25 25 26 28 29 30 30 29 28 28 29 29 28 28 27 25 25 23 21 20 20 22 22 21 20 21 21
38 36 36 34 31 33 34 30 28 28 28 27 28 28 27 26 26 24 25 27 29 30 29 28 28 29 30 29 29 28 27 24 23 23 22 20 20 21 19 20 21 21
41 37 35 34 33 34 35 33 29 28 28 28 29 29 27 26 26 24 23 25 27 29 29 28 29 30 32 31 30 29 27 23 22 23 24 22 21 20 20 20 21 21
40 37 35 35 35 33 33 33 30 28 27 28 29 29 27 26 26 25 25 24 24 25 27 28 30 32 33 32 31 30 27 23 21 22 23 23 22 21 21 21 20 20
37 35 34 34 34 34 34 35 32 28 27 28 29 29 28 27 26 26 26 25 23 23 25 27 30 33 33 32 31 31 29 26 22 20 20 21 21 21 21 20 20 20
35 34 34 34 35 36 36 36 33 30 29 29 29 28 27 27 27 27 26 26 25 24 25 26 27 30 32 32 31 30 30 28 26 22 20 20 20 20 20 20 20 20
36 35 34 35 37 37 35 34 33 32 30 29 27 26 27 28 28 27 26 26 26 26 26 26 26 28 31 32 31 30 29 29 29 26 23 22 22 21 21 21 21 21
36 35 34 34 36 35 34 32 32 31 30 28 26 26 27 29 29 27 26 26 27 27 26 26 28 30 31 31 31 30 29 29 29 28 25 24 24 23 23 23 23 23
35 34 33 32 32 32 31 30 30 30 31 29 26 25 25 27 27 27 26 27 29 28 26 27 28 30 33 33 32 30 29 28 30 30 28 26 25 25 25 25 25 24
34 34 33 31 30 30 30 29 29 30 31 30 27 25 24 24 26 27 27 28 28 27 27 28 28 29 32 34 32 31 30 29 30 30 29 28 28 27 26 26 26 27
33 35 34 32 31 31 30 29 29 29 29 29 28 26 25 24 24 25 26 26 26 27 29 29 26 27 31 33 32 31 31 30 31 30 28 29 30 30 29 28 28 29
34 36 35 32 31 31 30 29 29 28 28 27 27 26 25 23 23 23 24 24 25 27 29 30 26 25 28 31 32 31 31 31 31 29 27 28 30 30 29 29 31 32
35 37 36 32 29 30 29 28 29 28 26 25 25 24 23 22 22 23 23 23 24 25 27 28 27 25 27 30 31 31 31 31 30 29 27 27 28 27 25 26 29 32

ECMWFNIL_925_spd_084.txt.gz
Wind_Speed
23 22 21 20 19 18 18 18 18 18 18 17 16 16 16 15 14 15 14 13 13 13 13 13 13 12 11 9 9 9 8 9 8 7 8 8 7 7 7 6 6 6
24 22 21 20 19 18 18 18 18 18 18 18 17 15 15 15 15 16 15 14 14 14 14 14 14 13 12 10 9 9 9 9 9 8 8 9 8 7 7 7 7 7
25 23 23 22 20 20 19 19 18 18 18 18 17 16 15 15 16 16 16 16 15 14 14 14 14 14 13 12 10 10 9 10 10 9 9 9 9 8 8 8 8 8
26 24 24 23 22 21 20 20 19 19 18 17 17 17 16 15 15 16 17 17 16 16 15 15 15 14 14 13 12 11 10 10 10 10 10 10 9 9 9 8 8 8
26 26 25 23 23 21 20 21 20 19 19 18 18 17 17 16 16 16 16 17 17 17 16 16 16 15 14 14 13 12 11 10 10 10 11 11 10 10 9 9 9 9
27 28 26 24 23 23 22 21 22 20 20 19 18 18 18 18 17 17 16 17 17 17 17 17 16 16 15 15 14 13 12 11 10 11 11 11 11 11 10 9 10 10
28 28 27 25 24 24 23 22 22 22 20 19 19 19 18 18 18 18 17 17 17 17 17 17 16 16 16 15 15 15 14 12 11 11 12 12 11 12 11 11 11 11
28 27 27 26 25 24 23 22 22 22 21 20 19 19 19 19 18 18 18 18 17 17 17 17 16 17 16 16 16 16 15 14 13 13 13 12 12 12 13 12 12 12
29 28 28 28 26 25 25 24 23 22 22 21 21 20 20 20 19 18 18 18 18 17 17 17 17 17 17 17 17 17 17 16 14 14 14 14 13 13 13 13 13 13
29 29 29 29 27 26 26 26 24 22 22 23 22 20 20 20 20 19 19 19 19 19 18 18 18 18 17 17 17 17 17 17 15 15 15 15 14 13 13 13 13 13
30 30 29 29 29 27 27 27 25 23 23 23 23 22 21 20 20 20 20 20 20 20 19 19 19 18 18 17 17 17 17 17 16 16 16 15 15 14 13 13 13 13
31 30 30 30 29 28 27 27 26 24 24 23 24 24 22 21 20 21 22 22 22 20 20 20 19 19 19 18 17 17 17 17 16 16 16 16 16 15 15 14 14 14
32 31 31 30 29 28 27 26 27 26 25 24 24 24 24 23 22 22 22 23 23 21 20 20 20 20 19 19 19 18 17 17 16 16 16 16 16 16 16 16 15 15
32 31 30 29 29 28 27 26 26 26 25 24 23 24 24 24 23 23 22 22 22 22 21 20 20 20 20 20 20 19 18 17 17 17 16 16 16 16 16 16 16 16
31 30 29 29 28 27 27 26 26 26 25 24 24 24 24 24 24 23 22 22 21 21 21 20 20 20 21 21 21 20 19 18 17 17 17 17 16 16 16 17 17 17
30 29 29 29 28 28 27 27 26 25 25 25 24 24 23 23 24 23 23 22 21 21 21 21 21 21 22 24 23 21 19 18 18 17 17 17 17 17 17 17 18 18
30 29 29 29 29 28 28 27 26 25 25 25 25 24 23 23 23 24 23 22 22 22 22 22 22 22 24 27 27 25 21 18 17 18 17 17 18 18 18 18 18 18
30 29 29 29 29 28 27 27 27 25 25 25 24 24 24 23 23 24 24 23 22 22 22 23 23 23 26 28 28 28 25 21 18 17 17 18 18 18 18 18 18 18
30 29 28 29 29 28 27 27 27 26 25 25 25 24 23 23 23 23 23 23 22 22 22 23 22 23 27 29 29 28 28 25 21 18 18 18 18 18 18 17 17 17
29 29 29 28 28 28 27 27 27 27 26 25 24 23 23 23 24 23 23 23 23 23 23 22 21 22 26 28 29 28 28 27 25 21 19 19 18 18 18 17 17 17
29 29 28 27 27 28 27 27 27 27 27 25 24 23 24 23 24 24 23 23 24 23 23 22 22 24 25 27 28 28 27 27 27 23 21 20 20 19 19 18 18 18
30 29 28 27 27 28 28 27 27 26 26 26 24 23 23 22 23 23 23 24 24 24 24 23 23 25 27 28 28 27 26 27 27 24 21 21 20 20 20 20 19 19
30 29 29 28 28 28 28 28 27 26 26 25 24 23 22 22 23 23 23 24 25 25 25 24 24 25 27 29 29 28 27 27 27 23 21 22 21 20 20 20 20 21
30 29 29 29 28 28 28 27 26 26 25 25 25 24 23 23 22 22 23 24 25 25 25 24 23 24 26 28 28 29 28 27 24 22 21 21 21 20 20 20 21 23
29 29 29 29 28 28 27 27 26 25 25 25 25 25 24 23 22 21 22 22 23 24 25 25 23 23 25 27 28 28 29 27 23 21 21 21 20 20 20 20 21 22
28 29 29 28 28 27 26 26 25 24 24 24 24 23 23 22 22 21 21 21 21 22 24 25 24 23 24 27 28 29 30 29 25 22 21 21 20 19 19 19 20 21

ECMWFNIL_925_spd_087.txt.gz
Wind_Speed
24 23 23 22 21 20 20 19 18 18 18 17 16 15 15 14 14 13 13 13 13 12 11 10 9 9 8 7 7 7 6 6 7 6 7 7 6 6 6 6 5 4
25 23 23 22 22 21 21 20 19 18 18 18 17 15 15 15 15 15 14 13 13 13 12 12 11 10 9 9 8 8 8 8 8 7 7 7 7 7 6 6 6 5
26 24 24 23 23 23 22 21 20 19 18 18 18 16 15 15 16 16 15 15 14 13 13 13 12 11 11 10 10 9 9 9 9 8 8 8 7 7 7 7 6 6
28 26 25 24 24 23 23 21 20 20 18 18 18 18 16 16 16 16 16 16 15 14 13 13 13 13 12 11 11 10 10 10 10 9 8 8 8 8 7 7 7 6
29 27 26 25 24 23 23 23 22 21 20 19 18 19 18 17 17 17 17 17 16 15 14 14 14 13 13 13 12 11 11 10 10 10 10 9 9 9 8 8 7 7
29 28 27 25 25 24 24 24 23 22 21 20 19 19 19 19 19 18 18 18 17 17 16 15 15 14 13 13 13 12 11 11 11 11 11 11 10 10 9 8 8 8
30 30 28 26 25 25 24 24 24 23 22 21 20 20 20 20 20 20 19 19 18 17 17 16 16 15 14 14 13 13 12 11 11 11 12 11 11 11 10 9 9 9
31 30 29 27 26 26 25 24 24 24 23 21 21 21 21 21 21 21 20 20 19 19 18 18 17 17 16 15 14 14 14 13 12 12 12 12 12 11 11 11 10 10
31 30 29 29 27 26 26 25 24 24 23 23 22 22 22 22 22 22 22 22 21 20 20 20 19 18 18 17 17 16 15 15 14 13 13 13 13 13 12 12 12 12
32 31 31 31 29 27 27 27 26 24 24 24 23 23 23 23 22 22 22 23 22 21 21 21 21 20 19 19 18 17 17 16 15 14 14 14 14 14 13 13 13 13
33 33 32 32 31 29 29 29 27 26 25 25 25 24 23 23 23 22 22 23 23 23 23 23 22 22 21 20 19 19 18 18 17 16 15 15 15 15 14 14 14 14
34 34 33 33 32 30 29 29 28 27 26 25 25 25 24 24 24 23 23 24 24 23 23 23 23 22 22 21 20 20 19 19 18 18 17 17 16 16 16 15 15 15
36 35 34 34 33 31 30 29 29 28 27 26 25 25 25 25 25 25 24 24 24 23 23 23 23 23 23 22 22 21 20 20 19 19 19 18 18 18 17 17 17 16
36 35 34 33 32 31 30 29 29 29 28 27 26 26 26 26 26 25 25 24 24 24 23 23 23 23 23 23 23 22 21 20 20 20 19 19 18 18 18 18 18 18
35 33 33 33 32 31 31 30 29 29 28 27 27 27 27 27 26 26 25 25 24 24 23 23 23 23 23 24 24 23 22 21 21 20 20 19 18 18 18 18 18 18
33 32 32 33 32 32 31 30 29 28 29 28 28 27 27 27 27 26 25 25 24 24 24 24 24 24 25 27 26 25 23 22 21 21 20 20 19 18 18 18 18 18
32 31 32 33 33 32 32 31 29 28 28 29 28 27 27 27 27 27 26 26 25 25 25 25 25 25 27 29 30 27 24 22 21 21 20 20 20 19 19 18 18 18
31 31 32 33 33 32 31 31 30 28 28 29 28 28 27 27 27 27 27 26 25 25 25 25 25 25 27 30 31 31 28 23 20 20 20 20 20 20 19 19 18 18
30 30 31 32 32 32 31 31 31 29 28 28 28 28 27 26 26 27 27 26 25 25 25 25 25 26 28 29 31 33 32 27 21 19 20 20 20 20 20 19 19 19
30 30 30 31 32 31 30 30 31 30 29 28 28 27 27 27 27 27 27 27 26 25 24 24 25 26 28 29 30 31 33 32 26 20 19 20 20 20 20 20 20 20
32 31 30 29 30 31 30 31 31 30 29 28 28 27 27 26 26 26 26 27 27 26 24 23 23 25 26 28 30 30 31 32 29 23 19 19 19 20 20 20 20 20
32 32 30 29 30 30 30 30 30 30 29 28 27 27 26 25 25 25 26 26 26 26 26 24 23 24 25 26 28 29 29 31 31 26 21 19 19 20 20 20 20 20
32 32 31 30 30 31 30 30 29 29 29 28 27 26 26 25 25 25 25 26 26 26 26 25 24 25 25 25 27 27 27 30 31 26 21 20 20 19 20 20 20 21
33 32 31 31 31 31 30 29 28 28 28 28 27 26 26 26 25 24 24 25 26 26 26 26 25 26 27 27 28 28 28 29 28 24 21 20 20 19 19 19 20 22
32 32 31 31 31 30 29 29 28 27 27 27 26 26 26 25 25 24 24 24 25 26 27 26 26 27 28 29 29 30 30 29 26 22 20 20 19 19 19 20 20 21
31 32 32 31 30 30 28 28 27 26 26 26 26 25 24 25 25 24 23 24 24 25 26 26 26 26 28 30 31 31 32 31 27 22 20 20 19 19 19 20 21 21

ECMWFNIL_925_spd_093.txt.gz
Wind_Speed
38 37 36 35 33 32 31 30 30 27 25 26 26 23 23 24 22 21 22 20 19 20 17 16 15 14 15 13 12 13 12 11 11 12 13 13 12 12 10 9 9 9
40 38 37 36 34 32 32 31 31 31 29 27 26 24 24 24 22 22 24 22 20 21 20 18 17 16 16 15 14 14 14 12 12 12 13 12 13 13 11 9 8 8
41 40 39 38 37 34 32 32 31 32 31 29 27 26 26 25 23 23 25 24 21 22 22 21 20 19 18 17 16 16 16 14 14 14 13 12 12 13 12 10 8 7
41 41 41 40 39 37 34 32 32 32 32 31 29 28 28 27 25 26 27 25 23 22 22 22 22 21 21 19 18 18 18 16 15 15 14 13 12 12 13 11 10 9
42 42 42 41 40 38 36 34 34 33 33 33 32 30 28 28 28 28 28 27 25 23 23 23 23 22 22 21 18 18 19 18 17 15 14 14 13 12 13 12 11 11
42 42 42 41 40 39 38 36 35 35 34 33 33 31 29 29 30 30 29 29 27 26 25 24 24 23 22 22 20 18 18 18 18 17 16 15 14 12 12 12 12 11
40 41 41 41 40 39 40 39 37 36 35 34 34 33 32 31 31 32 31 30 29 28 27 26 26 24 23 23 23 21 20 18 18 18 18 17 16 14 13 13 13 13
39 40 40 40 40 39 40 40 38 37 36 34 34 34 34 33 33 33 32 32 31 29 29 29 28 26 25 24 24 23 22 20 19 19 19 19 18 18 16 14 14 15
39 39 39 39 39 39 39 39 39 38 36 35 35 35 35 35 34 34 34 33 33 31 30 30 29 28 28 26 26 25 24 23 22 20 20 20 20 20 19 18 16 15
39 39 39 39 39 39 38 39 38 38 37 36 35 35 36 36 34 34 35 35 34 33 32 31 31 30 30 29 28 27 26 25 25 23 21 20 20 20 20 21 20 18
40 40 40 40 39 38 38 38 37 37 37 37 36 35 36 37 35 34 36 35 35 35 34 33 33 32 31 31 30 29 27 27 26 25 23 22 21 21 20 21 22 22
40 40 40 40 40 39 38 37 37 36 37 37 37 36 36 37 37 36 36 36 35 35 35 35 35 34 33 32 31 30 29 28 27 27 25 24 23 23 22 21 21 22
40 40 40 40 40 39 38 37 37 37 37 37 38 37 36 37 38 37 37 37 36 36 36 36 35 35 34 34 32 31 30 29 28 28 27 26 25 25 24 23 22 22
40 40 40 40 40 40 38 37 37 37 37 37 38 38 37 37 39 39 38 38 37 37 36 36 36 35 34 35 34 32 31 31 30 29 29 28 27 26 26 25 24 24
38 39 39 39 39 39 39 38 38 37 37 38 38 39 37 37 38 39 39 38 38 37 37 36 36 36 36 35 35 34 33 32 32 31 30 31 30 28 27 27 26 26
37 38 38 38 39 40 40 39 39 38 37 38 39 39 38 36 36 38 39 38 38 37 37 36 36 37 38 38 37 36 35 33 33 32 31 31 31 30 29 29 28 28
37 38 38 39 39 40 40 39 38 38 38 38 39 40 39 36 35 37 38 38 38 38 38 37 37 37 39 40 39 39 37 35 33 33 33 32 30 30 30 30 30 29
37 38 39 40 39 39 40 39 38 38 37 38 39 40 40 38 36 36 38 38 37 37 38 39 39 38 39 40 41 40 39 37 34 33 33 33 32 31 31 30 30 29
38 38 39 40 40 39 40 39 39 38 38 37 39 40 40 40 38 36 37 38 37 37 38 39 39 40 40 39 40 41 40 39 36 33 32 33 33 33 32 31 30 30
39 39 39 40 40 40 40 39 39 39 38 37 37 39 40 40 39 36 36 38 39 38 37 38 38 40 41 40 39 40 40 40 38 35 32 31 32 33 33 32 31 31
40 40 39 39 40 40 39 40 40 39 38 36 35 37 40 41 41 39 36 37 39 39 37 37 38 39 40 40 39 38 39 39 39 36 33 31 30 30 31 33 33 32
41 40 40 39 39 39 39 40 40 39 39 37 35 36 38 40 40 39 37 36 38 39 38 37 37 38 39 39 38 37 37 38 39 37 33 31 31 30 30 31 32 32
41 40 40 39 39 39 39 40 41 40 39 38 35 34 36 38 39 39 39 38 36 37 38 38 37 37 38 39 38 37 37 38 39 38 35 33 32 31 30 30 30 31
41 40 39 39 39 40 39 39 40 40 40 39 37 35 35 37 39 38 38 39 38 36 36 37 37 38 38 38 37 38 38 38 39 39 37 36 34 32 30 28 28 29
40 41 40 40 39 39 39 38 39 40 40 40 39 36 34 35 37 37 37 38 39 38 36 35 35 36 38 38 37 37 38 39 40 38 37 36 36 35 34 32 30 28
39 41 41 40 40 39 38 37 37 37 38 39 39 37 35 33 35 37 36 36 38 38 37 36 34 33 35 36 37 38 39 40 40 39 37 37 37 37 37 36 36 35

ECMWFNIL_925_spd_096.txt.gz
Wind_Speed
39 38 36 36 36 36 34 30 29 31 32 32 31 29 29 28 27 26 24 23 21 19 20 21 19 17 15 14 15 13 12 12 13 15 16 15 14 12 12 13 10 9
40 39 37 37 37 37 37 34 30 29 31 33 32 30 29 28 28 27 25 25 23 20 20 21 20 19 17 16 16 15 14 13 12 14 16 16 16 15 14 14 13 12
40 39 38 38 39 39 38 37 33 30 29 31 33 32 30 29 28 27 26 25 24 22 21 21 21 20 19 18 17 16 16 15 14 13 14 16 17 17 17 16 14 13
40 40 40 40 40 40 39 38 35 32 29 30 32 32 30 29 27 27 26 26 26 24 23 23 22 22 20 20 19 18 17 17 15 14 14 14 15 17 18 17 15 14
42 41 40 40 40 41 40 39 37 34 32 31 31 32 31 29 27 26 26 27 27 26 25 25 25 24 22 22 22 21 19 18 17 16 16 16 15 16 17 18 16 15
41 41 39 38 38 39 40 40 39 38 36 34 33 32 32 30 28 28 28 28 28 28 27 27 27 26 25 24 24 24 23 21 20 19 19 18 17 17 18 19 19 17
41 41 40 38 37 37 39 40 40 39 38 37 35 35 34 32 31 30 29 29 30 30 29 29 30 30 28 27 27 27 26 25 24 22 21 21 19 19 19 19 19 19
42 41 40 39 37 37 37 38 39 40 40 38 37 37 36 35 34 32 32 31 31 32 32 31 31 31 31 30 30 29 28 27 27 26 25 23 21 21 21 19 19 20
41 40 40 39 38 37 37 37 38 39 39 39 38 38 37 37 36 34 34 34 33 34 34 33 32 32 32 33 33 32 30 29 28 28 28 27 25 23 22 21 20 21
40 40 40 39 39 38 38 38 38 37 38 38 39 38 38 38 37 36 35 35 35 35 35 35 34 33 33 34 33 33 32 31 29 29 28 28 28 27 25 24 22 22
40 40 39 40 40 40 40 39 39 37 37 38 38 38 38 38 38 37 37 36 37 37 37 37 36 35 34 34 34 34 34 33 31 30 29 28 28 28 27 26 25 25
40 40 40 40 41 41 41 40 39 38 37 37 38 38 38 38 38 38 38 38 39 38 38 38 38 37 36 35 35 35 34 34 33 32 31 30 28 28 28 27 27 27
40 40 40 40 41 41 41 40 39 39 39 38 38 38 38 38 39 39 39 39 40 40 39 39 38 38 37 36 36 35 35 35 34 34 33 32 31 30 28 28 27 27
39 39 40 40 40 41 40 39 39 39 40 39 38 38 38 38 39 40 40 39 40 41 41 40 39 39 38 38 37 36 35 35 35 34 34 34 34 33 31 29 28 27
37 37 38 39 39 39 40 40 39 39 39 39 39 39 39 39 39 39 39 39 39 40 40 40 39 40 40 39 38 37 37 36 36 36 35 35 34 34 33 32 31 30
37 36 37 37 38 39 39 40 39 39 39 39 39 40 40 39 39 38 39 39 39 39 39 39 40 40 41 41 40 39 38 38 37 37 36 35 34 34 33 33 33 32
37 37 36 37 38 39 39 40 40 39 38 39 39 40 40 39 39 38 39 39 40 39 39 39 40 41 42 42 42 41 40 39 37 37 36 36 35 34 33 34 34 33
37 38 37 38 38 39 39 40 39 39 39 38 39 39 40 40 39 39 40 40 40 40 40 40 41 42 42 42 43 43 42 40 38 37 36 36 35 35 35 35 34 33
39 38 38 38 39 39 39 39 39 40 39 39 39 39 40 40 40 40 40 40 40 40 40 41 42 43 43 43 43 44 44 42 40 38 37 36 35 35 35 35 35 34
39 39 39 39 39 39 39 39 39 40 40 39 38 38 39 40 41 41 41 41 41 41 41 42 43 44 44 44 44 44 44 44 42 39 37 36 36 36 35 35 35 35
39 39 38 39 39 39 39 39 39 39 39 39 38 38 39 40 41 41 42 42 42 42 41 42 43 45 46 45 45 45 44 44 43 40 37 36 36 35 35 36 36 35
37 38 38 38 39 39 39 39 39 39 39 39 38 37 38 39 40 41 42 42 42 41 41 41 43 45 46 46 46 45 44 44 44 41 37 35 35 35 35 36 36 36
36 37 38 38 38 38 39 39 39 40 39 39 38 37 37 38 40 40 41 41 42 41 41 42 43 44 45 46 46 45 44 43 43 42 39 37 37 37 36 36 37 37
37 38 38 38 39 39 39 39 39 39 39 39 38 37 37 37 38 38 39 40 41 42 42 42 42 43 44 45 46 46 44 43 42 41 40 39 39 38 38 37 37 37
39 41 40 40 40 40 40 39 39 39 39 39 39 38 37 36 36 36 37 39 41 42 43 42 42 42 43 44 45 45 45 44 42 39 38 38 38 38 38 38 39 39
39 42 43 42 41 41 40 39 40 39 38 39 39 38 36 35 34 35 36 38 39 40 41 42 42 41 41 43 44 44 44 44 41 38 38 38 38 38 37 37 38 39

ECMWFNIL_925_spd_102.txt.gz
Wind_Speed
36 36 35 34 32 30 29 28 27 26 26 25 24 23 21 19 19 19 20 19 19 18 16 15 13 12 12 11 11 12 13 12 11 12 13 13 12 10 9 7 6 5
37 37 36 35 33 32 30 29 29 28 27 26 24 22 20 19 18 19 19 20 20 19 17 16 15 14 13 13 13 13 13 13 12 11 12 13 13 13 12 10 8 6
37 37 37 36 36 34 33 31 30 30 28 26 25 24 22 20 20 19 19 20 20 19 18 17 16 15 14 14 14 14 13 13 12 11 11 12 12 13 13 12 10 9
37 37 38 38 37 36 34 32 31 31 30 29 27 26 23 22 21 21 20 20 20 19 19 17 17 16 15 15 15 15 14 13 12 11 12 11 11 11 12 13 13 11
38 38 38 37 37 36 35 33 32 32 31 31 29 27 25 23 23 23 22 21 20 20 20 19 17 17 16 15 15 16 16 14 12 12 12 12 10 10 11 12 14 14
38 38 38 37 37 36 35 35 34 32 32 31 30 29 27 25 24 23 23 23 22 21 20 20 19 18 18 17 16 17 17 16 14 13 13 13 11 11 11 11 12 13
37 38 37 37 36 36 36 36 35 33 32 31 30 29 28 27 25 24 24 23 23 22 22 21 21 20 19 19 17 17 18 17 16 15 15 14 13 12 11 11 10 11
37 37 37 37 36 36 36 36 36 35 34 32 30 30 29 29 27 26 24 24 23 24 24 23 22 21 20 20 19 18 18 18 17 16 16 16 15 14 13 12 12 12
36 35 36 36 36 36 37 37 37 37 36 34 33 31 30 29 29 27 25 24 24 24 24 24 23 22 21 21 21 20 19 19 19 18 18 17 17 16 15 14 14 14
35 34 34 35 36 36 36 37 36 36 36 36 35 33 31 30 30 29 27 25 25 24 25 25 25 24 22 22 21 21 21 21 20 20 20 19 19 18 18 17 17 17
34 34 34 34 35 36 36 36 36 35 36 36 36 35 34 32 31 31 30 28 27 26 26 26 26 25 24 23 22 22 21 22 22 22 22 22 21 20 20 20 19 19
33 34 34 34 35 35 35 35 35 35 35 36 36 36 36 34 33 32 32 31 30 29 28 27 27 26 26 25 24 23 23 23 23 23 24 24 24 23 23 22 22 21
34 35 35 35 35 35 35 35 35 35 35 35 35 36 36 36 35 34 34 33 32 31 30 29 28 28 28 27 26 25 25 25 25 25 25 25 25 25 24 24 24 23
35 35 36 35 35 35 35 35 35 35 35 35 34 34 35 35 36 36 35 34 33 33 32 31 30 30 30 29 29 27 26 26 26 27 27 27 27 27 26 25 25 25
36 35 35 35 34 34 34 34 34 34 34 34 34 35 35 35 34 34 35 35 35 34 33 32 32 32 32 32 31 30 29 28 28 28 28 28 28 28 28 27 26 25
35 34 34 33 33 33 34 34 34 33 33 33 34 35 35 34 34 33 33 34 34 34 34 33 34 35 35 35 34 32 31 30 29 29 29 29 29 29 29 28 28 27
35 34 34 33 34 34 34 33 33 33 33 33 34 34 34 34 34 33 34 34 34 34 34 34 35 36 36 36 35 34 33 32 31 31 30 30 30 29 30 30 29 28
35 34 34 34 35 34 34 34 34 33 33 33 33 34 34 33 34 34 34 34 34 34 34 35 36 37 37 37 36 35 34 33 33 32 31 31 31 31 31 30 29 29
35 35 35 35 35 36 36 35 34 34 34 34 34 34 33 33 35 35 35 34 34 34 35 36 37 37 37 37 36 36 35 34 34 33 33 32 32 32 32 31 30 29
36 35 36 36 36 36 35 34 34 34 34 34 34 33 33 34 35 35 35 36 35 36 36 37 37 38 37 37 37 36 36 35 34 34 34 34 34 33 33 32 31 30
36 36 36 37 36 36 35 34 35 35 35 34 34 34 34 35 35 35 36 37 37 37 37 37 39 39 38 37 37 37 36 35 35 35 35 35 35 34 34 33 33 32
35 35 36 36 35 34 34 34 34 35 36 35 34 34 34 34 34 35 36 37 37 37 37 38 40 40 39 39 38 37 36 35 35 36 36 36 36 35 34 34 34 33
30 31 32 33 32 31 32 33 34 35 36 35 33 33 33 34 35 35 36 37 37 37 37 39 40 40 40 40 39 38 36 36 36 37 36 36 37 36 35 35 35 34
23 28 29 30 30 30 31 32 32 33 35 35 34 35 35 36 36 35 35 36 36 37 38 39 40 40 40 41 40 39 37 37 37 37 36 37 37 36 35 35 35 35
13 21 27 29 29 30 31 32 32 34 34 34 35 35 36 36 35 33 33 35 36 37 38 39 40 40 40 41 41 39 38 38 37 36 36 36 36 36 35 35 35 36
7 12 19 25 29 31 33 34 35 36 35 34 34 34 34 34 33 33 33 35 36 37 38 39 40 40 39 40 40 39 39 38 37 36 36 36 35 35 34 34 35 36

ECMWFNIL_925_spd_105.txt.gz
Wind_Speed
34 34 32 30 29 28 27 25 22 21 20 19 17 17 16 15 15 14 15 15 14 13 12 11 10 9 8 8 8 8 8 9 9 9 9 10 11 9 8 7 6 5
35 35 34 32 31 29 28 27 25 23 22 20 18 18 18 17 15 15 15 15 15 14 13 13 11 10 10 9 9 9 9 9 9 10 9 9 11 11 9 8 7 7
36 36 35 34 33 31 30 29 27 25 23 22 21 19 18 18 17 16 16 15 15 15 15 14 13 12 11 11 10 10 10 10 10 10 9 9 10 11 10 9 9 9
37 37 36 35 34 33 31 30 29 27 25 24 23 22 20 19 18 17 16 16 16 16 16 15 15 14 12 12 11 11 12 12 11 10 9 9 9 9 9 10 9 9
38 38 38 36 35 34 33 32 31 29 28 27 25 24 23 21 20 19 18 17 16 16 16 16 16 15 14 13 13 13 13 12 12 12 10 9 10 9 9 9 10 10
39 39 38 38 36 35 34 33 33 32 30 29 27 26 25 24 23 21 20 19 17 17 17 16 17 16 15 15 15 14 14 13 13 14 12 10 10 10 10 10 10 10
39 39 38 38 36 36 36 35 34 33 32 30 29 27 27 26 25 24 23 21 19 18 18 17 17 17 17 17 16 16 15 14 14 15 14 12 12 11 11 11 10 10
37 37 38 38 36 35 36 36 35 34 33 31 30 28 27 27 27 26 25 23 22 20 19 19 18 18 17 17 17 17 16 15 14 16 16 15 14 13 13 12 12 11
35 34 35 36 34 33 34 35 34 35 34 33 31 30 28 28 27 26 25 24 23 22 20 20 20 19 19 18 18 18 17 17 16 16 17 17 16 15 14 13 13 13
33 32 31 32 32 31 32 32 30 32 35 34 32 30 30 29 28 27 26 25 24 23 22 21 20 20 20 20 19 18 18 18 18 18 18 18 17 16 15 14 14 14
31 29 28 30 30 29 31 31 28 28 32 34 33 31 30 30 30 28 27 26 26 25 25 24 22 21 21 21 21 21 20 19 19 19 19 18 18 18 17 16 16 15
29 29 29 30 31 30 29 29 28 27 30 33 34 32 30 30 31 31 30 29 28 27 27 26 25 23 23 23 23 22 22 21 20 20 20 19 19 19 18 18 17 17
29 31 31 29 31 32 30 28 28 28 28 32 33 33 32 29 29 32 33 32 31 29 28 28 28 27 25 24 24 24 24 23 22 21 20 20 20 19 18 18 17 17
31 32 32 30 30 33 33 30 28 27 28 30 32 33 33 30 28 30 32 33 32 31 31 29 29 29 28 27 26 26 25 25 24 23 21 21 21 21 20 18 18 18
33 30 29 30 29 32 35 33 29 28 28 29 31 33 31 30 29 28 29 31 32 32 32 31 30 31 31 30 29 28 27 25 25 24 23 21 21 21 20 20 20 19
35 31 28 29 31 32 35 35 31 28 27 29 32 32 29 30 32 30 28 29 31 33 33 32 33 34 34 33 31 30 29 26 26 26 25 23 22 22 21 21 21 20
34 32 30 31 33 33 32 33 31 28 27 30 32 32 31 32 33 33 31 29 28 30 32 33 36 37 38 37 35 33 31 28 27 27 27 25 23 22 22 21 21 21
31 30 31 32 33 32 32 32 30 27 27 30 31 32 32 33 31 32 33 31 28 28 30 33 37 40 39 38 37 36 33 31 28 25 25 25 24 23 23 22 21 21
30 28 30 31 32 33 32 31 29 28 29 29 29 29 30 32 32 32 33 32 29 29 30 31 34 38 40 39 39 37 35 33 30 25 23 23 24 23 23 23 23 22
29 28 29 29 31 33 31 29 29 30 29 27 26 25 27 32 33 30 30 33 32 32 33 32 34 37 39 39 38 38 36 35 32 28 24 23 24 25 24 24 24 24
27 28 29 29 29 29 29 28 28 29 28 26 24 24 27 31 33 30 30 33 34 33 33 33 35 38 38 38 38 37 36 35 34 31 26 24 25 26 27 27 27 26
23 25 26 27 26 25 26 27 26 27 29 27 24 23 24 27 29 29 29 31 32 32 31 31 34 36 38 38 38 37 35 34 34 34 30 26 24 25 28 30 30 29
16 21 23 23 23 23 24 25 25 27 27 26 25 24 23 23 25 27 28 29 30 30 31 32 33 35 37 38 37 36 35 34 35 36 35 31 27 26 27 29 30 31
14 16 21 22 21 22 24 24 24 25 25 25 25 25 25 24 24 25 26 27 28 29 30 32 33 34 37 38 37 36 35 35 36 36 36 35 32 29 28 28 30 32
16 15 18 22 23 23 24 24 23 23 24 24 25 26 25 25 24 24 24 25 26 28 31 32 32 32 34 36 37 36 35 36 37 36 34 34 33 31 29 30 31 34
16 16 17 21 24 24 24 24 24 24 24 24 25 25 25 25 25 24 24 25 25 26 28 31 31 30 31 34 36 36 36 36 37 36 34 33 32 31 29 29 31 34

ECMWFNIL_925_spd_108.txt.gz
Wind_Speed
19 18 17 16 15 13 13 12 12 11 11 10 10 9 9 8 8 8 9 8 9 9 8 8 9 8 7 7 7 6 5 6 7 7 7 8 8 8 7 6 5 5
21 20 18 17 16 15 14 13 12 12 12 11 10 9 9 9 9 9 9 9 9 9 9 9 9 9 8 7 7 7 6 7 7 7 7 8 8 8 9 8 7 6
22 21 20 19 18 17 15 14 13 13 13 12 12 11 10 10 10 10 10 10 9 10 10 10 10 10 9 8 8 7 7 7 7 7 7 8 8 9 9 9 8 7
23 22 22 21 19 18 16 15 15 14 14 13 13 13 12 11 11 11 11 11 10 10 10 11 11 11 10 10 9 9 8 8 8 7 7 8 8 9 9 9 9 8
24 23 22 21 20 18 17 17 16 16 15 15 14 14 13 13 12 12 12 12 11 11 11 11 12 12 11 11 10 10 9 9 9 9 8 8 8 8 9 9 9 9
23 24 23 21 20 19 18 18 18 17 16 16 15 15 14 14 14 14 13 13 13 12 12 12 12 12 12 12 12 11 10 10 9 10 10 9 9 9 9 8 9 9
23 24 24 23 21 21 20 19 18 17 17 16 16 16 15 15 15 15 15 14 13 13 13 12 12 13 13 12 12 12 12 11 10 10 11 11 10 10 9 9 9 9
23 23 24 24 23 22 22 20 19 18 18 17 17 17 17 16 16 16 16 16 15 14 13 13 13 13 13 13 13 13 13 12 11 11 12 12 12 11 11 10 10 10
23 22 23 24 24 23 23 22 21 19 19 19 19 18 17 17 17 17 17 17 17 16 15 14 14 15 14 14 14 14 14 13 12 12 13 13 13 13 12 12 11 11
22 22 23 23 24 24 23 23 21 20 20 20 20 19 18 18 18 18 18 18 18 18 17 16 16 16 16 16 15 15 15 15 14 13 13 13 14 14 13 13 13 13
22 22 23 24 24 24 24 23 22 21 20 20 21 21 20 18 18 18 19 19 20 19 19 19 18 17 17 17 17 16 15 15 14 14 14 14 14 14 14 14 14 14
23 23 23 24 24 24 23 23 23 22 21 21 21 21 21 20 18 19 19 20 21 20 20 20 19 19 18 18 17 17 16 16 15 15 15 14 14 15 15 15 15 15
23 24 24 23 23 23 23 23 23 23 23 21 21 21 22 22 20 19 20 21 21 21 21 21 20 20 20 19 19 18 16 16 16 16 15 15 15 15 15 16 16 16
23 23 23 23 23 22 22 23 23 23 23 22 21 21 22 23 22 21 20 20 21 22 22 21 21 21 21 21 20 20 18 17 17 17 16 15 15 15 15 16 16 17
22 21 21 22 22 22 22 22 22 22 22 22 22 22 22 22 23 23 22 21 21 22 22 22 22 22 23 23 23 21 21 20 18 18 17 17 16 16 16 16 16 17
19 19 20 21 22 22 22 22 22 22 21 22 22 22 22 22 23 24 24 23 22 22 23 23 23 23 25 27 27 24 22 21 20 19 18 18 17 17 17 17 17 17
17 18 19 20 21 22 22 22 22 22 21 22 22 22 22 22 23 24 25 25 24 24 24 24 24 25 27 30 32 30 25 21 20 20 19 19 19 19 18 18 18 18
16 17 18 19 21 21 22 22 22 22 22 22 23 23 23 23 23 24 25 25 25 25 25 25 25 27 29 32 33 34 32 26 21 20 19 19 20 20 20 20 19 18
17 17 19 20 20 21 22 21 21 23 24 24 24 24 23 23 25 25 25 25 26 26 26 26 26 27 30 34 34 35 35 32 26 22 21 21 20 21 21 21 20 19
19 20 21 21 21 21 22 22 23 24 25 25 25 24 24 25 26 26 26 26 26 27 27 27 27 27 29 33 35 35 35 34 31 25 23 23 22 22 22 21 21 20
15 20 22 21 21 21 22 24 25 25 26 26 25 24 25 25 26 26 27 27 27 27 27 27 28 28 30 31 33 34 33 34 32 28 25 25 25 24 24 23 22 21
9 13 17 21 22 22 23 25 26 26 26 26 25 25 24 25 25 26 26 27 28 27 27 27 28 29 31 33 33 33 31 32 33 30 26 25 25 25 25 24 23 23
12 12 13 16 21 23 25 25 26 27 27 26 26 26 25 25 25 25 26 27 27 27 28 28 27 28 30 32 33 33 31 32 33 31 27 27 26 25 24 24 24 25
13 13 14 14 16 21 25 27 27 27 27 26 25 26 26 26 25 24 24 25 27 28 29 28 27 27 29 31 32 33 32 33 32 28 26 26 26 26 25 25 25 26
12 14 14 15 16 17 20 23 26 26 26 25 26 25 25 25 25 25 25 24 25 26 28 29 27 26 28 31 32 33 33 34 31 26 24 25 25 25 26 26 26 27
11 13 14 15 17 18 19 20 22 23 23 23 23 24 24 24 24 25 25 24 25 25 26 28 28 26 28 31 33 33 34 35 32 26 24 24 24 24 25 25 26 26

ECMWFNIL_925_spd_111.txt.gz
Wind_Speed
17 16 16 15 14 13 13 13 13 12 11 11 11 10 10 9 9 10 10 9 10 9 9 9 8 7 7 6 6 6 5 7 8 8 8 8 8 8 7 6 5 4
19 17 16 16 15 14 14 14 14 13 13 12 11 11 11 11 10 10 10 10 10 10 10 10 9 9 8 7 7 7 6 7 8 8 9 8 8 8 8 8 7 6
19 19 18 17 17 16 15 15 14 14 14 13 12 12 12 12 12 11 11 11 10 10 10 10 10 10 9 8 8 8 7 7 8 8 8 9 9 8 9 9 8 8
20 20 20 19 18 17 16 16 15 15 14 14 14 13 12 12 13 13 12 12 11 11 11 11 11 11 10 9 9 8 8 8 8 7 7 8 9 9 9 9 8 8
22 21 20 19 18 18 17 17 17 16 15 15 15 15 14 13 14 14 13 13 12 12 12 12 11 11 11 11 10 9 9 9 9 8 8 8 9 9 9 9 9 9
22 21 21 20 19 19 19 18 18 17 17 16 16 16 15 15 15 15 15 14 14 13 13 12 12 12 12 12 11 10 10 10 9 10 10 9 9 10 9 9 10 9
22 22 22 21 20 20 20 19 18 18 17 17 17 17 16 16 16 16 16 15 15 14 14 13 13 13 13 13 12 11 11 10 9 10 11 11 10 10 10 9 9 10
22 22 22 21 20 20 21 20 19 19 18 18 17 18 18 17 18 17 17 16 15 15 14 14 14 14 14 13 13 13 12 11 11 11 12 12 11 11 11 10 10 10
22 21 22 22 22 21 21 21 21 20 19 19 19 19 19 19 18 18 18 18 17 16 16 15 15 15 15 15 14 14 14 13 12 12 13 13 12 13 12 12 11 12
22 22 22 22 22 22 22 22 22 21 20 21 20 20 19 19 19 19 19 19 19 18 18 18 17 17 16 16 15 15 15 14 14 13 14 14 14 14 13 13 13 13
23 23 23 23 23 22 22 22 22 22 22 21 21 21 20 20 20 20 19 20 20 20 20 20 19 19 18 17 17 16 16 15 15 14 14 14 14 14 14 14 14 14
22 23 23 24 24 23 23 23 22 22 22 22 22 22 22 21 21 21 21 21 21 21 21 21 21 20 20 19 18 17 17 16 16 16 15 15 15 15 15 16 16 16
20 21 22 23 23 23 23 23 23 23 23 22 22 23 23 23 22 22 22 22 22 22 22 22 22 22 21 21 20 19 18 18 17 17 17 16 16 16 17 17 17 17
20 20 20 21 22 23 23 23 23 23 23 22 22 23 24 24 24 23 23 23 23 23 23 23 23 23 23 22 22 21 20 19 19 19 18 17 17 17 17 17 17 18
18 18 18 18 20 21 22 23 23 23 23 23 23 23 23 23 24 24 24 23 23 24 24 24 24 24 24 24 24 23 22 21 20 20 19 19 18 18 18 17 18 18
14 16 17 17 18 19 20 21 22 23 23 24 24 24 24 24 24 24 24 24 24 24 24 24 25 25 25 27 27 25 24 23 22 21 21 20 19 19 19 19 19 19
13 15 16 17 18 18 19 20 21 22 23 23 24 25 24 24 24 24 25 25 25 25 25 25 25 25 27 29 30 29 27 24 23 22 21 21 21 20 20 19 19 19
18 15 15 17 18 18 19 20 20 20 21 22 24 25 25 25 25 25 26 26 26 26 26 26 26 27 28 30 32 33 31 27 24 23 23 22 22 22 21 21 20 20
22 20 16 16 17 19 19 20 20 20 21 22 23 24 24 25 26 26 26 26 26 27 27 27 26 27 29 31 32 34 35 33 27 24 24 24 23 23 23 22 22 21
20 21 19 17 17 18 18 19 20 20 21 21 22 22 23 24 25 26 26 27 27 27 27 27 27 27 29 32 34 34 36 37 33 27 25 25 25 25 25 24 24 23
17 19 19 19 18 19 18 19 20 21 21 21 20 21 22 23 25 25 25 25 26 27 27 28 27 27 27 30 34 36 36 37 36 31 27 27 27 26 26 25 25 24
16 17 19 19 17 17 17 17 18 18 19 19 19 19 19 20 22 23 24 25 26 26 26 27 28 28 29 30 31 33 35 36 37 35 30 28 28 28 28 27 26 25
16 17 20 20 17 14 13 13 14 16 16 15 14 15 18 19 19 18 19 21 24 25 25 26 26 27 29 30 30 31 33 35 37 37 32 29 28 28 28 28 27 27
17 17 18 20 20 17 11 11 14 16 16 15 13 14 19 23 23 22 21 21 23 23 23 24 25 25 26 29 30 31 32 34 35 34 31 28 27 27 27 27 28 29
15 15 16 16 18 17 13 13 16 15 12 11 11 13 19 24 25 26 26 25 23 21 21 23 24 23 23 25 29 31 32 34 34 29 26 26 25 25 26 27 28 29
14 14 15 15 15 14 12 13 14 13 12 14 14 13 16 20 21 22 25 28 28 24 22 22 22 21 21 22 24 28 31 33 33 28 24 25 24 24 25 26 27 28

ECMWFNIL_925_spd_114.txt.gz
Wind_Speed
18 18 17 16 15 15 15 15 15 14 14 14 14 15 15 15 15 15 15 14 13 12 12 11 10 10 9 8 8 9 9 10 10 10 10 9 9 8 7 6 5 5
19 18 18 17 17 16 16 15 15 15 14 14 13 14 14 13 14 15 15 14 14 13 12 11 10 10 9 9 9 9 9 10 10 10 10 10 10 9 8 8 7 6
20 19 19 18 17 17 16 16 16 15 14 14 13 14 14 14 14 15 15 15 14 13 13 12 11 11 10 9 10 10 9 10 10 9 10 11 10 10 10 9 8 8
21 20 20 19 18 17 17 17 17 17 15 15 15 14 14 15 15 16 15 15 14 14 13 12 11 11 11 11 10 10 10 9 10 9 9 10 10 10 10 10 9 9
22 22 21 20 19 19 19 18 17 17 17 16 16 15 15 15 16 16 16 16 15 14 13 12 12 13 12 12 11 10 10 10 10 10 10 10 11 10 10 10 10 10
22 22 22 21 20 20 20 20 19 18 18 18 17 17 16 16 16 16 16 16 15 14 14 14 14 13 13 13 12 11 10 10 11 11 11 11 11 11 10 11 11 11
22 23 22 21 21 21 21 21 20 20 19 19 19 19 18 18 18 17 17 17 16 15 15 15 15 14 14 13 13 13 12 10 10 12 13 12 11 11 11 11 11 12
22 22 22 22 21 21 22 21 21 22 21 20 19 20 20 20 19 19 18 18 17 16 16 16 17 16 15 15 15 14 12 11 11 13 14 13 12 12 11 11 10 11
22 21 22 22 22 22 22 22 22 22 22 21 20 20 21 21 21 20 20 19 18 18 17 16 17 17 16 16 15 15 14 12 12 13 14 13 12 12 12 11 11 11
21 22 22 22 22 22 23 23 22 22 23 23 21 21 21 22 22 21 21 22 20 19 19 18 17 17 17 16 16 16 15 14 13 13 13 14 14 13 12 12 12 12
20 21 21 23 23 22 23 24 23 22 23 24 23 21 21 22 23 22 21 23 23 20 20 21 19 18 17 17 16 16 16 15 14 14 13 13 14 13 13 14 14 14
24 22 21 22 23 23 22 23 24 23 22 23 24 23 21 21 23 24 22 23 24 23 21 21 22 20 18 18 16 16 16 15 14 14 14 14 14 14 14 14 15 15
20 21 23 23 21 23 24 22 22 24 23 23 23 23 23 21 21 23 23 22 23 23 22 21 22 22 20 19 18 16 16 16 16 15 15 15 14 14 14 14 15 16
13 16 22 24 23 22 25 25 23 23 23 24 24 24 23 22 21 22 23 22 21 22 22 21 22 22 21 21 20 19 17 17 17 16 16 16 16 15 15 15 16 16
10 15 18 20 26 27 22 21 23 23 24 23 23 24 23 23 22 21 22 23 22 22 21 20 21 22 22 22 22 21 20 19 19 19 18 17 17 16 16 16 16 16
7 11 15 18 24 27 23 18 19 20 22 24 23 23 22 23 24 23 21 22 23 24 23 21 21 21 22 23 23 23 23 21 20 20 20 19 18 17 17 17 16 17
5 7 13 18 20 20 18 17 21 27 26 21 21 23 23 22 23 23 22 21 22 24 24 23 21 20 22 24 25 25 24 23 22 21 20 21 20 19 18 18 17 17
12 10 11 16 18 17 14 13 19 27 30 29 24 18 18 20 21 23 22 21 20 19 21 23 23 22 22 23 26 27 26 24 23 21 20 20 20 20 20 19 19 19
17 16 17 20 18 17 17 13 12 17 19 22 29 29 22 18 16 18 20 21 21 20 18 20 22 23 24 24 25 27 28 27 25 22 21 21 21 21 21 20 20 21
19 19 19 20 18 16 15 13 10 10 10 13 16 18 19 20 19 16 14 16 18 21 21 19 18 20 24 27 27 27 28 30 29 25 22 22 22 22 22 21 21 22
19 19 18 17 16 15 13 10 8 8 7 8 9 9 12 16 18 18 16 15 14 16 19 20 19 16 17 24 30 31 29 29 31 30 26 23 23 23 22 23 23 23
16 16 16 16 16 15 13 11 9 8 6 5 6 6 7 10 15 18 18 17 18 17 17 20 22 20 17 18 23 29 31 31 32 33 31 28 26 26 24 23 23 24
14 13 14 15 15 16 15 13 12 11 10 8 6 6 6 8 12 17 18 18 19 19 19 21 24 25 24 23 21 23 29 33 33 34 34 33 31 30 29 27 25 24
13 12 13 13 14 15 15 14 13 13 12 10 8 7 6 7 10 14 17 19 21 22 22 22 23 24 25 26 25 23 24 31 35 35 35 35 34 33 32 31 30 29
14 13 12 12 12 13 13 12 12 12 12 12 12 11 10 9 10 12 13 15 18 20 22 23 25 24 23 24 27 25 23 27 32 34 34 34 34 33 32 32 32 33
13 13 13 12 10 10 12 12 11 11 12 13 14 14 13 13 14 15 14 14 14 14 17 20 22 23 23 23 25 27 25 25 28 32 33 32 33 32 31 31 32 33

ECMWFNIL_925_spd_117.txt.gz
Wind_Speed
19 17 16 16 17 19 18 17 17 16 17 17 16 16 15 14 14 14 14 14 14 13 12 12 12 11 12 13 12 12 13 11 10 11 10 10 11 10 7 3 3 4
20 19 17 15 16 18 19 18 17 16 15 15 16 16 15 14 14 14 14 15 15 14 13 13 13 12 12 13 12 13 14 12 11 11 10 9 10 11 8 5 3 4
21 20 20 18 16 17 18 18 17 16 15 15 15 15 15 15 16 15 14 14 15 15 14 13 13 13 13 12 12 13 13 14 14 12 11 10 10 11 10 8 6 6
22 21 21 20 19 17 17 17 17 16 16 15 14 14 15 15 15 16 16 14 14 14 14 14 13 13 13 12 12 12 12 12 13 12 11 11 10 10 11 10 8 8
24 22 21 21 20 18 17 17 17 17 16 16 14 14 14 14 14 15 16 16 14 13 14 14 13 12 13 12 12 12 11 10 11 11 10 11 10 10 11 11 9 8
24 23 22 21 20 19 18 18 18 17 17 17 16 15 15 15 16 16 17 16 14 14 15 14 13 12 12 12 12 12 12 10 10 11 10 11 11 10 10 10 10 9
25 24 23 22 20 20 19 19 18 18 17 17 17 17 16 15 17 18 18 18 16 16 16 14 14 13 13 13 13 13 13 11 10 11 12 12 12 11 11 11 10 11
24 24 24 23 22 20 19 19 19 18 17 16 17 17 17 16 16 18 18 18 18 17 17 16 16 15 13 14 14 14 14 13 12 12 13 13 14 13 13 13 11 11
23 24 24 24 23 22 20 18 19 19 18 18 17 18 19 18 18 18 17 17 17 17 17 17 18 17 15 14 15 15 14 14 13 13 13 14 15 14 14 14 12 10
19 21 24 24 23 23 22 19 18 18 19 20 19 18 19 20 20 20 19 18 18 17 18 18 18 19 18 17 16 15 15 15 14 14 15 15 15 15 13 14 15 12
13 14 17 21 21 20 20 20 19 19 19 20 21 20 19 19 21 22 21 20 20 19 19 19 18 19 19 19 18 16 15 15 15 15 15 15 15 16 15 14 15 15
11 10 11 14 15 14 13 12 12 16 19 21 23 22 20 20 21 23 23 22 22 21 21 20 19 18 19 19 19 18 17 16 16 15 15 16 16 15 14 14 15 15
8 8 7 8 10 9 9 7 4 5 9 15 22 26 24 22 21 23 24 23 23 23 23 22 21 20 19 20 19 18 19 19 19 18 17 17 17 16 15 15 15 16
3 3 3 6 8 8 9 10 7 4 4 6 12 22 24 24 24 23 25 26 25 24 25 24 23 23 22 22 22 20 20 20 21 20 20 19 19 19 18 17 17 17
4 2 1 3 7 9 11 12 11 9 5 5 5 12 17 19 22 22 24 28 28 25 26 26 26 26 25 25 25 25 24 23 22 22 22 21 20 20 20 20 19 19
12 8 5 2 2 5 8 11 13 14 12 7 5 8 12 13 16 17 17 24 30 29 27 28 28 27 27 26 27 27 27 26 25 23 23 23 23 21 21 21 21 20
17 15 12 8 5 2 1 4 10 14 17 15 10 10 13 13 14 16 15 17 26 32 31 29 30 30 28 28 28 28 29 29 29 27 25 24 25 24 23 23 22 22
16 17 17 16 12 8 5 3 2 7 13 18 17 15 16 16 16 18 19 16 18 27 34 33 32 31 30 29 29 28 29 30 31 30 28 27 26 26 26 25 24 23
14 15 16 16 15 13 10 7 5 4 6 9 12 13 15 18 19 21 23 21 16 17 25 30 33 33 31 30 29 29 30 31 31 32 31 30 28 27 28 28 27 27
13 14 14 12 11 10 10 10 8 6 6 6 6 8 12 17 20 21 23 24 20 14 13 17 23 28 31 32 31 30 30 32 33 33 33 33 31 30 29 29 29 29
14 14 13 10 8 6 6 7 9 9 8 7 6 6 9 12 15 18 21 22 21 18 15 13 14 18 24 29 33 33 33 33 35 35 33 33 33 32 31 30 30 30
14 15 15 12 9 7 7 7 7 9 9 8 7 6 7 8 10 13 17 20 20 19 19 19 17 16 17 20 25 29 31 33 36 37 35 33 33 34 33 32 31 31
13 14 14 13 13 11 10 10 9 9 9 8 8 8 7 7 7 9 12 15 17 18 19 21 22 21 19 18 19 21 23 26 31 35 37 36 35 35 35 35 33 33
13 14 12 11 13 13 12 11 11 10 9 9 11 12 10 9 8 9 9 10 12 14 16 19 22 23 23 22 22 21 21 22 24 28 33 36 37 36 36 36 36 35
13 14 13 8 8 11 13 13 14 14 13 12 14 15 13 11 11 11 11 10 10 12 14 17 20 22 23 24 24 24 23 23 23 25 28 32 35 36 36 36 37 38
12 14 14 10 6 7 9 10 12 13 13 13 13 14 13 12 12 12 13 14 13 13 14 15 17 20 22 23 24 25 25 25 25 25 27 29 30 32 33 34 35 36

ECMWFNIL_925_spd_123.txt.gz
Wind_Speed
21 20 20 19 18 18 17 18 19 18 17 17 16 15 15 14 13 13 13 12 11 11 13 13 11 10 10 11 11 10 10 11 12 12 11 10 10 11 11 9 7 6
21 20 20 20 19 19 19 19 19 19 19 18 17 15 15 15 14 14 14 13 12 12 13 14 12 11 11 12 13 12 11 12 12 11 10 10 10 11 12 12 10 9
22 21 21 21 20 20 20 20 19 20 19 19 18 16 15 15 15 15 14 14 14 13 14 14 14 12 12 13 14 14 13 13 13 11 11 11 10 10 11 11 12 12
25 23 22 21 20 19 20 20 20 20 20 20 19 17 17 16 16 16 15 15 15 14 15 15 15 13 12 13 13 14 14 14 14 13 12 12 11 10 10 9 11 12
27 26 24 22 19 19 20 20 20 21 21 21 19 18 18 17 17 16 16 16 15 15 16 16 16 15 13 13 14 14 14 15 14 13 13 14 13 12 11 10 11 11
27 27 26 24 20 18 19 21 21 21 21 21 20 19 18 18 18 17 17 17 16 15 16 17 17 17 15 14 14 15 15 15 15 14 14 15 15 15 14 13 12 12
27 27 27 26 22 19 19 20 20 21 22 22 21 20 19 19 19 19 18 18 17 17 17 17 18 18 17 16 15 16 16 16 15 15 16 17 17 17 16 15 14 13
26 26 27 26 24 21 20 20 20 20 21 21 22 21 20 20 19 19 19 19 19 19 18 18 18 18 18 17 16 16 16 16 17 16 16 17 17 17 17 17 16 15
25 25 25 26 25 24 22 21 21 20 20 21 22 21 21 21 20 20 20 20 21 21 20 20 19 19 18 18 18 17 16 17 17 17 17 17 17 17 17 17 17 17
25 25 25 26 26 25 25 23 22 21 21 21 21 21 22 22 22 21 21 22 22 22 22 21 21 21 20 19 19 18 18 18 17 18 18 18 18 17 17 17 17 18
25 26 26 27 27 27 26 25 24 23 23 23 22 22 23 23 24 23 23 23 23 23 23 23 23 23 22 21 21 20 20 19 19 19 19 19 19 19 18 17 18 19
26 26 27 28 29 28 27 26 25 25 25 24 24 24 24 24 25 26 26 26 26 25 25 25 24 24 24 24 23 22 22 22 21 20 20 20 20 20 19 19 19 19
26 27 28 28 28 28 27 26 25 25 25 25 25 25 25 25 26 27 27 27 27 27 27 26 25 25 25 24 24 24 24 24 24 23 22 22 21 21 21 21 20 19
24 25 26 25 25 25 25 25 24 24 24 24 25 25 25 26 26 28 28 28 28 28 28 28 27 27 26 26 25 24 25 25 25 25 25 24 23 22 22 21 21 21
19 20 20 19 17 16 16 17 19 21 21 21 21 22 24 25 27 28 29 29 29 29 29 29 29 29 28 27 26 25 25 26 26 26 26 25 25 24 23 23 22 22
13 14 14 14 13 12 11 12 15 19 21 21 19 18 18 20 24 27 29 30 30 29 29 30 31 31 31 30 29 27 27 27 27 27 27 26 26 26 25 25 24 23
8 9 9 9 9 12 16 17 17 17 19 21 22 19 17 15 18 23 27 29 30 29 29 30 31 32 32 31 31 30 29 29 29 29 28 28 27 27 27 26 26 25
6 6 5 5 5 9 12 14 13 11 13 18 22 21 19 15 13 17 21 24 25 25 25 26 28 30 31 31 32 32 31 31 31 31 30 29 29 29 28 28 27 27
9 9 9 8 6 4 5 7 9 9 10 15 18 19 18 16 14 14 16 19 20 19 19 19 20 22 25 27 29 31 31 31 32 32 31 31 30 30 29 29 28 28
9 10 10 10 8 7 6 5 6 7 8 9 11 13 12 12 12 12 11 13 15 16 16 16 15 15 16 18 21 24 27 29 31 31 32 32 32 32 31 30 29 29
10 10 10 8 7 7 9 9 7 5 6 6 4 3 3 3 5 7 9 10 10 11 13 14 14 14 13 13 14 16 19 23 27 29 30 32 32 33 33 32 32 30
10 11 13 12 10 9 10 11 10 6 2 2 3 2 2 2 4 4 5 7 8 7 6 7 9 11 12 12 11 12 13 15 18 21 25 28 31 32 33 33 32 31
10 9 11 13 14 14 14 14 11 8 5 2 2 2 1 1 3 5 5 4 6 6 5 3 3 4 6 7 8 9 10 11 12 13 16 19 23 27 30 31 32 31
13 10 9 10 11 12 11 10 8 6 6 7 6 7 7 6 6 6 5 5 5 6 6 6 6 5 4 5 6 7 8 9 10 11 12 13 15 17 20 23 25 27
15 13 11 11 10 10 10 9 8 7 7 9 11 13 13 13 13 11 10 10 10 10 10 9 9 9 8 7 7 7 8 8 8 10 11 12 14 15 16 17 18 20
14 14 14 14 14 14 15 14 13 13 11 11 13 14 14 15 15 15 14 13 12 13 13 14 14 13 11 10 10 8 7 6 7 8 10 11 13 14 16 17 18 19

ECMWFNIL_925_spd_129.txt.gz
Wind_Speed
18 17 17 16 15 15 15 15 14 13 12 11 10 10 10 10 9 10 12 11 10 9 7 6 5 6 7 7 7 7 6 6 5 5 5 5 5 4 4 4 4 5
19 18 17 16 16 15 15 15 14 13 13 12 11 11 10 9 8 10 11 11 10 9 8 6 6 7 8 8 8 7 7 7 6 6 7 6 5 5 5 4 5 6
20 19 17 15 15 14 14 14 13 12 11 11 11 11 10 9 8 9 11 11 10 9 8 7 6 7 8 9 8 8 7 8 7 7 7 7 7 6 6 5 5 5
22 21 19 16 14 13 14 14 13 11 10 10 10 10 10 10 9 9 10 10 10 9 9 8 6 7 8 9 9 8 8 9 9 8 8 8 8 8 7 6 6 5
24 23 21 18 15 14 13 13 12 11 10 10 9 10 10 9 9 9 9 9 8 8 8 8 7 7 8 9 9 8 8 8 8 8 9 8 8 8 7 7 7 7
25 24 23 19 16 14 13 13 12 11 10 9 9 9 8 8 9 9 9 8 7 7 7 7 7 7 8 9 10 10 8 7 7 8 8 8 8 7 7 8 9 8
23 23 23 19 16 15 14 13 12 11 9 8 8 7 7 7 8 9 8 8 7 7 7 7 7 7 7 9 10 11 10 9 9 9 8 8 8 8 7 8 9 9
21 21 22 20 16 16 15 14 13 12 10 8 7 7 7 7 8 8 8 7 7 7 7 7 7 6 7 8 9 10 10 9 9 9 9 8 8 8 8 8 9 9
20 21 21 20 17 16 16 14 13 13 12 10 8 7 7 7 8 8 8 7 7 7 7 7 7 6 7 8 8 9 9 9 8 9 9 8 8 8 8 8 8 9
20 20 19 19 17 16 16 15 13 12 13 12 9 8 8 7 8 8 8 7 7 8 7 8 7 7 8 8 9 9 9 10 9 9 9 9 9 8 8 8 8 8
18 17 18 18 18 16 15 15 13 12 13 13 11 10 9 9 9 9 9 8 8 8 8 9 9 9 9 9 9 9 9 10 10 10 10 10 10 10 9 9 9 9
19 17 17 18 18 16 14 14 13 13 13 14 14 13 11 10 10 10 10 10 9 9 9 9 10 10 10 10 10 10 10 11 11 11 12 12 11 10 10 10 10 10
20 20 19 17 17 17 15 13 13 13 13 13 14 13 12 12 11 11 11 12 12 11 11 10 10 11 11 11 11 11 12 12 12 11 11 12 11 11 10 10 10 11
19 20 21 19 19 19 18 15 13 13 13 13 12 12 12 12 11 10 11 11 11 12 11 11 10 10 11 11 11 11 12 12 13 13 12 12 12 12 10 10 11 11
15 17 19 19 18 19 19 17 15 14 14 13 13 13 12 12 11 11 10 10 11 12 12 11 11 11 10 10 11 12 13 13 13 14 13 12 13 13 12 12 12 12
14 15 16 17 16 16 18 17 16 15 14 14 14 14 14 14 14 12 11 10 11 12 13 13 13 13 12 11 10 11 12 13 14 15 15 14 14 14 14 13 13 12
16 14 13 14 13 14 16 16 16 16 15 15 14 14 14 14 12 11 10 9 9 10 11 11 12 13 13 13 12 11 11 12 13 14 14 15 14 14 14 14 13 13
15 12 9 10 11 12 13 13 14 14 14 14 14 14 13 11 9 9 9 7 7 7 6 5 7 11 13 12 12 11 11 11 12 13 13 13 13 13 13 13 13 12
11 10 7 7 9 11 10 10 10 10 10 10 11 10 9 8 7 7 6 5 4 3 2 3 6 9 10 9 10 10 10 10 12 13 13 12 12 12 12 12 12 12
11 10 9 9 11 13 11 9 9 9 9 8 8 7 7 6 5 4 4 3 3 3 4 4 4 5 6 7 8 8 8 9 10 11 12 12 12 12 11 11 11 11
14 13 12 11 10 10 8 7 7 8 8 8 8 7 5 5 4 4 4 4 4 5 4 3 1 2 3 5 6 6 7 8 9 9 10 10 11 11 11 12 12 12
17 17 16 14 13 12 12 11 11 12 12 11 11 9 7 6 5 5 5 6 6 6 5 4 2 0 2 4 4 5 5 6 8 8 9 9 9 10 10 10 10 12
19 19 19 18 17 15 14 12 11 11 10 9 11 11 11 10 10 9 8 8 7 6 6 5 3 2 1 2 3 4 3 3 5 6 7 7 7 7 7 7 8 9
18 18 19 19 18 16 15 16 15 14 13 12 14 14 14 13 13 12 10 9 8 7 7 8 7 5 3 2 1 2 3 2 1 3 4 5 5 6 5 4 5 6
17 17 18 18 18 18 20 21 20 19 18 17 17 16 15 15 15 14 13 11 9 8 9 10 11 9 7 5 5 3 3 4 3 1 1 3 5 6 6 5 4 4
18 19 20 20 21 22 24 23 21 20 18 17 16 16 16 16 16 16 15 12 9 8 9 10 11 12 10 9 8 7 6 6 6 5 4 4 5 5 6 5 3 3

ECMWFNIL_925_spd_132.txt.gz
Wind_Speed
10 9 9 8 8 6 6 6 6 6 6 6 5 5 5 5 5 5 5 5 5 5 5 4 4 4 4 4 5 4 4 4 4 3 3 3 3 3 3 3 4 4
12 10 9 9 8 7 7 7 6 6 5 5 5 4 4 4 5 5 5 6 6 6 5 5 4 5 5 5 5 5 5 5 5 4 3 3 3 3 4 4 4 4
13 12 11 10 9 9 8 8 7 6 6 6 6 6 5 5 5 5 6 6 6 6 6 5 5 5 6 6 5 5 5 5 5 5 4 4 4 4 4 4 4 4
14 13 12 11 10 9 8 8 7 7 7 6 6 7 6 5 5 6 6 7 7 6 6 6 6 6 6 6 6 6 5 6 6 5 5 5 5 5 5 5 4 4
15 14 13 11 10 9 8 8 8 8 8 7 7 7 7 6 6 7 7 8 8 8 7 7 7 7 7 7 7 7 6 6 6 6 6 6 6 6 6 5 5 5
14 14 13 12 11 10 9 9 9 9 9 9 8 8 8 8 8 8 8 9 9 9 8 8 8 8 7 8 8 7 6 6 4 5 5 6 6 6 5 5 5 5
14 14 14 13 12 12 11 10 9 9 9 9 9 9 8 9 9 9 9 9 9 9 8 8 8 7 7 8 8 8 7 7 5 5 6 6 6 6 6 5 5 6
14 14 14 14 14 13 12 11 11 10 10 9 9 9 9 9 10 10 9 9 9 8 8 8 7 7 8 8 8 8 8 8 7 7 7 7 6 6 6 6 6 6
15 14 14 15 15 14 13 13 12 12 11 11 10 10 10 10 10 10 10 9 9 8 8 8 8 8 8 8 7 7 7 7 7 7 7 7 7 7 7 6 6 6
15 15 15 15 16 15 14 14 13 13 12 12 11 10 10 10 10 10 10 10 9 9 9 8 8 8 9 8 8 8 8 8 7 7 8 8 8 7 7 6 6 6
15 15 15 15 16 16 15 15 14 13 12 12 12 12 10 10 10 10 10 10 10 10 10 10 9 9 9 9 9 8 8 8 8 8 8 8 8 8 7 7 7 7
14 14 14 15 15 15 15 14 14 14 13 13 13 13 12 11 11 11 11 11 11 10 10 10 10 10 10 9 9 9 9 9 9 8 8 8 8 8 8 8 8 7
14 14 13 13 14 14 13 13 14 14 14 13 13 13 13 12 12 12 11 11 11 11 11 11 10 10 10 10 10 9 9 9 9 9 9 8 8 8 8 8 8 8
15 14 13 12 12 12 12 12 12 13 13 13 13 13 14 13 13 12 12 12 12 12 11 11 11 11 11 10 10 10 9 10 9 9 9 8 8 8 8 8 8 9
14 13 12 12 12 11 11 11 12 12 12 12 12 12 13 13 12 12 11 11 11 11 11 11 11 11 11 11 10 9 9 9 9 9 9 8 8 8 8 8 8 9
13 12 11 10 11 11 11 11 11 12 12 11 11 11 11 11 11 11 10 10 10 10 11 11 11 11 12 12 11 9 9 9 8 8 8 8 8 8 8 9 9 9
12 11 11 10 10 10 10 10 10 9 10 10 10 10 10 9 10 10 10 11 10 10 11 11 11 10 11 12 12 11 10 9 9 10 9 9 9 10 9 9 10 9
12 12 12 11 10 10 10 9 8 7 7 7 8 9 9 9 9 9 10 10 9 10 10 9 8 10 12 12 12 12 11 11 11 11 11 11 11 10 10 9 9 9
13 13 13 13 12 10 8 7 7 6 6 6 6 6 7 8 9 9 9 9 9 9 7 5 7 11 12 12 12 12 11 11 11 11 11 11 11 10 10 9 8 8
12 12 13 14 13 11 9 9 9 8 8 9 9 8 6 8 10 10 9 9 8 7 5 5 9 10 9 10 10 10 10 10 10 11 12 11 10 10 9 9 8 8
12 12 13 14 13 12 12 13 13 13 12 13 15 15 12 10 10 10 9 8 7 6 4 3 6 8 7 8 9 9 9 9 8 10 11 10 9 8 7 7 7 8
11 11 12 12 12 12 13 15 16 16 16 15 15 14 12 10 9 9 8 6 5 6 5 2 2 5 6 6 7 7 8 7 7 9 9 9 8 6 6 6 5 5
11 12 12 12 12 12 13 14 14 14 14 14 14 12 11 10 9 8 8 8 7 7 6 3 1 4 4 5 6 6 6 7 7 7 7 7 7 6 5 4 4 4
15 15 15 14 13 13 13 13 13 13 14 14 15 15 14 14 13 11 9 9 8 7 6 5 3 1 2 3 5 6 7 6 6 7 7 7 6 6 4 3 3 4
16 16 16 16 14 14 14 14 14 14 15 15 15 16 16 15 14 13 13 12 10 9 8 8 7 6 3 2 1 3 5 3 3 6 6 5 5 5 4 1 2 2
15 15 15 17 18 17 16 15 16 16 16 16 16 16 16 16 14 14 15 13 9 8 9 9 9 9 7 6 5 3 2 2 1 1 2 3 4 5 3 1 0 1

ECMWFNIL_925_spd_135.txt.gz
Wind_Speed
9 10 9 9 9 8 8 8 8 8 8 7 7 7 7 7 7 7 7 7 7 6 6 5 4 4 3 4 4 3 2 2 3 2 2 2 3 3 3 2 2 2
10 10 9 9 9 7 7 8 7 8 8 7 7 7 7 7 7 8 8 7 7 7 7 6 5 5 5 4 4 4 3 3 4 3 2 3 3 4 4 4 3 2
11 10 10 10 10 9 9 8 7 7 7 7 7 7 7 8 8 8 8 8 8 8 7 7 6 6 6 5 5 5 5 4 5 4 3 3 4 4 4 5 4 3
13 11 11 11 10 10 10 9 9 8 8 8 8 8 7 7 8 8 8 8 8 8 8 8 7 7 6 6 6 6 6 5 6 5 4 4 5 5 5 5 5 4
14 12 12 11 10 10 10 9 9 9 9 8 8 8 7 6 7 8 8 9 9 9 8 8 8 8 7 7 7 7 6 6 7 6 6 6 6 6 6 5 4 4
15 14 13 12 10 10 11 10 10 10 9 9 9 9 9 8 7 8 8 9 9 9 9 9 9 8 8 8 8 8 7 7 6 6 7 7 6 7 6 4 4 5
16 16 14 13 13 13 12 11 11 10 10 10 10 9 9 9 9 8 8 9 9 9 9 8 8 8 8 8 8 8 8 7 5 5 7 7 6 7 7 5 5 6
16 16 16 15 15 14 14 13 12 12 11 11 11 10 9 10 10 10 9 9 9 8 8 7 7 8 8 8 8 8 8 8 7 7 7 7 7 7 7 7 7 7
16 16 16 16 16 15 15 15 14 14 13 13 12 11 11 10 10 10 10 9 9 8 8 7 7 8 8 8 7 7 8 8 8 7 8 8 8 8 8 8 8 8
17 17 17 17 16 16 16 16 15 14 14 14 13 12 12 11 10 10 10 10 9 9 9 8 8 8 9 9 8 8 8 8 8 7 8 8 8 8 8 8 8 8
18 18 18 18 17 17 16 16 15 14 15 14 14 13 12 12 12 10 10 11 10 10 10 10 9 9 9 9 10 9 9 9 9 9 9 9 9 9 9 9 9 9
18 17 18 18 18 17 17 16 15 14 15 14 14 13 12 12 12 11 11 11 11 11 11 11 10 10 10 10 11 11 10 10 10 10 10 10 10 10 10 10 10 10
18 17 17 18 17 17 17 16 16 16 15 14 14 13 12 11 12 12 12 11 11 11 11 11 11 11 11 12 12 11 10 10 10 11 10 10 10 10 10 11 11 11
18 17 17 16 16 17 16 15 15 16 15 15 15 14 13 13 12 12 12 12 12 12 11 11 12 11 12 13 12 11 10 10 10 11 11 10 10 10 10 11 11 11
18 17 17 16 15 16 16 15 14 13 14 14 14 14 13 13 13 12 12 12 12 12 12 12 12 12 12 12 12 10 9 10 10 11 13 11 10 10 11 11 11 11
17 17 17 16 16 15 15 15 14 13 13 13 13 13 13 12 12 13 13 12 12 12 13 13 11 9 11 13 13 11 9 9 9 11 14 13 11 10 11 12 12 12
15 16 16 17 17 16 15 15 15 14 14 13 13 14 14 13 12 13 13 13 12 12 13 12 10 8 10 13 14 13 11 9 9 11 13 14 12 11 12 12 12 12
13 13 14 14 14 15 16 14 12 12 11 12 13 14 14 14 14 13 13 13 13 13 12 9 9 10 11 13 15 15 13 11 11 12 13 14 14 13 13 13 13 12
13 13 13 13 12 13 14 13 11 10 10 11 12 12 13 13 14 13 13 13 13 13 9 6 8 10 11 12 14 14 14 14 14 14 14 14 14 13 12 13 13 12
14 14 14 14 13 12 11 10 9 10 10 10 11 11 12 12 13 13 13 13 13 12 7 6 8 10 9 10 11 11 14 15 14 14 15 15 15 14 14 14 13 12
12 13 13 12 11 10 8 9 11 12 11 10 10 10 11 12 13 14 13 12 13 12 7 4 6 8 7 9 10 10 13 13 12 13 14 15 15 14 12 11 11 11
11 11 10 10 10 9 9 11 12 13 14 13 13 12 12 12 11 12 11 10 10 11 10 5 3 6 6 7 8 8 9 9 9 11 12 14 13 10 7 7 8 8
16 15 13 14 14 12 12 12 11 12 13 14 15 14 13 13 10 6 6 6 4 9 11 6 3 3 3 5 6 7 7 6 7 8 9 10 9 7 6 6 6 4
15 15 14 15 15 13 13 12 11 11 11 11 12 11 9 10 9 5 9 10 11 13 11 8 6 2 1 3 5 6 7 7 7 8 8 7 6 6 5 3 3 3
12 13 13 13 13 12 11 11 10 11 10 9 10 10 7 7 9 12 15 15 15 14 13 11 10 7 5 3 1 3 5 4 4 6 6 4 3 4 4 3 3 5
12 13 13 13 14 13 12 10 10 9 8 9 11 11 12 15 16 17 16 15 14 12 12 12 11 10 9 7 5 2 1 1 2 3 3 2 5 5 3 2 2 6